<?xml version="1.0" encoding="UTF-8" standalone="no" ?>
<gpx xmlns="http://www.topografix.com/GPX/1/1" xmlns:xsi="http://www.w3.org/2001/XMLSchema-instance" xsi:schemaLocation="http://www.topografix.com/GPX/1/1 http://www.topografix.com/GPX/1/1/gpx.xsd" version="1.1" creator="VisuGPX - https://www.visugpx.com">
  <metadata>
    <name>Picco Vallandro (Durrestein) 2842m</name>
    <desc><![CDATA[Ponticello, Prato Piazza - Picco Vallandro (Durrestein) 2842m]]></desc>
  </metadata>
  <trk>
    <name><![CDATA[Picco_Vallandro_2019-02-24]]></name>
    <trkseg>
      <trkpt lat="46.65676" lon="12.17519">
        <ele>1968.92</ele>
        <time>2019-02-24T08:36:44Z</time>
      </trkpt>
      <trkpt lat="46.65676" lon="12.17519">
        <ele>1968.92</ele>
        <time>2019-02-24T08:36:45Z</time>
      </trkpt>
      <trkpt lat="46.65676" lon="12.17525">
        <ele>1967.96</ele>
        <time>2019-02-24T08:37:01Z</time>
      </trkpt>
      <trkpt lat="46.65678" lon="12.17518">
        <ele>1967.48</ele>
        <time>2019-02-24T08:37:17Z</time>
      </trkpt>
      <trkpt lat="46.65673" lon="12.17519">
        <ele>1966.99</ele>
        <time>2019-02-24T08:37:39Z</time>
      </trkpt>
      <trkpt lat="46.65674" lon="12.17519">
        <ele>1967.48</ele>
        <time>2019-02-24T08:38:03Z</time>
      </trkpt>
      <trkpt lat="46.65675" lon="12.17519">
        <ele>1967.48</ele>
        <time>2019-02-24T08:38:32Z</time>
      </trkpt>
      <trkpt lat="46.65675" lon="12.17517">
        <ele>1967.48</ele>
        <time>2019-02-24T08:39:06Z</time>
      </trkpt>
      <trkpt lat="46.65674" lon="12.17517">
        <ele>1967.48</ele>
        <time>2019-02-24T08:39:37Z</time>
      </trkpt>
      <trkpt lat="46.65674" lon="12.17519">
        <ele>1967.48</ele>
        <time>2019-02-24T08:40:10Z</time>
      </trkpt>
      <trkpt lat="46.65672" lon="12.17521">
        <ele>1967.48</ele>
        <time>2019-02-24T08:40:43Z</time>
      </trkpt>
      <trkpt lat="46.65672" lon="12.17518">
        <ele>1967.48</ele>
        <time>2019-02-24T08:41:24Z</time>
      </trkpt>
      <trkpt lat="46.65672" lon="12.17517">
        <ele>1967.48</ele>
        <time>2019-02-24T08:41:55Z</time>
      </trkpt>
      <trkpt lat="46.6567" lon="12.17515">
        <ele>1967.96</ele>
        <time>2019-02-24T08:42:32Z</time>
      </trkpt>
      <trkpt lat="46.6567" lon="12.17516">
        <ele>1967.48</ele>
        <time>2019-02-24T08:42:49Z</time>
      </trkpt>
      <trkpt lat="46.65678" lon="12.17516">
        <ele>1967.48</ele>
        <time>2019-02-24T08:43:16Z</time>
      </trkpt>
      <trkpt lat="46.65676" lon="12.17519">
        <ele>1967.48</ele>
        <time>2019-02-24T08:43:41Z</time>
      </trkpt>
      <trkpt lat="46.65673" lon="12.17519">
        <ele>1967.96</ele>
        <time>2019-02-24T08:44:08Z</time>
      </trkpt>
      <trkpt lat="46.65672" lon="12.17519">
        <ele>1967.96</ele>
        <time>2019-02-24T08:44:39Z</time>
      </trkpt>
      <trkpt lat="46.65671" lon="12.17516">
        <ele>1967.96</ele>
        <time>2019-02-24T08:45:05Z</time>
      </trkpt>
      <trkpt lat="46.65672" lon="12.17516">
        <ele>1967.96</ele>
        <time>2019-02-24T08:45:41Z</time>
      </trkpt>
      <trkpt lat="46.65674" lon="12.1752">
        <ele>1967.96</ele>
        <time>2019-02-24T08:46:12Z</time>
      </trkpt>
      <trkpt lat="46.65676" lon="12.17518">
        <ele>1967.96</ele>
        <time>2019-02-24T08:46:36Z</time>
      </trkpt>
      <trkpt lat="46.65674" lon="12.17516">
        <ele>1964.11</ele>
        <time>2019-02-24T08:46:57Z</time>
      </trkpt>
      <trkpt lat="46.65675" lon="12.17517">
        <ele>1970.84</ele>
        <time>2019-02-24T08:46:58Z</time>
      </trkpt>
      <trkpt lat="46.65676" lon="12.17517">
        <ele>1963.15</ele>
        <time>2019-02-24T08:47:03Z</time>
      </trkpt>
      <trkpt lat="46.65676" lon="12.17517">
        <ele>1971.8</ele>
        <time>2019-02-24T08:47:04Z</time>
      </trkpt>
      <trkpt lat="46.65676" lon="12.17517">
        <ele>1968.44</ele>
        <time>2019-02-24T08:47:05Z</time>
      </trkpt>
      <trkpt lat="46.65675" lon="12.17518">
        <ele>1968.44</ele>
        <time>2019-02-24T08:47:28Z</time>
      </trkpt>
      <trkpt lat="46.6567" lon="12.17521">
        <ele>1969.4</ele>
        <time>2019-02-24T08:47:56Z</time>
      </trkpt>
      <trkpt lat="46.65666" lon="12.17538">
        <ele>1970.36</ele>
        <time>2019-02-24T08:48:13Z</time>
      </trkpt>
      <trkpt lat="46.65663" lon="12.17549">
        <ele>1971.32</ele>
        <time>2019-02-24T08:48:26Z</time>
      </trkpt>
      <trkpt lat="46.65661" lon="12.17562">
        <ele>1971.8</ele>
        <time>2019-02-24T08:48:38Z</time>
      </trkpt>
      <trkpt lat="46.65654" lon="12.17578">
        <ele>1972.76</ele>
        <time>2019-02-24T08:48:54Z</time>
      </trkpt>
      <trkpt lat="46.65652" lon="12.17587">
        <ele>1973.24</ele>
        <time>2019-02-24T08:49:08Z</time>
      </trkpt>
      <trkpt lat="46.65646" lon="12.176">
        <ele>1974.2</ele>
        <time>2019-02-24T08:49:21Z</time>
      </trkpt>
      <trkpt lat="46.65644" lon="12.17612">
        <ele>1975.17</ele>
        <time>2019-02-24T08:49:34Z</time>
      </trkpt>
      <trkpt lat="46.65641" lon="12.17629">
        <ele>1976.13</ele>
        <time>2019-02-24T08:49:49Z</time>
      </trkpt>
      <trkpt lat="46.65638" lon="12.17646">
        <ele>1977.09</ele>
        <time>2019-02-24T08:50:04Z</time>
      </trkpt>
      <trkpt lat="46.65638" lon="12.17648">
        <ele>1977.57</ele>
        <time>2019-02-24T08:50:05Z</time>
      </trkpt>
      <trkpt lat="46.65634" lon="12.17663">
        <ele>1978.05</ele>
        <time>2019-02-24T08:50:17Z</time>
      </trkpt>
      <trkpt lat="46.65632" lon="12.17665">
        <ele>1978.05</ele>
        <time>2019-02-24T08:50:19Z</time>
      </trkpt>
      <trkpt lat="46.65632" lon="12.17666">
        <ele>1978.05</ele>
        <time>2019-02-24T08:50:20Z</time>
      </trkpt>
      <trkpt lat="46.65631" lon="12.17667">
        <ele>1978.05</ele>
        <time>2019-02-24T08:50:21Z</time>
      </trkpt>
      <trkpt lat="46.65624" lon="12.17687">
        <ele>1979.49</ele>
        <time>2019-02-24T08:50:36Z</time>
      </trkpt>
      <trkpt lat="46.65623" lon="12.17694">
        <ele>1980.45</ele>
        <time>2019-02-24T08:50:44Z</time>
      </trkpt>
      <trkpt lat="46.65624" lon="12.17701">
        <ele>1981.9</ele>
        <time>2019-02-24T08:50:56Z</time>
      </trkpt>
      <trkpt lat="46.65624" lon="12.17707">
        <ele>1982.86</ele>
        <time>2019-02-24T08:51:09Z</time>
      </trkpt>
      <trkpt lat="46.65621" lon="12.17703">
        <ele>1982.86</ele>
        <time>2019-02-24T08:51:31Z</time>
      </trkpt>
      <trkpt lat="46.65621" lon="12.17704">
        <ele>1982.86</ele>
        <time>2019-02-24T08:51:50Z</time>
      </trkpt>
      <trkpt lat="46.65621" lon="12.17705">
        <ele>1981.9</ele>
        <time>2019-02-24T08:52:04Z</time>
      </trkpt>
      <trkpt lat="46.65622" lon="12.17704">
        <ele>1982.38</ele>
        <time>2019-02-24T08:52:32Z</time>
      </trkpt>
      <trkpt lat="46.65622" lon="12.17705">
        <ele>1983.34</ele>
        <time>2019-02-24T08:52:46Z</time>
      </trkpt>
      <trkpt lat="46.65621" lon="12.17705">
        <ele>1983.34</ele>
        <time>2019-02-24T08:53:01Z</time>
      </trkpt>
      <trkpt lat="46.65622" lon="12.17709">
        <ele>1982.86</ele>
        <time>2019-02-24T08:53:22Z</time>
      </trkpt>
      <trkpt lat="46.65625" lon="12.17713">
        <ele>1983.34</ele>
        <time>2019-02-24T08:53:37Z</time>
      </trkpt>
      <trkpt lat="46.65633" lon="12.17709">
        <ele>1984.78</ele>
        <time>2019-02-24T08:53:49Z</time>
      </trkpt>
      <trkpt lat="46.65631" lon="12.17705">
        <ele>1985.26</ele>
        <time>2019-02-24T08:54:01Z</time>
      </trkpt>
      <trkpt lat="46.65632" lon="12.17706">
        <ele>1984.78</ele>
        <time>2019-02-24T08:54:24Z</time>
      </trkpt>
      <trkpt lat="46.65628" lon="12.17712">
        <ele>1984.3</ele>
        <time>2019-02-24T08:54:38Z</time>
      </trkpt>
      <trkpt lat="46.65627" lon="12.17714">
        <ele>1984.3</ele>
        <time>2019-02-24T08:54:54Z</time>
      </trkpt>
      <trkpt lat="46.65626" lon="12.17711">
        <ele>1984.3</ele>
        <time>2019-02-24T08:55:18Z</time>
      </trkpt>
      <trkpt lat="46.65626" lon="12.17711">
        <ele>1984.3</ele>
        <time>2019-02-24T08:55:43Z</time>
      </trkpt>
      <trkpt lat="46.65626" lon="12.17712">
        <ele>1984.3</ele>
        <time>2019-02-24T08:56:05Z</time>
      </trkpt>
      <trkpt lat="46.65628" lon="12.17714">
        <ele>1984.3</ele>
        <time>2019-02-24T08:56:29Z</time>
      </trkpt>
      <trkpt lat="46.65627" lon="12.17714">
        <ele>1984.78</ele>
        <time>2019-02-24T08:56:49Z</time>
      </trkpt>
      <trkpt lat="46.65627" lon="12.17714">
        <ele>1984.78</ele>
        <time>2019-02-24T08:57:15Z</time>
      </trkpt>
      <trkpt lat="46.65629" lon="12.1772">
        <ele>1985.74</ele>
        <time>2019-02-24T08:57:26Z</time>
      </trkpt>
      <trkpt lat="46.65629" lon="12.17722">
        <ele>1986.22</ele>
        <time>2019-02-24T08:57:40Z</time>
      </trkpt>
      <trkpt lat="46.65627" lon="12.17728">
        <ele>1986.22</ele>
        <time>2019-02-24T08:57:54Z</time>
      </trkpt>
      <trkpt lat="46.65622" lon="12.17735">
        <ele>1986.22</ele>
        <time>2019-02-24T08:58:07Z</time>
      </trkpt>
      <trkpt lat="46.65618" lon="12.17748">
        <ele>1986.7</ele>
        <time>2019-02-24T08:58:21Z</time>
      </trkpt>
      <trkpt lat="46.65617" lon="12.17758">
        <ele>1987.66</ele>
        <time>2019-02-24T08:58:34Z</time>
      </trkpt>
      <trkpt lat="46.65614" lon="12.17757">
        <ele>1987.66</ele>
        <time>2019-02-24T08:58:51Z</time>
      </trkpt>
      <trkpt lat="46.65611" lon="12.17763">
        <ele>1987.66</ele>
        <time>2019-02-24T08:58:57Z</time>
      </trkpt>
      <trkpt lat="46.65608" lon="12.17778">
        <ele>1988.14</ele>
        <time>2019-02-24T08:59:10Z</time>
      </trkpt>
      <trkpt lat="46.65604" lon="12.17791">
        <ele>1989.59</ele>
        <time>2019-02-24T08:59:23Z</time>
      </trkpt>
      <trkpt lat="46.656" lon="12.178">
        <ele>1990.07</ele>
        <time>2019-02-24T08:59:33Z</time>
      </trkpt>
      <trkpt lat="46.65596" lon="12.17816">
        <ele>1991.51</ele>
        <time>2019-02-24T08:59:47Z</time>
      </trkpt>
      <trkpt lat="46.65596" lon="12.17825">
        <ele>1992.95</ele>
        <time>2019-02-24T08:59:57Z</time>
      </trkpt>
      <trkpt lat="46.65599" lon="12.1783">
        <ele>1994.39</ele>
        <time>2019-02-24T09:00:04Z</time>
      </trkpt>
      <trkpt lat="46.65607" lon="12.17829">
        <ele>1996.8</ele>
        <time>2019-02-24T09:00:17Z</time>
      </trkpt>
      <trkpt lat="46.6561" lon="12.17836">
        <ele>1998.24</ele>
        <time>2019-02-24T09:00:28Z</time>
      </trkpt>
      <trkpt lat="46.65607" lon="12.17843">
        <ele>1999.2</ele>
        <time>2019-02-24T09:00:43Z</time>
      </trkpt>
      <trkpt lat="46.6561" lon="12.17847">
        <ele>1999.68</ele>
        <time>2019-02-24T09:00:56Z</time>
      </trkpt>
      <trkpt lat="46.65608" lon="12.17848">
        <ele>2000.16</ele>
        <time>2019-02-24T09:01:12Z</time>
      </trkpt>
      <trkpt lat="46.65606" lon="12.17849">
        <ele>2000.64</ele>
        <time>2019-02-24T09:01:32Z</time>
      </trkpt>
      <trkpt lat="46.65613" lon="12.17853">
        <ele>2001.6</ele>
        <time>2019-02-24T09:01:46Z</time>
      </trkpt>
      <trkpt lat="46.65614" lon="12.17864">
        <ele>2003.52</ele>
        <time>2019-02-24T09:02:03Z</time>
      </trkpt>
      <trkpt lat="46.65614" lon="12.17875">
        <ele>2005.45</ele>
        <time>2019-02-24T09:02:15Z</time>
      </trkpt>
      <trkpt lat="46.65612" lon="12.17887">
        <ele>2006.89</ele>
        <time>2019-02-24T09:02:29Z</time>
      </trkpt>
      <trkpt lat="46.65608" lon="12.17897">
        <ele>2009.29</ele>
        <time>2019-02-24T09:02:48Z</time>
      </trkpt>
      <trkpt lat="46.65605" lon="12.17909">
        <ele>2011.22</ele>
        <time>2019-02-24T09:03:03Z</time>
      </trkpt>
      <trkpt lat="46.65601" lon="12.17923">
        <ele>2013.14</ele>
        <time>2019-02-24T09:03:17Z</time>
      </trkpt>
      <trkpt lat="46.65598" lon="12.17929">
        <ele>2014.58</ele>
        <time>2019-02-24T09:03:30Z</time>
      </trkpt>
      <trkpt lat="46.65594" lon="12.17938">
        <ele>2016.5</ele>
        <time>2019-02-24T09:03:43Z</time>
      </trkpt>
      <trkpt lat="46.65594" lon="12.17948">
        <ele>2017.94</ele>
        <time>2019-02-24T09:03:56Z</time>
      </trkpt>
      <trkpt lat="46.65592" lon="12.17959">
        <ele>2020.35</ele>
        <time>2019-02-24T09:04:10Z</time>
      </trkpt>
      <trkpt lat="46.65593" lon="12.17969">
        <ele>2021.79</ele>
        <time>2019-02-24T09:04:24Z</time>
      </trkpt>
      <trkpt lat="46.65591" lon="12.17977">
        <ele>2024.19</ele>
        <time>2019-02-24T09:04:38Z</time>
      </trkpt>
      <trkpt lat="46.65592" lon="12.17987">
        <ele>2026.6</ele>
        <time>2019-02-24T09:04:53Z</time>
      </trkpt>
      <trkpt lat="46.65593" lon="12.17998">
        <ele>2028.04</ele>
        <time>2019-02-24T09:05:08Z</time>
      </trkpt>
      <trkpt lat="46.65593" lon="12.18008">
        <ele>2029.96</ele>
        <time>2019-02-24T09:05:22Z</time>
      </trkpt>
      <trkpt lat="46.65595" lon="12.18018">
        <ele>2031.4</ele>
        <time>2019-02-24T09:05:36Z</time>
      </trkpt>
      <trkpt lat="46.65596" lon="12.18026">
        <ele>2033.33</ele>
        <time>2019-02-24T09:05:49Z</time>
      </trkpt>
      <trkpt lat="46.65595" lon="12.18037">
        <ele>2035.25</ele>
        <time>2019-02-24T09:06:05Z</time>
      </trkpt>
      <trkpt lat="46.65595" lon="12.18048">
        <ele>2037.17</ele>
        <time>2019-02-24T09:06:17Z</time>
      </trkpt>
      <trkpt lat="46.65596" lon="12.18058">
        <ele>2038.61</ele>
        <time>2019-02-24T09:06:32Z</time>
      </trkpt>
      <trkpt lat="46.65598" lon="12.18062">
        <ele>2039.09</ele>
        <time>2019-02-24T09:06:48Z</time>
      </trkpt>
      <trkpt lat="46.656" lon="12.18057">
        <ele>2039.57</ele>
        <time>2019-02-24T09:07:08Z</time>
      </trkpt>
      <trkpt lat="46.65605" lon="12.18056">
        <ele>2039.57</ele>
        <time>2019-02-24T09:07:31Z</time>
      </trkpt>
      <trkpt lat="46.65601" lon="12.18062">
        <ele>2040.05</ele>
        <time>2019-02-24T09:07:41Z</time>
      </trkpt>
      <trkpt lat="46.65601" lon="12.1806">
        <ele>2040.05</ele>
        <time>2019-02-24T09:07:56Z</time>
      </trkpt>
      <trkpt lat="46.65605" lon="12.18063">
        <ele>2038.61</ele>
        <time>2019-02-24T09:08:13Z</time>
      </trkpt>
      <trkpt lat="46.65598" lon="12.18063">
        <ele>2039.09</ele>
        <time>2019-02-24T09:08:35Z</time>
      </trkpt>
      <trkpt lat="46.65598" lon="12.18063">
        <ele>2040.05</ele>
        <time>2019-02-24T09:08:55Z</time>
      </trkpt>
      <trkpt lat="46.65599" lon="12.18068">
        <ele>2040.05</ele>
        <time>2019-02-24T09:09:10Z</time>
      </trkpt>
      <trkpt lat="46.65598" lon="12.18072">
        <ele>2040.54</ele>
        <time>2019-02-24T09:09:33Z</time>
      </trkpt>
      <trkpt lat="46.65599" lon="12.18072">
        <ele>2040.54</ele>
        <time>2019-02-24T09:09:53Z</time>
      </trkpt>
      <trkpt lat="46.656" lon="12.18074">
        <ele>2041.5</ele>
        <time>2019-02-24T09:10:10Z</time>
      </trkpt>
      <trkpt lat="46.65601" lon="12.18086">
        <ele>2042.46</ele>
        <time>2019-02-24T09:10:26Z</time>
      </trkpt>
      <trkpt lat="46.65602" lon="12.18099">
        <ele>2044.38</ele>
        <time>2019-02-24T09:10:45Z</time>
      </trkpt>
      <trkpt lat="46.65604" lon="12.1811">
        <ele>2045.82</ele>
        <time>2019-02-24T09:11:01Z</time>
      </trkpt>
      <trkpt lat="46.65605" lon="12.18118">
        <ele>2047.26</ele>
        <time>2019-02-24T09:11:17Z</time>
      </trkpt>
      <trkpt lat="46.65605" lon="12.18127">
        <ele>2049.19</ele>
        <time>2019-02-24T09:11:32Z</time>
      </trkpt>
      <trkpt lat="46.65604" lon="12.18135">
        <ele>2050.15</ele>
        <time>2019-02-24T09:11:45Z</time>
      </trkpt>
      <trkpt lat="46.65603" lon="12.18142">
        <ele>2051.11</ele>
        <time>2019-02-24T09:11:58Z</time>
      </trkpt>
      <trkpt lat="46.65603" lon="12.18149">
        <ele>2052.07</ele>
        <time>2019-02-24T09:12:11Z</time>
      </trkpt>
      <trkpt lat="46.65602" lon="12.18156">
        <ele>2053.03</ele>
        <time>2019-02-24T09:12:20Z</time>
      </trkpt>
      <trkpt lat="46.65603" lon="12.18162">
        <ele>2054.47</ele>
        <time>2019-02-24T09:12:36Z</time>
      </trkpt>
      <trkpt lat="46.65607" lon="12.18168">
        <ele>2054.96</ele>
        <time>2019-02-24T09:12:47Z</time>
      </trkpt>
      <trkpt lat="46.65612" lon="12.18177">
        <ele>2056.4</ele>
        <time>2019-02-24T09:13:03Z</time>
      </trkpt>
      <trkpt lat="46.65617" lon="12.18178">
        <ele>2057.84</ele>
        <time>2019-02-24T09:13:17Z</time>
      </trkpt>
      <trkpt lat="46.65621" lon="12.18184">
        <ele>2059.76</ele>
        <time>2019-02-24T09:13:31Z</time>
      </trkpt>
      <trkpt lat="46.65621" lon="12.18191">
        <ele>2060.24</ele>
        <time>2019-02-24T09:13:42Z</time>
      </trkpt>
      <trkpt lat="46.65619" lon="12.18202">
        <ele>2062.17</ele>
        <time>2019-02-24T09:13:59Z</time>
      </trkpt>
      <trkpt lat="46.65618" lon="12.18207">
        <ele>2062.65</ele>
        <time>2019-02-24T09:14:15Z</time>
      </trkpt>
      <trkpt lat="46.65617" lon="12.18214">
        <ele>2064.57</ele>
        <time>2019-02-24T09:14:30Z</time>
      </trkpt>
      <trkpt lat="46.65617" lon="12.1822">
        <ele>2066.01</ele>
        <time>2019-02-24T09:14:45Z</time>
      </trkpt>
      <trkpt lat="46.65617" lon="12.18226">
        <ele>2067.45</ele>
        <time>2019-02-24T09:14:58Z</time>
      </trkpt>
      <trkpt lat="46.65617" lon="12.18235">
        <ele>2067.93</ele>
        <time>2019-02-24T09:15:12Z</time>
      </trkpt>
      <trkpt lat="46.65619" lon="12.18241">
        <ele>2069.38</ele>
        <time>2019-02-24T09:15:29Z</time>
      </trkpt>
      <trkpt lat="46.65624" lon="12.18241">
        <ele>2070.34</ele>
        <time>2019-02-24T09:15:41Z</time>
      </trkpt>
      <trkpt lat="46.6563" lon="12.1824">
        <ele>2072.26</ele>
        <time>2019-02-24T09:15:56Z</time>
      </trkpt>
      <trkpt lat="46.65634" lon="12.18241">
        <ele>2073.7</ele>
        <time>2019-02-24T09:16:11Z</time>
      </trkpt>
      <trkpt lat="46.65634" lon="12.18246">
        <ele>2075.14</ele>
        <time>2019-02-24T09:16:24Z</time>
      </trkpt>
      <trkpt lat="46.65631" lon="12.18256">
        <ele>2076.1</ele>
        <time>2019-02-24T09:16:38Z</time>
      </trkpt>
      <trkpt lat="46.6563" lon="12.18262">
        <ele>2076.1</ele>
        <time>2019-02-24T09:16:51Z</time>
      </trkpt>
      <trkpt lat="46.6563" lon="12.1827">
        <ele>2076.1</ele>
        <time>2019-02-24T09:17:07Z</time>
      </trkpt>
      <trkpt lat="46.65631" lon="12.18271">
        <ele>2077.07</ele>
        <time>2019-02-24T09:17:21Z</time>
      </trkpt>
      <trkpt lat="46.65633" lon="12.18277">
        <ele>2077.55</ele>
        <time>2019-02-24T09:17:36Z</time>
      </trkpt>
      <trkpt lat="46.65636" lon="12.18279">
        <ele>2077.55</ele>
        <time>2019-02-24T09:17:48Z</time>
      </trkpt>
      <trkpt lat="46.65641" lon="12.18288">
        <ele>2078.03</ele>
        <time>2019-02-24T09:18:04Z</time>
      </trkpt>
      <trkpt lat="46.65639" lon="12.18287">
        <ele>2077.55</ele>
        <time>2019-02-24T09:18:16Z</time>
      </trkpt>
      <trkpt lat="46.65643" lon="12.18294">
        <ele>2076.1</ele>
        <time>2019-02-24T09:18:31Z</time>
      </trkpt>
      <trkpt lat="46.65644" lon="12.18301">
        <ele>2075.62</ele>
        <time>2019-02-24T09:18:43Z</time>
      </trkpt>
      <trkpt lat="46.65648" lon="12.1831">
        <ele>2074.18</ele>
        <time>2019-02-24T09:18:55Z</time>
      </trkpt>
      <trkpt lat="46.65652" lon="12.18312">
        <ele>2073.7</ele>
        <time>2019-02-24T09:19:07Z</time>
      </trkpt>
      <trkpt lat="46.65656" lon="12.18321">
        <ele>2073.22</ele>
        <time>2019-02-24T09:19:21Z</time>
      </trkpt>
      <trkpt lat="46.65658" lon="12.18327">
        <ele>2072.74</ele>
        <time>2019-02-24T09:19:30Z</time>
      </trkpt>
      <trkpt lat="46.65667" lon="12.1834">
        <ele>2073.22</ele>
        <time>2019-02-24T09:19:46Z</time>
      </trkpt>
      <trkpt lat="46.6567" lon="12.18351">
        <ele>2074.18</ele>
        <time>2019-02-24T09:19:59Z</time>
      </trkpt>
      <trkpt lat="46.65672" lon="12.1836">
        <ele>2074.66</ele>
        <time>2019-02-24T09:20:10Z</time>
      </trkpt>
      <trkpt lat="46.65672" lon="12.18367">
        <ele>2076.1</ele>
        <time>2019-02-24T09:20:24Z</time>
      </trkpt>
      <trkpt lat="46.65674" lon="12.18375">
        <ele>2077.55</ele>
        <time>2019-02-24T09:20:36Z</time>
      </trkpt>
      <trkpt lat="46.65675" lon="12.18381">
        <ele>2078.51</ele>
        <time>2019-02-24T09:20:47Z</time>
      </trkpt>
      <trkpt lat="46.65677" lon="12.18389">
        <ele>2079.95</ele>
        <time>2019-02-24T09:21:02Z</time>
      </trkpt>
      <trkpt lat="46.65678" lon="12.18398">
        <ele>2081.39</ele>
        <time>2019-02-24T09:21:17Z</time>
      </trkpt>
      <trkpt lat="46.6568" lon="12.18406">
        <ele>2082.83</ele>
        <time>2019-02-24T09:21:29Z</time>
      </trkpt>
      <trkpt lat="46.65682" lon="12.18414">
        <ele>2083.79</ele>
        <time>2019-02-24T09:21:43Z</time>
      </trkpt>
      <trkpt lat="46.65684" lon="12.18422">
        <ele>2085.72</ele>
        <time>2019-02-24T09:21:58Z</time>
      </trkpt>
      <trkpt lat="46.65685" lon="12.18432">
        <ele>2087.16</ele>
        <time>2019-02-24T09:22:13Z</time>
      </trkpt>
      <trkpt lat="46.65687" lon="12.18443">
        <ele>2089.08</ele>
        <time>2019-02-24T09:22:29Z</time>
      </trkpt>
      <trkpt lat="46.65688" lon="12.1845">
        <ele>2090.04</ele>
        <time>2019-02-24T09:22:42Z</time>
      </trkpt>
      <trkpt lat="46.65691" lon="12.18459">
        <ele>2091</ele>
        <time>2019-02-24T09:22:55Z</time>
      </trkpt>
      <trkpt lat="46.65697" lon="12.18469">
        <ele>2091.97</ele>
        <time>2019-02-24T09:23:10Z</time>
      </trkpt>
      <trkpt lat="46.65701" lon="12.18476">
        <ele>2093.41</ele>
        <time>2019-02-24T09:23:24Z</time>
      </trkpt>
      <trkpt lat="46.65707" lon="12.1848">
        <ele>2094.37</ele>
        <time>2019-02-24T09:23:41Z</time>
      </trkpt>
      <trkpt lat="46.65713" lon="12.1848">
        <ele>2095.81</ele>
        <time>2019-02-24T09:23:58Z</time>
      </trkpt>
      <trkpt lat="46.65718" lon="12.18475">
        <ele>2097.25</ele>
        <time>2019-02-24T09:24:11Z</time>
      </trkpt>
      <trkpt lat="46.65722" lon="12.18472">
        <ele>2098.21</ele>
        <time>2019-02-24T09:24:25Z</time>
      </trkpt>
      <trkpt lat="46.65725" lon="12.1847">
        <ele>2098.7</ele>
        <time>2019-02-24T09:24:39Z</time>
      </trkpt>
      <trkpt lat="46.65731" lon="12.18478">
        <ele>2100.14</ele>
        <time>2019-02-24T09:24:54Z</time>
      </trkpt>
      <trkpt lat="46.65734" lon="12.18483">
        <ele>2101.1</ele>
        <time>2019-02-24T09:25:10Z</time>
      </trkpt>
      <trkpt lat="46.65735" lon="12.18489">
        <ele>2102.54</ele>
        <time>2019-02-24T09:25:25Z</time>
      </trkpt>
      <trkpt lat="46.65738" lon="12.18493">
        <ele>2104.46</ele>
        <time>2019-02-24T09:25:42Z</time>
      </trkpt>
      <trkpt lat="46.65744" lon="12.18495">
        <ele>2106.39</ele>
        <time>2019-02-24T09:25:57Z</time>
      </trkpt>
      <trkpt lat="46.65749" lon="12.18497">
        <ele>2106.39</ele>
        <time>2019-02-24T09:26:13Z</time>
      </trkpt>
      <trkpt lat="46.65754" lon="12.18496">
        <ele>2108.31</ele>
        <time>2019-02-24T09:26:28Z</time>
      </trkpt>
      <trkpt lat="46.65761" lon="12.18492">
        <ele>2109.75</ele>
        <time>2019-02-24T09:26:44Z</time>
      </trkpt>
      <trkpt lat="46.65767" lon="12.18496">
        <ele>2111.19</ele>
        <time>2019-02-24T09:26:59Z</time>
      </trkpt>
      <trkpt lat="46.65768" lon="12.18499">
        <ele>2113.12</ele>
        <time>2019-02-24T09:27:02Z</time>
      </trkpt>
      <trkpt lat="46.65774" lon="12.18506">
        <ele>2113.6</ele>
        <time>2019-02-24T09:27:18Z</time>
      </trkpt>
      <trkpt lat="46.65773" lon="12.18511">
        <ele>2115.04</ele>
        <time>2019-02-24T09:27:34Z</time>
      </trkpt>
      <trkpt lat="46.6577" lon="12.18514">
        <ele>2115.04</ele>
        <time>2019-02-24T09:27:47Z</time>
      </trkpt>
      <trkpt lat="46.6577" lon="12.18517">
        <ele>2116.48</ele>
        <time>2019-02-24T09:28:00Z</time>
      </trkpt>
      <trkpt lat="46.65775" lon="12.18517">
        <ele>2116.96</ele>
        <time>2019-02-24T09:28:17Z</time>
      </trkpt>
      <trkpt lat="46.65778" lon="12.18518">
        <ele>2117.44</ele>
        <time>2019-02-24T09:28:32Z</time>
      </trkpt>
      <trkpt lat="46.6578" lon="12.18523">
        <ele>2119.36</ele>
        <time>2019-02-24T09:28:49Z</time>
      </trkpt>
      <trkpt lat="46.65785" lon="12.18524">
        <ele>2121.29</ele>
        <time>2019-02-24T09:29:03Z</time>
      </trkpt>
      <trkpt lat="46.65789" lon="12.18522">
        <ele>2122.25</ele>
        <time>2019-02-24T09:29:17Z</time>
      </trkpt>
      <trkpt lat="46.6579" lon="12.18527">
        <ele>2123.21</ele>
        <time>2019-02-24T09:29:33Z</time>
      </trkpt>
      <trkpt lat="46.65794" lon="12.18525">
        <ele>2124.65</ele>
        <time>2019-02-24T09:29:47Z</time>
      </trkpt>
      <trkpt lat="46.65794" lon="12.18528">
        <ele>2126.09</ele>
        <time>2019-02-24T09:30:04Z</time>
      </trkpt>
      <trkpt lat="46.65791" lon="12.18535">
        <ele>2127.53</ele>
        <time>2019-02-24T09:30:19Z</time>
      </trkpt>
      <trkpt lat="46.65789" lon="12.18541">
        <ele>2129.46</ele>
        <time>2019-02-24T09:30:37Z</time>
      </trkpt>
      <trkpt lat="46.65787" lon="12.18549">
        <ele>2130.9</ele>
        <time>2019-02-24T09:30:52Z</time>
      </trkpt>
      <trkpt lat="46.65788" lon="12.18553">
        <ele>2132.82</ele>
        <time>2019-02-24T09:31:06Z</time>
      </trkpt>
      <trkpt lat="46.65794" lon="12.18554">
        <ele>2134.26</ele>
        <time>2019-02-24T09:31:19Z</time>
      </trkpt>
      <trkpt lat="46.65797" lon="12.18554">
        <ele>2135.23</ele>
        <time>2019-02-24T09:31:32Z</time>
      </trkpt>
      <trkpt lat="46.65796" lon="12.18557">
        <ele>2136.67</ele>
        <time>2019-02-24T09:31:44Z</time>
      </trkpt>
      <trkpt lat="46.65797" lon="12.18564">
        <ele>2139.07</ele>
        <time>2019-02-24T09:31:59Z</time>
      </trkpt>
      <trkpt lat="46.65802" lon="12.18566">
        <ele>2140.99</ele>
        <time>2019-02-24T09:32:13Z</time>
      </trkpt>
      <trkpt lat="46.65801" lon="12.18564">
        <ele>2141.95</ele>
        <time>2019-02-24T09:32:29Z</time>
      </trkpt>
      <trkpt lat="46.658" lon="12.18566">
        <ele>2142.92</ele>
        <time>2019-02-24T09:32:42Z</time>
      </trkpt>
      <trkpt lat="46.65807" lon="12.18564">
        <ele>2144.36</ele>
        <time>2019-02-24T09:32:57Z</time>
      </trkpt>
      <trkpt lat="46.65811" lon="12.18562">
        <ele>2144.84</ele>
        <time>2019-02-24T09:33:10Z</time>
      </trkpt>
      <trkpt lat="46.65816" lon="12.18562">
        <ele>2146.28</ele>
        <time>2019-02-24T09:33:23Z</time>
      </trkpt>
      <trkpt lat="46.65813" lon="12.18566">
        <ele>2146.76</ele>
        <time>2019-02-24T09:33:37Z</time>
      </trkpt>
      <trkpt lat="46.65811" lon="12.18572">
        <ele>2148.2</ele>
        <time>2019-02-24T09:33:51Z</time>
      </trkpt>
      <trkpt lat="46.65816" lon="12.1857">
        <ele>2149.65</ele>
        <time>2019-02-24T09:34:07Z</time>
      </trkpt>
      <trkpt lat="46.65821" lon="12.1857">
        <ele>2151.09</ele>
        <time>2019-02-24T09:34:19Z</time>
      </trkpt>
      <trkpt lat="46.65823" lon="12.18569">
        <ele>2152.53</ele>
        <time>2019-02-24T09:34:32Z</time>
      </trkpt>
      <trkpt lat="46.65824" lon="12.18571">
        <ele>2153.01</ele>
        <time>2019-02-24T09:34:54Z</time>
      </trkpt>
      <trkpt lat="46.65829" lon="12.18572">
        <ele>2154.45</ele>
        <time>2019-02-24T09:35:10Z</time>
      </trkpt>
      <trkpt lat="46.65834" lon="12.18567">
        <ele>2154.45</ele>
        <time>2019-02-24T09:35:25Z</time>
      </trkpt>
      <trkpt lat="46.65833" lon="12.18564">
        <ele>2154.93</ele>
        <time>2019-02-24T09:35:36Z</time>
      </trkpt>
      <trkpt lat="46.65833" lon="12.18565">
        <ele>2155.41</ele>
        <time>2019-02-24T09:35:54Z</time>
      </trkpt>
      <trkpt lat="46.65833" lon="12.18563">
        <ele>2154.93</ele>
        <time>2019-02-24T09:36:13Z</time>
      </trkpt>
      <trkpt lat="46.65833" lon="12.18566">
        <ele>2154.93</ele>
        <time>2019-02-24T09:36:35Z</time>
      </trkpt>
      <trkpt lat="46.65838" lon="12.18565">
        <ele>2156.37</ele>
        <time>2019-02-24T09:36:52Z</time>
      </trkpt>
      <trkpt lat="46.65843" lon="12.18564">
        <ele>2157.82</ele>
        <time>2019-02-24T09:37:05Z</time>
      </trkpt>
      <trkpt lat="46.65848" lon="12.1856">
        <ele>2159.26</ele>
        <time>2019-02-24T09:37:18Z</time>
      </trkpt>
      <trkpt lat="46.65844" lon="12.18561">
        <ele>2159.74</ele>
        <time>2019-02-24T09:37:34Z</time>
      </trkpt>
      <trkpt lat="46.65842" lon="12.18567">
        <ele>2160.22</ele>
        <time>2019-02-24T09:37:48Z</time>
      </trkpt>
      <trkpt lat="46.6584" lon="12.18569">
        <ele>2161.18</ele>
        <time>2019-02-24T09:38:03Z</time>
      </trkpt>
      <trkpt lat="46.6584" lon="12.18579">
        <ele>2162.62</ele>
        <time>2019-02-24T09:38:15Z</time>
      </trkpt>
      <trkpt lat="46.65844" lon="12.18576">
        <ele>2163.58</ele>
        <time>2019-02-24T09:38:29Z</time>
      </trkpt>
      <trkpt lat="46.65847" lon="12.18576">
        <ele>2165.03</ele>
        <time>2019-02-24T09:38:43Z</time>
      </trkpt>
      <trkpt lat="46.65851" lon="12.18576">
        <ele>2166.47</ele>
        <time>2019-02-24T09:38:58Z</time>
      </trkpt>
      <trkpt lat="46.65849" lon="12.18572">
        <ele>2166.47</ele>
        <time>2019-02-24T09:39:10Z</time>
      </trkpt>
      <trkpt lat="46.65852" lon="12.18567">
        <ele>2165.99</ele>
        <time>2019-02-24T09:39:25Z</time>
      </trkpt>
      <trkpt lat="46.65857" lon="12.18565">
        <ele>2167.43</ele>
        <time>2019-02-24T09:39:39Z</time>
      </trkpt>
      <trkpt lat="46.65858" lon="12.18567">
        <ele>2167.91</ele>
        <time>2019-02-24T09:39:50Z</time>
      </trkpt>
      <trkpt lat="46.65861" lon="12.18565">
        <ele>2168.87</ele>
        <time>2019-02-24T09:40:03Z</time>
      </trkpt>
      <trkpt lat="46.65862" lon="12.18566">
        <ele>2169.83</ele>
        <time>2019-02-24T09:40:19Z</time>
      </trkpt>
      <trkpt lat="46.65863" lon="12.18567">
        <ele>2171.27</ele>
        <time>2019-02-24T09:40:31Z</time>
      </trkpt>
      <trkpt lat="46.6586" lon="12.18568">
        <ele>2171.76</ele>
        <time>2019-02-24T09:40:50Z</time>
      </trkpt>
      <trkpt lat="46.65861" lon="12.1857">
        <ele>2171.76</ele>
        <time>2019-02-24T09:41:24Z</time>
      </trkpt>
      <trkpt lat="46.6586" lon="12.18571">
        <ele>2172.24</ele>
        <time>2019-02-24T09:41:46Z</time>
      </trkpt>
      <trkpt lat="46.65861" lon="12.18571">
        <ele>2172.72</ele>
        <time>2019-02-24T09:42:10Z</time>
      </trkpt>
      <trkpt lat="46.65858" lon="12.1857">
        <ele>2172.72</ele>
        <time>2019-02-24T09:42:32Z</time>
      </trkpt>
      <trkpt lat="46.6586" lon="12.18571">
        <ele>2173.2</ele>
        <time>2019-02-24T09:42:53Z</time>
      </trkpt>
      <trkpt lat="46.65862" lon="12.18574">
        <ele>2173.2</ele>
        <time>2019-02-24T09:43:14Z</time>
      </trkpt>
      <trkpt lat="46.65859" lon="12.18577">
        <ele>2173.2</ele>
        <time>2019-02-24T09:43:28Z</time>
      </trkpt>
      <trkpt lat="46.65859" lon="12.18579">
        <ele>2173.68</ele>
        <time>2019-02-24T09:43:44Z</time>
      </trkpt>
      <trkpt lat="46.65857" lon="12.18582">
        <ele>2173.68</ele>
        <time>2019-02-24T09:43:57Z</time>
      </trkpt>
      <trkpt lat="46.65856" lon="12.18582">
        <ele>2173.68</ele>
        <time>2019-02-24T09:44:18Z</time>
      </trkpt>
      <trkpt lat="46.65852" lon="12.18583">
        <ele>2173.68</ele>
        <time>2019-02-24T09:44:30Z</time>
      </trkpt>
      <trkpt lat="46.6585" lon="12.18587">
        <ele>2173.2</ele>
        <time>2019-02-24T09:44:42Z</time>
      </trkpt>
      <trkpt lat="46.65851" lon="12.18588">
        <ele>2173.68</ele>
        <time>2019-02-24T09:44:55Z</time>
      </trkpt>
      <trkpt lat="46.65853" lon="12.18592">
        <ele>2174.16</ele>
        <time>2019-02-24T09:45:11Z</time>
      </trkpt>
      <trkpt lat="46.65852" lon="12.18598">
        <ele>2174.16</ele>
        <time>2019-02-24T09:45:24Z</time>
      </trkpt>
      <trkpt lat="46.6585" lon="12.18601">
        <ele>2175.6</ele>
        <time>2019-02-24T09:45:39Z</time>
      </trkpt>
      <trkpt lat="46.65849" lon="12.18604">
        <ele>2177.04</ele>
        <time>2019-02-24T09:45:53Z</time>
      </trkpt>
      <trkpt lat="46.65855" lon="12.18603">
        <ele>2178</ele>
        <time>2019-02-24T09:46:08Z</time>
      </trkpt>
      <trkpt lat="46.65859" lon="12.18605">
        <ele>2178.48</ele>
        <time>2019-02-24T09:46:27Z</time>
      </trkpt>
      <trkpt lat="46.65862" lon="12.18606">
        <ele>2179.93</ele>
        <time>2019-02-24T09:46:41Z</time>
      </trkpt>
      <trkpt lat="46.65864" lon="12.18601">
        <ele>2180.41</ele>
        <time>2019-02-24T09:46:53Z</time>
      </trkpt>
      <trkpt lat="46.65864" lon="12.18601">
        <ele>2180.41</ele>
        <time>2019-02-24T09:47:13Z</time>
      </trkpt>
      <trkpt lat="46.65864" lon="12.18596">
        <ele>2180.89</ele>
        <time>2019-02-24T09:47:25Z</time>
      </trkpt>
      <trkpt lat="46.65867" lon="12.1859">
        <ele>2181.37</ele>
        <time>2019-02-24T09:47:39Z</time>
      </trkpt>
      <trkpt lat="46.65871" lon="12.18587">
        <ele>2181.85</ele>
        <time>2019-02-24T09:47:50Z</time>
      </trkpt>
      <trkpt lat="46.65872" lon="12.18591">
        <ele>2182.81</ele>
        <time>2019-02-24T09:48:03Z</time>
      </trkpt>
      <trkpt lat="46.6587" lon="12.18592">
        <ele>2183.29</ele>
        <time>2019-02-24T09:48:17Z</time>
      </trkpt>
      <trkpt lat="46.65873" lon="12.18596">
        <ele>2184.73</ele>
        <time>2019-02-24T09:48:30Z</time>
      </trkpt>
      <trkpt lat="46.65877" lon="12.18596">
        <ele>2186.18</ele>
        <time>2019-02-24T09:48:42Z</time>
      </trkpt>
      <trkpt lat="46.65877" lon="12.18596">
        <ele>2187.14</ele>
        <time>2019-02-24T09:48:57Z</time>
      </trkpt>
      <trkpt lat="46.65873" lon="12.18593">
        <ele>2187.62</ele>
        <time>2019-02-24T09:49:31Z</time>
      </trkpt>
      <trkpt lat="46.65873" lon="12.18595">
        <ele>2187.62</ele>
        <time>2019-02-24T09:50:00Z</time>
      </trkpt>
      <trkpt lat="46.65875" lon="12.186">
        <ele>2189.06</ele>
        <time>2019-02-24T09:50:12Z</time>
      </trkpt>
      <trkpt lat="46.65878" lon="12.18601">
        <ele>2190.02</ele>
        <time>2019-02-24T09:50:26Z</time>
      </trkpt>
      <trkpt lat="46.65881" lon="12.18598">
        <ele>2190.5</ele>
        <time>2019-02-24T09:50:44Z</time>
      </trkpt>
      <trkpt lat="46.65884" lon="12.18597">
        <ele>2190.98</ele>
        <time>2019-02-24T09:51:02Z</time>
      </trkpt>
      <trkpt lat="46.65887" lon="12.18596">
        <ele>2192.9</ele>
        <time>2019-02-24T09:51:19Z</time>
      </trkpt>
      <trkpt lat="46.65889" lon="12.18594">
        <ele>2192.42</ele>
        <time>2019-02-24T09:51:35Z</time>
      </trkpt>
      <trkpt lat="46.6589" lon="12.18595">
        <ele>2193.39</ele>
        <time>2019-02-24T09:51:52Z</time>
      </trkpt>
      <trkpt lat="46.65891" lon="12.18592">
        <ele>2193.87</ele>
        <time>2019-02-24T09:52:04Z</time>
      </trkpt>
      <trkpt lat="46.65893" lon="12.18592">
        <ele>2193.87</ele>
        <time>2019-02-24T09:52:30Z</time>
      </trkpt>
      <trkpt lat="46.65893" lon="12.18591">
        <ele>2194.35</ele>
        <time>2019-02-24T09:52:59Z</time>
      </trkpt>
      <trkpt lat="46.65898" lon="12.18589">
        <ele>2194.35</ele>
        <time>2019-02-24T09:53:13Z</time>
      </trkpt>
      <trkpt lat="46.65902" lon="12.18589">
        <ele>2195.79</ele>
        <time>2019-02-24T09:53:29Z</time>
      </trkpt>
      <trkpt lat="46.65905" lon="12.18586">
        <ele>2196.75</ele>
        <time>2019-02-24T09:53:42Z</time>
      </trkpt>
      <trkpt lat="46.65908" lon="12.18585">
        <ele>2198.19</ele>
        <time>2019-02-24T09:53:55Z</time>
      </trkpt>
      <trkpt lat="46.65909" lon="12.18583">
        <ele>2198.67</ele>
        <time>2019-02-24T09:54:09Z</time>
      </trkpt>
      <trkpt lat="46.65909" lon="12.18582">
        <ele>2198.67</ele>
        <time>2019-02-24T09:54:21Z</time>
      </trkpt>
      <trkpt lat="46.65908" lon="12.18582">
        <ele>2198.19</ele>
        <time>2019-02-24T09:54:44Z</time>
      </trkpt>
      <trkpt lat="46.65909" lon="12.1858">
        <ele>2198.67</ele>
        <time>2019-02-24T09:54:59Z</time>
      </trkpt>
      <trkpt lat="46.65909" lon="12.18583">
        <ele>2197.71</ele>
        <time>2019-02-24T09:55:15Z</time>
      </trkpt>
      <trkpt lat="46.6591" lon="12.18582">
        <ele>2198.19</ele>
        <time>2019-02-24T09:55:36Z</time>
      </trkpt>
      <trkpt lat="46.65911" lon="12.18582">
        <ele>2199.15</ele>
        <time>2019-02-24T09:55:54Z</time>
      </trkpt>
      <trkpt lat="46.65913" lon="12.18585">
        <ele>2201.08</ele>
        <time>2019-02-24T09:56:06Z</time>
      </trkpt>
      <trkpt lat="46.65915" lon="12.18581">
        <ele>2199.63</ele>
        <time>2019-02-24T09:56:25Z</time>
      </trkpt>
      <trkpt lat="46.65912" lon="12.18582">
        <ele>2199.15</ele>
        <time>2019-02-24T09:56:41Z</time>
      </trkpt>
      <trkpt lat="46.65911" lon="12.18581">
        <ele>2199.15</ele>
        <time>2019-02-24T09:57:08Z</time>
      </trkpt>
      <trkpt lat="46.65912" lon="12.18579">
        <ele>2200.11</ele>
        <time>2019-02-24T09:57:31Z</time>
      </trkpt>
      <trkpt lat="46.65915" lon="12.18576">
        <ele>2200.11</ele>
        <time>2019-02-24T09:57:48Z</time>
      </trkpt>
      <trkpt lat="46.6592" lon="12.18578">
        <ele>2200.59</ele>
        <time>2019-02-24T09:58:03Z</time>
      </trkpt>
      <trkpt lat="46.65925" lon="12.1858">
        <ele>2202.04</ele>
        <time>2019-02-24T09:58:14Z</time>
      </trkpt>
      <trkpt lat="46.65928" lon="12.1858">
        <ele>2203</ele>
        <time>2019-02-24T09:58:26Z</time>
      </trkpt>
      <trkpt lat="46.65933" lon="12.18578">
        <ele>2203</ele>
        <time>2019-02-24T09:58:40Z</time>
      </trkpt>
      <trkpt lat="46.65938" lon="12.18579">
        <ele>2205.4</ele>
        <time>2019-02-24T09:58:55Z</time>
      </trkpt>
      <trkpt lat="46.65942" lon="12.18581">
        <ele>2206.84</ele>
        <time>2019-02-24T09:59:08Z</time>
      </trkpt>
      <trkpt lat="46.65946" lon="12.18581">
        <ele>2208.29</ele>
        <time>2019-02-24T09:59:20Z</time>
      </trkpt>
      <trkpt lat="46.65951" lon="12.18579">
        <ele>2209.73</ele>
        <time>2019-02-24T09:59:34Z</time>
      </trkpt>
      <trkpt lat="46.65954" lon="12.1858">
        <ele>2210.69</ele>
        <time>2019-02-24T09:59:48Z</time>
      </trkpt>
      <trkpt lat="46.65958" lon="12.18582">
        <ele>2211.65</ele>
        <time>2019-02-24T10:00:00Z</time>
      </trkpt>
      <trkpt lat="46.65954" lon="12.18582">
        <ele>2211.17</ele>
        <time>2019-02-24T10:00:12Z</time>
      </trkpt>
      <trkpt lat="46.65954" lon="12.1858">
        <ele>2211.65</ele>
        <time>2019-02-24T10:00:39Z</time>
      </trkpt>
      <trkpt lat="46.65955" lon="12.1858">
        <ele>2210.69</ele>
        <time>2019-02-24T10:00:56Z</time>
      </trkpt>
      <trkpt lat="46.65953" lon="12.18581">
        <ele>2212.13</ele>
        <time>2019-02-24T10:01:22Z</time>
      </trkpt>
      <trkpt lat="46.65955" lon="12.18582">
        <ele>2210.69</ele>
        <time>2019-02-24T10:01:57Z</time>
      </trkpt>
      <trkpt lat="46.65954" lon="12.18584">
        <ele>2210.69</ele>
        <time>2019-02-24T10:02:27Z</time>
      </trkpt>
      <trkpt lat="46.65953" lon="12.18582">
        <ele>2211.65</ele>
        <time>2019-02-24T10:02:44Z</time>
      </trkpt>
      <trkpt lat="46.65952" lon="12.18586">
        <ele>2213.09</ele>
        <time>2019-02-24T10:03:00Z</time>
      </trkpt>
      <trkpt lat="46.65949" lon="12.18589">
        <ele>2213.57</ele>
        <time>2019-02-24T10:03:22Z</time>
      </trkpt>
      <trkpt lat="46.65951" lon="12.18596">
        <ele>2215.5</ele>
        <time>2019-02-24T10:03:37Z</time>
      </trkpt>
      <trkpt lat="46.65956" lon="12.18596">
        <ele>2216.94</ele>
        <time>2019-02-24T10:03:52Z</time>
      </trkpt>
      <trkpt lat="46.65961" lon="12.18595">
        <ele>2218.38</ele>
        <time>2019-02-24T10:04:07Z</time>
      </trkpt>
      <trkpt lat="46.65965" lon="12.18594">
        <ele>2219.82</ele>
        <time>2019-02-24T10:04:23Z</time>
      </trkpt>
      <trkpt lat="46.65963" lon="12.18601">
        <ele>2221.26</ele>
        <time>2019-02-24T10:04:36Z</time>
      </trkpt>
      <trkpt lat="46.65961" lon="12.18606">
        <ele>2222.22</ele>
        <time>2019-02-24T10:04:49Z</time>
      </trkpt>
      <trkpt lat="46.6596" lon="12.1861">
        <ele>2223.67</ele>
        <time>2019-02-24T10:05:03Z</time>
      </trkpt>
      <trkpt lat="46.6596" lon="12.18615">
        <ele>2225.11</ele>
        <time>2019-02-24T10:05:16Z</time>
      </trkpt>
      <trkpt lat="46.65966" lon="12.18613">
        <ele>2227.03</ele>
        <time>2019-02-24T10:05:29Z</time>
      </trkpt>
      <trkpt lat="46.6597" lon="12.18613">
        <ele>2228.47</ele>
        <time>2019-02-24T10:05:41Z</time>
      </trkpt>
      <trkpt lat="46.65974" lon="12.18613">
        <ele>2229.43</ele>
        <time>2019-02-24T10:05:57Z</time>
      </trkpt>
      <trkpt lat="46.65977" lon="12.18612">
        <ele>2230.4</ele>
        <time>2019-02-24T10:06:13Z</time>
      </trkpt>
      <trkpt lat="46.65981" lon="12.18613">
        <ele>2231.36</ele>
        <time>2019-02-24T10:06:28Z</time>
      </trkpt>
      <trkpt lat="46.6598" lon="12.18615">
        <ele>2231.36</ele>
        <time>2019-02-24T10:06:45Z</time>
      </trkpt>
      <trkpt lat="46.65979" lon="12.18616">
        <ele>2231.84</ele>
        <time>2019-02-24T10:07:07Z</time>
      </trkpt>
      <trkpt lat="46.6598" lon="12.18614">
        <ele>2231.84</ele>
        <time>2019-02-24T10:07:24Z</time>
      </trkpt>
      <trkpt lat="46.65979" lon="12.18615">
        <ele>2231.84</ele>
        <time>2019-02-24T10:07:40Z</time>
      </trkpt>
      <trkpt lat="46.65979" lon="12.18612">
        <ele>2232.32</ele>
        <time>2019-02-24T10:08:02Z</time>
      </trkpt>
      <trkpt lat="46.65979" lon="12.18612">
        <ele>2232.32</ele>
        <time>2019-02-24T10:08:29Z</time>
      </trkpt>
      <trkpt lat="46.65982" lon="12.18614">
        <ele>2232.8</ele>
        <time>2019-02-24T10:08:55Z</time>
      </trkpt>
      <trkpt lat="46.65982" lon="12.18613">
        <ele>2231.84</ele>
        <time>2019-02-24T10:09:06Z</time>
      </trkpt>
      <trkpt lat="46.6598" lon="12.18615">
        <ele>2232.32</ele>
        <time>2019-02-24T10:09:38Z</time>
      </trkpt>
      <trkpt lat="46.6598" lon="12.18614">
        <ele>2232.32</ele>
        <time>2019-02-24T10:10:08Z</time>
      </trkpt>
      <trkpt lat="46.6598" lon="12.18614">
        <ele>2232.32</ele>
        <time>2019-02-24T10:10:42Z</time>
      </trkpt>
      <trkpt lat="46.65979" lon="12.18614">
        <ele>2232.32</ele>
        <time>2019-02-24T10:11:21Z</time>
      </trkpt>
      <trkpt lat="46.65978" lon="12.18616">
        <ele>2233.76</ele>
        <time>2019-02-24T10:11:27Z</time>
      </trkpt>
      <trkpt lat="46.6598" lon="12.18614">
        <ele>2232.32</ele>
        <time>2019-02-24T10:12:02Z</time>
      </trkpt>
      <trkpt lat="46.6598" lon="12.18615">
        <ele>2232.32</ele>
        <time>2019-02-24T10:12:36Z</time>
      </trkpt>
      <trkpt lat="46.65977" lon="12.18613">
        <ele>2232.32</ele>
        <time>2019-02-24T10:13:13Z</time>
      </trkpt>
      <trkpt lat="46.65978" lon="12.18613">
        <ele>2232.32</ele>
        <time>2019-02-24T10:13:48Z</time>
      </trkpt>
      <trkpt lat="46.65978" lon="12.18612">
        <ele>2225.59</ele>
        <time>2019-02-24T10:13:57Z</time>
      </trkpt>
      <trkpt lat="46.65979" lon="12.18611">
        <ele>2232.8</ele>
        <time>2019-02-24T10:13:58Z</time>
      </trkpt>
      <trkpt lat="46.65978" lon="12.18613">
        <ele>2232.32</ele>
        <time>2019-02-24T10:14:41Z</time>
      </trkpt>
      <trkpt lat="46.65979" lon="12.18615">
        <ele>2233.28</ele>
        <time>2019-02-24T10:15:04Z</time>
      </trkpt>
      <trkpt lat="46.65979" lon="12.18615">
        <ele>2233.28</ele>
        <time>2019-02-24T10:15:25Z</time>
      </trkpt>
      <trkpt lat="46.65981" lon="12.18615">
        <ele>2233.76</ele>
        <time>2019-02-24T10:15:56Z</time>
      </trkpt>
      <trkpt lat="46.65987" lon="12.1861">
        <ele>2234.72</ele>
        <time>2019-02-24T10:16:11Z</time>
      </trkpt>
      <trkpt lat="46.65992" lon="12.18611">
        <ele>2235.68</ele>
        <time>2019-02-24T10:16:24Z</time>
      </trkpt>
      <trkpt lat="46.65997" lon="12.18612">
        <ele>2237.61</ele>
        <time>2019-02-24T10:16:37Z</time>
      </trkpt>
      <trkpt lat="46.66001" lon="12.18607">
        <ele>2239.05</ele>
        <time>2019-02-24T10:16:50Z</time>
      </trkpt>
      <trkpt lat="46.66005" lon="12.18604">
        <ele>2240.97</ele>
        <time>2019-02-24T10:17:05Z</time>
      </trkpt>
      <trkpt lat="46.66009" lon="12.18603">
        <ele>2242.41</ele>
        <time>2019-02-24T10:17:19Z</time>
      </trkpt>
      <trkpt lat="46.66013" lon="12.186">
        <ele>2243.37</ele>
        <time>2019-02-24T10:17:32Z</time>
      </trkpt>
      <trkpt lat="46.66018" lon="12.18598">
        <ele>2244.33</ele>
        <time>2019-02-24T10:17:46Z</time>
      </trkpt>
      <trkpt lat="46.66022" lon="12.18595">
        <ele>2246.26</ele>
        <time>2019-02-24T10:18:00Z</time>
      </trkpt>
      <trkpt lat="46.66027" lon="12.18592">
        <ele>2247.7</ele>
        <time>2019-02-24T10:18:14Z</time>
      </trkpt>
      <trkpt lat="46.66031" lon="12.18589">
        <ele>2249.14</ele>
        <time>2019-02-24T10:18:28Z</time>
      </trkpt>
      <trkpt lat="46.66033" lon="12.18584">
        <ele>2250.1</ele>
        <time>2019-02-24T10:18:43Z</time>
      </trkpt>
      <trkpt lat="46.66037" lon="12.18583">
        <ele>2252.03</ele>
        <time>2019-02-24T10:18:57Z</time>
      </trkpt>
      <trkpt lat="46.66043" lon="12.1858">
        <ele>2253.47</ele>
        <time>2019-02-24T10:19:12Z</time>
      </trkpt>
      <trkpt lat="46.66048" lon="12.18578">
        <ele>2254.91</ele>
        <time>2019-02-24T10:19:26Z</time>
      </trkpt>
      <trkpt lat="46.66052" lon="12.18573">
        <ele>2256.35</ele>
        <time>2019-02-24T10:19:40Z</time>
      </trkpt>
      <trkpt lat="46.66055" lon="12.18572">
        <ele>2257.31</ele>
        <time>2019-02-24T10:19:52Z</time>
      </trkpt>
      <trkpt lat="46.66058" lon="12.18568">
        <ele>2259.24</ele>
        <time>2019-02-24T10:20:09Z</time>
      </trkpt>
      <trkpt lat="46.66061" lon="12.18565">
        <ele>2260.68</ele>
        <time>2019-02-24T10:20:22Z</time>
      </trkpt>
      <trkpt lat="46.66063" lon="12.18565">
        <ele>2261.64</ele>
        <time>2019-02-24T10:20:36Z</time>
      </trkpt>
      <trkpt lat="46.6607" lon="12.18562">
        <ele>2263.56</ele>
        <time>2019-02-24T10:20:50Z</time>
      </trkpt>
      <trkpt lat="46.66076" lon="12.1856">
        <ele>2264.52</ele>
        <time>2019-02-24T10:21:03Z</time>
      </trkpt>
      <trkpt lat="46.66083" lon="12.18561">
        <ele>2265.96</ele>
        <time>2019-02-24T10:21:16Z</time>
      </trkpt>
      <trkpt lat="46.66088" lon="12.1856">
        <ele>2268.85</ele>
        <time>2019-02-24T10:21:32Z</time>
      </trkpt>
      <trkpt lat="46.66091" lon="12.18557">
        <ele>2268.85</ele>
        <time>2019-02-24T10:21:46Z</time>
      </trkpt>
      <trkpt lat="46.66096" lon="12.18555">
        <ele>2270.29</ele>
        <time>2019-02-24T10:21:59Z</time>
      </trkpt>
      <trkpt lat="46.661" lon="12.18552">
        <ele>2271.25</ele>
        <time>2019-02-24T10:22:11Z</time>
      </trkpt>
      <trkpt lat="46.66103" lon="12.18549">
        <ele>2272.69</ele>
        <time>2019-02-24T10:22:26Z</time>
      </trkpt>
      <trkpt lat="46.66106" lon="12.18547">
        <ele>2274.14</ele>
        <time>2019-02-24T10:22:38Z</time>
      </trkpt>
      <trkpt lat="46.66111" lon="12.18545">
        <ele>2275.58</ele>
        <time>2019-02-24T10:22:54Z</time>
      </trkpt>
      <trkpt lat="46.66115" lon="12.18542">
        <ele>2277.5</ele>
        <time>2019-02-24T10:23:09Z</time>
      </trkpt>
      <trkpt lat="46.66118" lon="12.18539">
        <ele>2278.46</ele>
        <time>2019-02-24T10:23:21Z</time>
      </trkpt>
      <trkpt lat="46.6612" lon="12.18536">
        <ele>2279.9</ele>
        <time>2019-02-24T10:23:34Z</time>
      </trkpt>
      <trkpt lat="46.66123" lon="12.18532">
        <ele>2280.87</ele>
        <time>2019-02-24T10:23:48Z</time>
      </trkpt>
      <trkpt lat="46.66125" lon="12.18527">
        <ele>2281.83</ele>
        <time>2019-02-24T10:24:01Z</time>
      </trkpt>
      <trkpt lat="46.66127" lon="12.18521">
        <ele>2283.75</ele>
        <time>2019-02-24T10:24:18Z</time>
      </trkpt>
      <trkpt lat="46.66131" lon="12.18517">
        <ele>2285.19</ele>
        <time>2019-02-24T10:24:34Z</time>
      </trkpt>
      <trkpt lat="46.66133" lon="12.18514">
        <ele>2287.11</ele>
        <time>2019-02-24T10:24:53Z</time>
      </trkpt>
      <trkpt lat="46.66139" lon="12.18512">
        <ele>2288.56</ele>
        <time>2019-02-24T10:25:08Z</time>
      </trkpt>
      <trkpt lat="46.66146" lon="12.18511">
        <ele>2290</ele>
        <time>2019-02-24T10:25:23Z</time>
      </trkpt>
      <trkpt lat="46.66151" lon="12.18508">
        <ele>2291.44</ele>
        <time>2019-02-24T10:25:37Z</time>
      </trkpt>
      <trkpt lat="46.66154" lon="12.18513">
        <ele>2292.4</ele>
        <time>2019-02-24T10:25:51Z</time>
      </trkpt>
      <trkpt lat="46.66152" lon="12.18516">
        <ele>2293.84</ele>
        <time>2019-02-24T10:26:08Z</time>
      </trkpt>
      <trkpt lat="46.66152" lon="12.18526">
        <ele>2295.28</ele>
        <time>2019-02-24T10:26:24Z</time>
      </trkpt>
      <trkpt lat="46.66151" lon="12.18528">
        <ele>2296.25</ele>
        <time>2019-02-24T10:26:41Z</time>
      </trkpt>
      <trkpt lat="46.66152" lon="12.18537">
        <ele>2297.21</ele>
        <time>2019-02-24T10:26:56Z</time>
      </trkpt>
      <trkpt lat="46.66153" lon="12.18544">
        <ele>2298.65</ele>
        <time>2019-02-24T10:27:12Z</time>
      </trkpt>
      <trkpt lat="46.66158" lon="12.18543">
        <ele>2300.57</ele>
        <time>2019-02-24T10:27:28Z</time>
      </trkpt>
      <trkpt lat="46.66163" lon="12.18543">
        <ele>2301.53</ele>
        <time>2019-02-24T10:27:43Z</time>
      </trkpt>
      <trkpt lat="46.66167" lon="12.1854">
        <ele>2303.46</ele>
        <time>2019-02-24T10:27:59Z</time>
      </trkpt>
      <trkpt lat="46.66173" lon="12.18536">
        <ele>2305.38</ele>
        <time>2019-02-24T10:28:16Z</time>
      </trkpt>
      <trkpt lat="46.66177" lon="12.18532">
        <ele>2306.82</ele>
        <time>2019-02-24T10:28:31Z</time>
      </trkpt>
      <trkpt lat="46.66182" lon="12.18527">
        <ele>2308.74</ele>
        <time>2019-02-24T10:28:46Z</time>
      </trkpt>
      <trkpt lat="46.66188" lon="12.18522">
        <ele>2310.67</ele>
        <time>2019-02-24T10:29:02Z</time>
      </trkpt>
      <trkpt lat="46.66193" lon="12.18518">
        <ele>2312.11</ele>
        <time>2019-02-24T10:29:16Z</time>
      </trkpt>
      <trkpt lat="46.66197" lon="12.18514">
        <ele>2313.55</ele>
        <time>2019-02-24T10:29:30Z</time>
      </trkpt>
      <trkpt lat="46.66201" lon="12.18513">
        <ele>2314.99</ele>
        <time>2019-02-24T10:29:43Z</time>
      </trkpt>
      <trkpt lat="46.66205" lon="12.1851">
        <ele>2316.43</ele>
        <time>2019-02-24T10:29:58Z</time>
      </trkpt>
      <trkpt lat="46.6621" lon="12.18507">
        <ele>2318.36</ele>
        <time>2019-02-24T10:30:11Z</time>
      </trkpt>
      <trkpt lat="46.66214" lon="12.18502">
        <ele>2319.32</ele>
        <time>2019-02-24T10:30:24Z</time>
      </trkpt>
      <trkpt lat="46.6622" lon="12.185">
        <ele>2320.28</ele>
        <time>2019-02-24T10:30:39Z</time>
      </trkpt>
      <trkpt lat="46.66224" lon="12.18498">
        <ele>2321.72</ele>
        <time>2019-02-24T10:30:52Z</time>
      </trkpt>
      <trkpt lat="46.66228" lon="12.18495">
        <ele>2323.64</ele>
        <time>2019-02-24T10:31:07Z</time>
      </trkpt>
      <trkpt lat="46.66228" lon="12.18492">
        <ele>2324.61</ele>
        <time>2019-02-24T10:31:20Z</time>
      </trkpt>
      <trkpt lat="46.66232" lon="12.18491">
        <ele>2326.05</ele>
        <time>2019-02-24T10:31:44Z</time>
      </trkpt>
      <trkpt lat="46.66233" lon="12.18496">
        <ele>2327.49</ele>
        <time>2019-02-24T10:31:58Z</time>
      </trkpt>
      <trkpt lat="46.66236" lon="12.18501">
        <ele>2328.45</ele>
        <time>2019-02-24T10:32:13Z</time>
      </trkpt>
      <trkpt lat="46.66239" lon="12.18507">
        <ele>2329.41</ele>
        <time>2019-02-24T10:32:28Z</time>
      </trkpt>
      <trkpt lat="46.66241" lon="12.1851">
        <ele>2330.37</ele>
        <time>2019-02-24T10:32:48Z</time>
      </trkpt>
      <trkpt lat="46.66244" lon="12.18516">
        <ele>2332.3</ele>
        <time>2019-02-24T10:33:03Z</time>
      </trkpt>
      <trkpt lat="46.66246" lon="12.18523">
        <ele>2333.74</ele>
        <time>2019-02-24T10:33:19Z</time>
      </trkpt>
      <trkpt lat="46.66248" lon="12.1852">
        <ele>2335.66</ele>
        <time>2019-02-24T10:33:33Z</time>
      </trkpt>
      <trkpt lat="46.66251" lon="12.18513">
        <ele>2337.58</ele>
        <time>2019-02-24T10:33:49Z</time>
      </trkpt>
      <trkpt lat="46.66254" lon="12.18508">
        <ele>2339.02</ele>
        <time>2019-02-24T10:34:05Z</time>
      </trkpt>
      <trkpt lat="46.66257" lon="12.18501">
        <ele>2340.95</ele>
        <time>2019-02-24T10:34:20Z</time>
      </trkpt>
      <trkpt lat="46.6626" lon="12.18495">
        <ele>2342.39</ele>
        <time>2019-02-24T10:34:34Z</time>
      </trkpt>
      <trkpt lat="46.66265" lon="12.18489">
        <ele>2343.83</ele>
        <time>2019-02-24T10:34:48Z</time>
      </trkpt>
      <trkpt lat="46.6627" lon="12.18487">
        <ele>2345.75</ele>
        <time>2019-02-24T10:35:03Z</time>
      </trkpt>
      <trkpt lat="46.66273" lon="12.18483">
        <ele>2347.2</ele>
        <time>2019-02-24T10:35:16Z</time>
      </trkpt>
      <trkpt lat="46.66278" lon="12.18479">
        <ele>2349.12</ele>
        <time>2019-02-24T10:35:31Z</time>
      </trkpt>
      <trkpt lat="46.66283" lon="12.18476">
        <ele>2350.56</ele>
        <time>2019-02-24T10:35:44Z</time>
      </trkpt>
      <trkpt lat="46.66289" lon="12.18471">
        <ele>2352</ele>
        <time>2019-02-24T10:36:00Z</time>
      </trkpt>
      <trkpt lat="46.66293" lon="12.18466">
        <ele>2353.93</ele>
        <time>2019-02-24T10:36:18Z</time>
      </trkpt>
      <trkpt lat="46.66301" lon="12.18465">
        <ele>2354.89</ele>
        <time>2019-02-24T10:36:33Z</time>
      </trkpt>
      <trkpt lat="46.66301" lon="12.1847">
        <ele>2356.33</ele>
        <time>2019-02-24T10:36:45Z</time>
      </trkpt>
      <trkpt lat="46.66303" lon="12.18476">
        <ele>2357.29</ele>
        <time>2019-02-24T10:36:59Z</time>
      </trkpt>
      <trkpt lat="46.66302" lon="12.18484">
        <ele>2358.73</ele>
        <time>2019-02-24T10:37:15Z</time>
      </trkpt>
      <trkpt lat="46.66303" lon="12.18488">
        <ele>2360.17</ele>
        <time>2019-02-24T10:37:32Z</time>
      </trkpt>
      <trkpt lat="46.66304" lon="12.18494">
        <ele>2361.62</ele>
        <time>2019-02-24T10:37:45Z</time>
      </trkpt>
      <trkpt lat="46.66304" lon="12.18501">
        <ele>2363.06</ele>
        <time>2019-02-24T10:37:59Z</time>
      </trkpt>
      <trkpt lat="46.66305" lon="12.18508">
        <ele>2364.5</ele>
        <time>2019-02-24T10:38:14Z</time>
      </trkpt>
      <trkpt lat="46.66307" lon="12.18514">
        <ele>2366.42</ele>
        <time>2019-02-24T10:38:29Z</time>
      </trkpt>
      <trkpt lat="46.6631" lon="12.18521">
        <ele>2367.86</ele>
        <time>2019-02-24T10:38:44Z</time>
      </trkpt>
      <trkpt lat="46.66313" lon="12.18526">
        <ele>2369.79</ele>
        <time>2019-02-24T10:38:59Z</time>
      </trkpt>
      <trkpt lat="46.66318" lon="12.18526">
        <ele>2371.71</ele>
        <time>2019-02-24T10:39:15Z</time>
      </trkpt>
      <trkpt lat="46.66317" lon="12.18526">
        <ele>2369.79</ele>
        <time>2019-02-24T10:39:18Z</time>
      </trkpt>
      <trkpt lat="46.66317" lon="12.18528">
        <ele>2369.79</ele>
        <time>2019-02-24T10:39:58Z</time>
      </trkpt>
      <trkpt lat="46.66317" lon="12.18528">
        <ele>2369.79</ele>
        <time>2019-02-24T10:40:44Z</time>
      </trkpt>
      <trkpt lat="46.66316" lon="12.1853">
        <ele>2370.75</ele>
        <time>2019-02-24T10:41:04Z</time>
      </trkpt>
      <trkpt lat="46.66317" lon="12.18532">
        <ele>2370.75</ele>
        <time>2019-02-24T10:41:22Z</time>
      </trkpt>
      <trkpt lat="46.66323" lon="12.18535">
        <ele>2372.67</ele>
        <time>2019-02-24T10:41:42Z</time>
      </trkpt>
      <trkpt lat="46.66326" lon="12.18541">
        <ele>2374.59</ele>
        <time>2019-02-24T10:42:02Z</time>
      </trkpt>
      <trkpt lat="46.6633" lon="12.18546">
        <ele>2376.52</ele>
        <time>2019-02-24T10:42:21Z</time>
      </trkpt>
      <trkpt lat="46.6633" lon="12.18551">
        <ele>2377.48</ele>
        <time>2019-02-24T10:42:38Z</time>
      </trkpt>
      <trkpt lat="46.66332" lon="12.18554">
        <ele>2377.96</ele>
        <time>2019-02-24T10:42:54Z</time>
      </trkpt>
      <trkpt lat="46.66334" lon="12.1856">
        <ele>2378.92</ele>
        <time>2019-02-24T10:43:12Z</time>
      </trkpt>
      <trkpt lat="46.66335" lon="12.18566">
        <ele>2380.36</ele>
        <time>2019-02-24T10:43:23Z</time>
      </trkpt>
      <trkpt lat="46.66334" lon="12.18571">
        <ele>2381.8</ele>
        <time>2019-02-24T10:43:37Z</time>
      </trkpt>
      <trkpt lat="46.66335" lon="12.18577">
        <ele>2382.76</ele>
        <time>2019-02-24T10:43:49Z</time>
      </trkpt>
      <trkpt lat="46.66336" lon="12.18585">
        <ele>2383.73</ele>
        <time>2019-02-24T10:44:03Z</time>
      </trkpt>
      <trkpt lat="46.66336" lon="12.1859">
        <ele>2385.65</ele>
        <time>2019-02-24T10:44:17Z</time>
      </trkpt>
      <trkpt lat="46.66336" lon="12.18596">
        <ele>2387.57</ele>
        <time>2019-02-24T10:44:31Z</time>
      </trkpt>
      <trkpt lat="46.66336" lon="12.18601">
        <ele>2388.53</ele>
        <time>2019-02-24T10:44:44Z</time>
      </trkpt>
      <trkpt lat="46.66335" lon="12.18607">
        <ele>2389.97</ele>
        <time>2019-02-24T10:44:59Z</time>
      </trkpt>
      <trkpt lat="46.66334" lon="12.18614">
        <ele>2391.9</ele>
        <time>2019-02-24T10:45:15Z</time>
      </trkpt>
      <trkpt lat="46.66336" lon="12.18616">
        <ele>2392.86</ele>
        <time>2019-02-24T10:45:28Z</time>
      </trkpt>
      <trkpt lat="46.6634" lon="12.18615">
        <ele>2394.78</ele>
        <time>2019-02-24T10:45:46Z</time>
      </trkpt>
      <trkpt lat="46.66342" lon="12.18621">
        <ele>2395.74</ele>
        <time>2019-02-24T10:45:59Z</time>
      </trkpt>
      <trkpt lat="46.66342" lon="12.18627">
        <ele>2397.18</ele>
        <time>2019-02-24T10:46:12Z</time>
      </trkpt>
      <trkpt lat="46.66342" lon="12.18633">
        <ele>2398.15</ele>
        <time>2019-02-24T10:46:25Z</time>
      </trkpt>
      <trkpt lat="46.66345" lon="12.18635">
        <ele>2399.59</ele>
        <time>2019-02-24T10:46:39Z</time>
      </trkpt>
      <trkpt lat="46.66349" lon="12.1863">
        <ele>2401.03</ele>
        <time>2019-02-24T10:46:52Z</time>
      </trkpt>
      <trkpt lat="46.66353" lon="12.18628">
        <ele>2402.47</ele>
        <time>2019-02-24T10:47:07Z</time>
      </trkpt>
      <trkpt lat="46.66355" lon="12.18634">
        <ele>2404.39</ele>
        <time>2019-02-24T10:47:22Z</time>
      </trkpt>
      <trkpt lat="46.66357" lon="12.18641">
        <ele>2405.36</ele>
        <time>2019-02-24T10:47:36Z</time>
      </trkpt>
      <trkpt lat="46.66359" lon="12.18648">
        <ele>2407.28</ele>
        <time>2019-02-24T10:47:52Z</time>
      </trkpt>
      <trkpt lat="46.66361" lon="12.18655">
        <ele>2408.24</ele>
        <time>2019-02-24T10:48:07Z</time>
      </trkpt>
      <trkpt lat="46.66362" lon="12.18662">
        <ele>2409.68</ele>
        <time>2019-02-24T10:48:22Z</time>
      </trkpt>
      <trkpt lat="46.66363" lon="12.18668">
        <ele>2411.6</ele>
        <time>2019-02-24T10:48:35Z</time>
      </trkpt>
      <trkpt lat="46.66364" lon="12.18674">
        <ele>2412.57</ele>
        <time>2019-02-24T10:48:48Z</time>
      </trkpt>
      <trkpt lat="46.66363" lon="12.1868">
        <ele>2414.01</ele>
        <time>2019-02-24T10:49:01Z</time>
      </trkpt>
      <trkpt lat="46.66366" lon="12.18678">
        <ele>2415.45</ele>
        <time>2019-02-24T10:49:13Z</time>
      </trkpt>
      <trkpt lat="46.66369" lon="12.18674">
        <ele>2416.89</ele>
        <time>2019-02-24T10:49:28Z</time>
      </trkpt>
      <trkpt lat="46.66372" lon="12.18669">
        <ele>2418.33</ele>
        <time>2019-02-24T10:49:42Z</time>
      </trkpt>
      <trkpt lat="46.66375" lon="12.18664">
        <ele>2420.26</ele>
        <time>2019-02-24T10:49:57Z</time>
      </trkpt>
      <trkpt lat="46.66377" lon="12.18659">
        <ele>2421.7</ele>
        <time>2019-02-24T10:50:11Z</time>
      </trkpt>
      <trkpt lat="46.66377" lon="12.18666">
        <ele>2422.66</ele>
        <time>2019-02-24T10:50:25Z</time>
      </trkpt>
      <trkpt lat="46.66379" lon="12.18671">
        <ele>2423.62</ele>
        <time>2019-02-24T10:50:38Z</time>
      </trkpt>
      <trkpt lat="46.6638" lon="12.18678">
        <ele>2424.58</ele>
        <time>2019-02-24T10:50:52Z</time>
      </trkpt>
      <trkpt lat="46.66379" lon="12.18685">
        <ele>2426.02</ele>
        <time>2019-02-24T10:51:07Z</time>
      </trkpt>
      <trkpt lat="46.66379" lon="12.18688">
        <ele>2426.5</ele>
        <time>2019-02-24T10:51:21Z</time>
      </trkpt>
      <trkpt lat="46.66382" lon="12.18682">
        <ele>2427.47</ele>
        <time>2019-02-24T10:51:34Z</time>
      </trkpt>
      <trkpt lat="46.66385" lon="12.18679">
        <ele>2428.43</ele>
        <time>2019-02-24T10:51:47Z</time>
      </trkpt>
      <trkpt lat="46.66388" lon="12.18674">
        <ele>2429.39</ele>
        <time>2019-02-24T10:52:01Z</time>
      </trkpt>
      <trkpt lat="46.66391" lon="12.18667">
        <ele>2430.83</ele>
        <time>2019-02-24T10:52:16Z</time>
      </trkpt>
      <trkpt lat="46.66395" lon="12.1866">
        <ele>2432.27</ele>
        <time>2019-02-24T10:52:31Z</time>
      </trkpt>
      <trkpt lat="46.66397" lon="12.18654">
        <ele>2433.71</ele>
        <time>2019-02-24T10:52:46Z</time>
      </trkpt>
      <trkpt lat="46.664" lon="12.18647">
        <ele>2435.64</ele>
        <time>2019-02-24T10:53:01Z</time>
      </trkpt>
      <trkpt lat="46.66404" lon="12.18642">
        <ele>2437.08</ele>
        <time>2019-02-24T10:53:15Z</time>
      </trkpt>
      <trkpt lat="46.66408" lon="12.18637">
        <ele>2438.52</ele>
        <time>2019-02-24T10:53:31Z</time>
      </trkpt>
      <trkpt lat="46.66412" lon="12.18632">
        <ele>2440.44</ele>
        <time>2019-02-24T10:53:48Z</time>
      </trkpt>
      <trkpt lat="46.66418" lon="12.18627">
        <ele>2442.37</ele>
        <time>2019-02-24T10:54:05Z</time>
      </trkpt>
      <trkpt lat="46.66421" lon="12.18624">
        <ele>2443.81</ele>
        <time>2019-02-24T10:54:20Z</time>
      </trkpt>
      <trkpt lat="46.66424" lon="12.18622">
        <ele>2445.25</ele>
        <time>2019-02-24T10:54:33Z</time>
      </trkpt>
      <trkpt lat="46.66428" lon="12.18618">
        <ele>2446.69</ele>
        <time>2019-02-24T10:54:48Z</time>
      </trkpt>
      <trkpt lat="46.66433" lon="12.18616">
        <ele>2448.62</ele>
        <time>2019-02-24T10:55:02Z</time>
      </trkpt>
      <trkpt lat="46.66436" lon="12.18613">
        <ele>2450.06</ele>
        <time>2019-02-24T10:55:17Z</time>
      </trkpt>
      <trkpt lat="46.66441" lon="12.18611">
        <ele>2451.5</ele>
        <time>2019-02-24T10:55:32Z</time>
      </trkpt>
      <trkpt lat="46.66445" lon="12.18607">
        <ele>2453.42</ele>
        <time>2019-02-24T10:55:46Z</time>
      </trkpt>
      <trkpt lat="46.6645" lon="12.18604">
        <ele>2454.86</ele>
        <time>2019-02-24T10:56:02Z</time>
      </trkpt>
      <trkpt lat="46.66455" lon="12.18601">
        <ele>2456.79</ele>
        <time>2019-02-24T10:56:18Z</time>
      </trkpt>
      <trkpt lat="46.6646" lon="12.18599">
        <ele>2458.71</ele>
        <time>2019-02-24T10:56:33Z</time>
      </trkpt>
      <trkpt lat="46.66464" lon="12.18599">
        <ele>2460.15</ele>
        <time>2019-02-24T10:56:47Z</time>
      </trkpt>
      <trkpt lat="46.66467" lon="12.18597">
        <ele>2461.59</ele>
        <time>2019-02-24T10:57:01Z</time>
      </trkpt>
      <trkpt lat="46.66471" lon="12.18596">
        <ele>2463.04</ele>
        <time>2019-02-24T10:57:15Z</time>
      </trkpt>
      <trkpt lat="46.66472" lon="12.18601">
        <ele>2464.48</ele>
        <time>2019-02-24T10:57:29Z</time>
      </trkpt>
      <trkpt lat="46.66472" lon="12.18605">
        <ele>2465.44</ele>
        <time>2019-02-24T10:57:46Z</time>
      </trkpt>
      <trkpt lat="46.66471" lon="12.18612">
        <ele>2466.88</ele>
        <time>2019-02-24T10:57:59Z</time>
      </trkpt>
      <trkpt lat="46.66471" lon="12.18618">
        <ele>2467.84</ele>
        <time>2019-02-24T10:58:12Z</time>
      </trkpt>
      <trkpt lat="46.6647" lon="12.18623">
        <ele>2469.28</ele>
        <time>2019-02-24T10:58:26Z</time>
      </trkpt>
      <trkpt lat="46.66469" lon="12.18628">
        <ele>2470.73</ele>
        <time>2019-02-24T10:58:38Z</time>
      </trkpt>
      <trkpt lat="46.66471" lon="12.1863">
        <ele>2471.69</ele>
        <time>2019-02-24T10:58:52Z</time>
      </trkpt>
      <trkpt lat="46.66475" lon="12.18628">
        <ele>2473.13</ele>
        <time>2019-02-24T10:59:05Z</time>
      </trkpt>
      <trkpt lat="46.66479" lon="12.18627">
        <ele>2474.57</ele>
        <time>2019-02-24T10:59:20Z</time>
      </trkpt>
      <trkpt lat="46.66482" lon="12.18626">
        <ele>2476.49</ele>
        <time>2019-02-24T10:59:33Z</time>
      </trkpt>
      <trkpt lat="46.66485" lon="12.1863">
        <ele>2477.45</ele>
        <time>2019-02-24T10:59:48Z</time>
      </trkpt>
      <trkpt lat="46.66483" lon="12.18634">
        <ele>2478.9</ele>
        <time>2019-02-24T11:00:02Z</time>
      </trkpt>
      <trkpt lat="46.6648" lon="12.1864">
        <ele>2479.86</ele>
        <time>2019-02-24T11:00:16Z</time>
      </trkpt>
      <trkpt lat="46.66478" lon="12.18648">
        <ele>2481.3</ele>
        <time>2019-02-24T11:00:31Z</time>
      </trkpt>
      <trkpt lat="46.66476" lon="12.18655">
        <ele>2482.26</ele>
        <time>2019-02-24T11:00:46Z</time>
      </trkpt>
      <trkpt lat="46.66475" lon="12.18661">
        <ele>2483.7</ele>
        <time>2019-02-24T11:01:00Z</time>
      </trkpt>
      <trkpt lat="46.66473" lon="12.18669">
        <ele>2484.66</ele>
        <time>2019-02-24T11:01:14Z</time>
      </trkpt>
      <trkpt lat="46.66472" lon="12.18675">
        <ele>2486.11</ele>
        <time>2019-02-24T11:01:28Z</time>
      </trkpt>
      <trkpt lat="46.66473" lon="12.18681">
        <ele>2488.03</ele>
        <time>2019-02-24T11:01:45Z</time>
      </trkpt>
      <trkpt lat="46.66474" lon="12.18691">
        <ele>2489.95</ele>
        <time>2019-02-24T11:02:01Z</time>
      </trkpt>
      <trkpt lat="46.66474" lon="12.18699">
        <ele>2490.43</ele>
        <time>2019-02-24T11:02:15Z</time>
      </trkpt>
      <trkpt lat="46.66474" lon="12.18706">
        <ele>2491.87</ele>
        <time>2019-02-24T11:02:29Z</time>
      </trkpt>
      <trkpt lat="46.66474" lon="12.18711">
        <ele>2493.32</ele>
        <time>2019-02-24T11:02:41Z</time>
      </trkpt>
      <trkpt lat="46.66475" lon="12.18719">
        <ele>2494.76</ele>
        <time>2019-02-24T11:02:56Z</time>
      </trkpt>
      <trkpt lat="46.66477" lon="12.18723">
        <ele>2495.72</ele>
        <time>2019-02-24T11:03:08Z</time>
      </trkpt>
      <trkpt lat="46.66478" lon="12.18728">
        <ele>2497.16</ele>
        <time>2019-02-24T11:03:22Z</time>
      </trkpt>
      <trkpt lat="46.6648" lon="12.18731">
        <ele>2498.6</ele>
        <time>2019-02-24T11:03:38Z</time>
      </trkpt>
      <trkpt lat="46.66484" lon="12.18725">
        <ele>2500.05</ele>
        <time>2019-02-24T11:03:53Z</time>
      </trkpt>
      <trkpt lat="46.66487" lon="12.18721">
        <ele>2501.49</ele>
        <time>2019-02-24T11:04:09Z</time>
      </trkpt>
      <trkpt lat="46.6649" lon="12.18718">
        <ele>2503.41</ele>
        <time>2019-02-24T11:04:24Z</time>
      </trkpt>
      <trkpt lat="46.66494" lon="12.18717">
        <ele>2504.37</ele>
        <time>2019-02-24T11:04:36Z</time>
      </trkpt>
      <trkpt lat="46.66495" lon="12.18722">
        <ele>2505.81</ele>
        <time>2019-02-24T11:04:52Z</time>
      </trkpt>
      <trkpt lat="46.66496" lon="12.18731">
        <ele>2507.74</ele>
        <time>2019-02-24T11:05:08Z</time>
      </trkpt>
      <trkpt lat="46.66495" lon="12.18737">
        <ele>2509.18</ele>
        <time>2019-02-24T11:05:22Z</time>
      </trkpt>
      <trkpt lat="46.66497" lon="12.18745">
        <ele>2511.1</ele>
        <time>2019-02-24T11:05:38Z</time>
      </trkpt>
      <trkpt lat="46.66497" lon="12.18751">
        <ele>2512.54</ele>
        <time>2019-02-24T11:05:53Z</time>
      </trkpt>
      <trkpt lat="46.66498" lon="12.18758">
        <ele>2513.98</ele>
        <time>2019-02-24T11:06:07Z</time>
      </trkpt>
      <trkpt lat="46.665" lon="12.18765">
        <ele>2515.43</ele>
        <time>2019-02-24T11:06:22Z</time>
      </trkpt>
      <trkpt lat="46.66501" lon="12.1877">
        <ele>2516.87</ele>
        <time>2019-02-24T11:06:35Z</time>
      </trkpt>
      <trkpt lat="46.66503" lon="12.18777">
        <ele>2518.79</ele>
        <time>2019-02-24T11:06:50Z</time>
      </trkpt>
      <trkpt lat="46.66504" lon="12.18785">
        <ele>2520.23</ele>
        <time>2019-02-24T11:07:06Z</time>
      </trkpt>
      <trkpt lat="46.66506" lon="12.18789">
        <ele>2521.68</ele>
        <time>2019-02-24T11:07:20Z</time>
      </trkpt>
      <trkpt lat="46.66507" lon="12.18795">
        <ele>2522.64</ele>
        <time>2019-02-24T11:07:33Z</time>
      </trkpt>
      <trkpt lat="46.66509" lon="12.18803">
        <ele>2524.08</ele>
        <time>2019-02-24T11:07:48Z</time>
      </trkpt>
      <trkpt lat="46.66512" lon="12.1881">
        <ele>2525.04</ele>
        <time>2019-02-24T11:08:03Z</time>
      </trkpt>
      <trkpt lat="46.66515" lon="12.18813">
        <ele>2526.48</ele>
        <time>2019-02-24T11:08:18Z</time>
      </trkpt>
      <trkpt lat="46.66518" lon="12.18814">
        <ele>2527.44</ele>
        <time>2019-02-24T11:08:31Z</time>
      </trkpt>
      <trkpt lat="46.66519" lon="12.18807">
        <ele>2527.92</ele>
        <time>2019-02-24T11:08:46Z</time>
      </trkpt>
      <trkpt lat="46.66521" lon="12.188">
        <ele>2529.37</ele>
        <time>2019-02-24T11:08:59Z</time>
      </trkpt>
      <trkpt lat="46.66522" lon="12.18792">
        <ele>2530.81</ele>
        <time>2019-02-24T11:09:14Z</time>
      </trkpt>
      <trkpt lat="46.66523" lon="12.18786">
        <ele>2532.25</ele>
        <time>2019-02-24T11:09:29Z</time>
      </trkpt>
      <trkpt lat="46.66523" lon="12.18781">
        <ele>2533.21</ele>
        <time>2019-02-24T11:09:45Z</time>
      </trkpt>
      <trkpt lat="46.66526" lon="12.18778">
        <ele>2533.69</ele>
        <time>2019-02-24T11:10:04Z</time>
      </trkpt>
      <trkpt lat="46.66528" lon="12.18773">
        <ele>2534.65</ele>
        <time>2019-02-24T11:10:17Z</time>
      </trkpt>
      <trkpt lat="46.66531" lon="12.18767">
        <ele>2536.1</ele>
        <time>2019-02-24T11:10:29Z</time>
      </trkpt>
      <trkpt lat="46.66534" lon="12.18763">
        <ele>2537.06</ele>
        <time>2019-02-24T11:10:43Z</time>
      </trkpt>
      <trkpt lat="46.66538" lon="12.18758">
        <ele>2538.5</ele>
        <time>2019-02-24T11:11:00Z</time>
      </trkpt>
      <trkpt lat="46.66545" lon="12.18753">
        <ele>2539.94</ele>
        <time>2019-02-24T11:11:18Z</time>
      </trkpt>
      <trkpt lat="46.66551" lon="12.18748">
        <ele>2541.38</ele>
        <time>2019-02-24T11:11:33Z</time>
      </trkpt>
      <trkpt lat="46.66556" lon="12.18742">
        <ele>2542.82</ele>
        <time>2019-02-24T11:11:50Z</time>
      </trkpt>
      <trkpt lat="46.66561" lon="12.18739">
        <ele>2544.27</ele>
        <time>2019-02-24T11:12:04Z</time>
      </trkpt>
      <trkpt lat="46.66561" lon="12.18738">
        <ele>2544.27</ele>
        <time>2019-02-24T11:12:22Z</time>
      </trkpt>
      <trkpt lat="46.66559" lon="12.18737">
        <ele>2544.27</ele>
        <time>2019-02-24T11:12:46Z</time>
      </trkpt>
      <trkpt lat="46.66563" lon="12.18738">
        <ele>2545.23</ele>
        <time>2019-02-24T11:12:57Z</time>
      </trkpt>
      <trkpt lat="46.66563" lon="12.18747">
        <ele>2546.67</ele>
        <time>2019-02-24T11:13:11Z</time>
      </trkpt>
      <trkpt lat="46.66561" lon="12.18755">
        <ele>2548.11</ele>
        <time>2019-02-24T11:13:25Z</time>
      </trkpt>
      <trkpt lat="46.66562" lon="12.18759">
        <ele>2548.59</ele>
        <time>2019-02-24T11:13:42Z</time>
      </trkpt>
      <trkpt lat="46.66559" lon="12.18767">
        <ele>2550.03</ele>
        <time>2019-02-24T11:13:57Z</time>
      </trkpt>
      <trkpt lat="46.66558" lon="12.18772">
        <ele>2551.48</ele>
        <time>2019-02-24T11:14:10Z</time>
      </trkpt>
      <trkpt lat="46.66557" lon="12.1878">
        <ele>2552.44</ele>
        <time>2019-02-24T11:14:24Z</time>
      </trkpt>
      <trkpt lat="46.66558" lon="12.18787">
        <ele>2553.88</ele>
        <time>2019-02-24T11:14:38Z</time>
      </trkpt>
      <trkpt lat="46.66559" lon="12.18795">
        <ele>2555.32</ele>
        <time>2019-02-24T11:14:53Z</time>
      </trkpt>
      <trkpt lat="46.66561" lon="12.18803">
        <ele>2556.76</ele>
        <time>2019-02-24T11:15:07Z</time>
      </trkpt>
      <trkpt lat="46.66563" lon="12.18807">
        <ele>2558.21</ele>
        <time>2019-02-24T11:15:21Z</time>
      </trkpt>
      <trkpt lat="46.66566" lon="12.1881">
        <ele>2559.17</ele>
        <time>2019-02-24T11:15:34Z</time>
      </trkpt>
      <trkpt lat="46.6657" lon="12.18813">
        <ele>2560.61</ele>
        <time>2019-02-24T11:15:50Z</time>
      </trkpt>
      <trkpt lat="46.66575" lon="12.18812">
        <ele>2562.53</ele>
        <time>2019-02-24T11:16:06Z</time>
      </trkpt>
      <trkpt lat="46.66577" lon="12.18805">
        <ele>2563.97</ele>
        <time>2019-02-24T11:16:20Z</time>
      </trkpt>
      <trkpt lat="46.66579" lon="12.18801">
        <ele>2565.42</ele>
        <time>2019-02-24T11:16:35Z</time>
      </trkpt>
      <trkpt lat="46.66584" lon="12.18798">
        <ele>2567.34</ele>
        <time>2019-02-24T11:16:49Z</time>
      </trkpt>
      <trkpt lat="46.66589" lon="12.18796">
        <ele>2568.78</ele>
        <time>2019-02-24T11:17:03Z</time>
      </trkpt>
      <trkpt lat="46.66594" lon="12.18791">
        <ele>2570.22</ele>
        <time>2019-02-24T11:17:19Z</time>
      </trkpt>
      <trkpt lat="46.666" lon="12.18788">
        <ele>2571.66</ele>
        <time>2019-02-24T11:17:35Z</time>
      </trkpt>
      <trkpt lat="46.66604" lon="12.18782">
        <ele>2573.11</ele>
        <time>2019-02-24T11:17:49Z</time>
      </trkpt>
      <trkpt lat="46.66607" lon="12.18776">
        <ele>2574.55</ele>
        <time>2019-02-24T11:18:03Z</time>
      </trkpt>
      <trkpt lat="46.6661" lon="12.1877">
        <ele>2575.99</ele>
        <time>2019-02-24T11:18:18Z</time>
      </trkpt>
      <trkpt lat="46.66612" lon="12.18764">
        <ele>2577.43</ele>
        <time>2019-02-24T11:18:33Z</time>
      </trkpt>
      <trkpt lat="46.66617" lon="12.18757">
        <ele>2579.35</ele>
        <time>2019-02-24T11:18:48Z</time>
      </trkpt>
      <trkpt lat="46.6662" lon="12.18752">
        <ele>2580.8</ele>
        <time>2019-02-24T11:19:03Z</time>
      </trkpt>
      <trkpt lat="46.66623" lon="12.18748">
        <ele>2582.24</ele>
        <time>2019-02-24T11:19:17Z</time>
      </trkpt>
      <trkpt lat="46.66627" lon="12.18744">
        <ele>2583.68</ele>
        <time>2019-02-24T11:19:31Z</time>
      </trkpt>
      <trkpt lat="46.66632" lon="12.18741">
        <ele>2585.12</ele>
        <time>2019-02-24T11:19:45Z</time>
      </trkpt>
      <trkpt lat="46.66634" lon="12.18738">
        <ele>2586.08</ele>
        <time>2019-02-24T11:20:00Z</time>
      </trkpt>
      <trkpt lat="46.66638" lon="12.18732">
        <ele>2587.53</ele>
        <time>2019-02-24T11:20:15Z</time>
      </trkpt>
      <trkpt lat="46.6664" lon="12.18729">
        <ele>2588.97</ele>
        <time>2019-02-24T11:20:30Z</time>
      </trkpt>
      <trkpt lat="46.66643" lon="12.18729">
        <ele>2589.93</ele>
        <time>2019-02-24T11:20:42Z</time>
      </trkpt>
      <trkpt lat="46.6664" lon="12.18736">
        <ele>2590.41</ele>
        <time>2019-02-24T11:21:03Z</time>
      </trkpt>
      <trkpt lat="46.66642" lon="12.18745">
        <ele>2591.85</ele>
        <time>2019-02-24T11:21:21Z</time>
      </trkpt>
      <trkpt lat="46.66642" lon="12.18753">
        <ele>2593.29</ele>
        <time>2019-02-24T11:21:34Z</time>
      </trkpt>
      <trkpt lat="46.66643" lon="12.1876">
        <ele>2594.25</ele>
        <time>2019-02-24T11:21:47Z</time>
      </trkpt>
      <trkpt lat="46.66645" lon="12.18767">
        <ele>2596.18</ele>
        <time>2019-02-24T11:22:03Z</time>
      </trkpt>
      <trkpt lat="46.66645" lon="12.18775">
        <ele>2597.62</ele>
        <time>2019-02-24T11:22:20Z</time>
      </trkpt>
      <trkpt lat="46.66646" lon="12.1878">
        <ele>2600.5</ele>
        <time>2019-02-24T11:22:34Z</time>
      </trkpt>
      <trkpt lat="46.66651" lon="12.18788">
        <ele>2600.02</ele>
        <time>2019-02-24T11:22:55Z</time>
      </trkpt>
      <trkpt lat="46.66652" lon="12.18794">
        <ele>2601.95</ele>
        <time>2019-02-24T11:23:11Z</time>
      </trkpt>
      <trkpt lat="46.66654" lon="12.18796">
        <ele>2602.91</ele>
        <time>2019-02-24T11:23:26Z</time>
      </trkpt>
      <trkpt lat="46.66657" lon="12.1879">
        <ele>2604.83</ele>
        <time>2019-02-24T11:23:42Z</time>
      </trkpt>
      <trkpt lat="46.6666" lon="12.18785">
        <ele>2605.79</ele>
        <time>2019-02-24T11:23:56Z</time>
      </trkpt>
      <trkpt lat="46.66663" lon="12.18779">
        <ele>2607.23</ele>
        <time>2019-02-24T11:24:10Z</time>
      </trkpt>
      <trkpt lat="46.66666" lon="12.18775">
        <ele>2608.67</ele>
        <time>2019-02-24T11:24:22Z</time>
      </trkpt>
      <trkpt lat="46.66668" lon="12.1877">
        <ele>2609.16</ele>
        <time>2019-02-24T11:24:34Z</time>
      </trkpt>
      <trkpt lat="46.6667" lon="12.18766">
        <ele>2610.6</ele>
        <time>2019-02-24T11:24:46Z</time>
      </trkpt>
      <trkpt lat="46.66673" lon="12.18762">
        <ele>2612.04</ele>
        <time>2019-02-24T11:24:58Z</time>
      </trkpt>
      <trkpt lat="46.66676" lon="12.18759">
        <ele>2613</ele>
        <time>2019-02-24T11:25:10Z</time>
      </trkpt>
      <trkpt lat="46.6668" lon="12.18755">
        <ele>2614.44</ele>
        <time>2019-02-24T11:25:24Z</time>
      </trkpt>
      <trkpt lat="46.66684" lon="12.18751">
        <ele>2615.4</ele>
        <time>2019-02-24T11:25:38Z</time>
      </trkpt>
      <trkpt lat="46.66688" lon="12.18747">
        <ele>2616.85</ele>
        <time>2019-02-24T11:25:51Z</time>
      </trkpt>
      <trkpt lat="46.66691" lon="12.18743">
        <ele>2617.81</ele>
        <time>2019-02-24T11:26:05Z</time>
      </trkpt>
      <trkpt lat="46.66694" lon="12.18738">
        <ele>2619.25</ele>
        <time>2019-02-24T11:26:20Z</time>
      </trkpt>
      <trkpt lat="46.66697" lon="12.18734">
        <ele>2620.69</ele>
        <time>2019-02-24T11:26:34Z</time>
      </trkpt>
      <trkpt lat="46.66701" lon="12.18729">
        <ele>2622.13</ele>
        <time>2019-02-24T11:26:48Z</time>
      </trkpt>
      <trkpt lat="46.66703" lon="12.18725">
        <ele>2623.09</ele>
        <time>2019-02-24T11:27:01Z</time>
      </trkpt>
      <trkpt lat="46.66705" lon="12.18721">
        <ele>2624.54</ele>
        <time>2019-02-24T11:27:14Z</time>
      </trkpt>
      <trkpt lat="46.66708" lon="12.18718">
        <ele>2625.5</ele>
        <time>2019-02-24T11:27:27Z</time>
      </trkpt>
      <trkpt lat="46.66711" lon="12.18713">
        <ele>2626.94</ele>
        <time>2019-02-24T11:27:41Z</time>
      </trkpt>
      <trkpt lat="46.66714" lon="12.18709">
        <ele>2628.38</ele>
        <time>2019-02-24T11:27:55Z</time>
      </trkpt>
      <trkpt lat="46.66718" lon="12.18704">
        <ele>2630.3</ele>
        <time>2019-02-24T11:28:11Z</time>
      </trkpt>
      <trkpt lat="46.66722" lon="12.18702">
        <ele>2631.27</ele>
        <time>2019-02-24T11:28:25Z</time>
      </trkpt>
      <trkpt lat="46.66724" lon="12.18702">
        <ele>2632.71</ele>
        <time>2019-02-24T11:28:38Z</time>
      </trkpt>
      <trkpt lat="46.66722" lon="12.18709">
        <ele>2633.19</ele>
        <time>2019-02-24T11:28:55Z</time>
      </trkpt>
      <trkpt lat="46.66723" lon="12.18708">
        <ele>2633.19</ele>
        <time>2019-02-24T11:29:19Z</time>
      </trkpt>
      <trkpt lat="46.66724" lon="12.18709">
        <ele>2633.19</ele>
        <time>2019-02-24T11:29:40Z</time>
      </trkpt>
      <trkpt lat="46.66725" lon="12.18706">
        <ele>2633.19</ele>
        <time>2019-02-24T11:29:56Z</time>
      </trkpt>
      <trkpt lat="46.66726" lon="12.18707">
        <ele>2633.19</ele>
        <time>2019-02-24T11:30:11Z</time>
      </trkpt>
      <trkpt lat="46.66725" lon="12.18707">
        <ele>2632.23</ele>
        <time>2019-02-24T11:30:29Z</time>
      </trkpt>
      <trkpt lat="46.66723" lon="12.18706">
        <ele>2632.23</ele>
        <time>2019-02-24T11:30:49Z</time>
      </trkpt>
      <trkpt lat="46.66723" lon="12.18706">
        <ele>2632.71</ele>
        <time>2019-02-24T11:31:34Z</time>
      </trkpt>
      <trkpt lat="46.66724" lon="12.18705">
        <ele>2633.19</ele>
        <time>2019-02-24T11:32:21Z</time>
      </trkpt>
      <trkpt lat="46.66724" lon="12.18707">
        <ele>2632.71</ele>
        <time>2019-02-24T11:32:44Z</time>
      </trkpt>
      <trkpt lat="46.66724" lon="12.18708">
        <ele>2633.19</ele>
        <time>2019-02-24T11:33:28Z</time>
      </trkpt>
      <trkpt lat="46.66723" lon="12.18708">
        <ele>2633.19</ele>
        <time>2019-02-24T11:34:09Z</time>
      </trkpt>
      <trkpt lat="46.66723" lon="12.18707">
        <ele>2632.71</ele>
        <time>2019-02-24T11:34:50Z</time>
      </trkpt>
      <trkpt lat="46.66724" lon="12.18705">
        <ele>2633.19</ele>
        <time>2019-02-24T11:35:24Z</time>
      </trkpt>
      <trkpt lat="46.66723" lon="12.18706">
        <ele>2633.19</ele>
        <time>2019-02-24T11:36:08Z</time>
      </trkpt>
      <trkpt lat="46.66721" lon="12.1871">
        <ele>2633.19</ele>
        <time>2019-02-24T11:36:41Z</time>
      </trkpt>
      <trkpt lat="46.66723" lon="12.1871">
        <ele>2632.71</ele>
        <time>2019-02-24T11:37:21Z</time>
      </trkpt>
      <trkpt lat="46.66724" lon="12.18709">
        <ele>2633.19</ele>
        <time>2019-02-24T11:38:07Z</time>
      </trkpt>
      <trkpt lat="46.66724" lon="12.18709">
        <ele>2633.67</ele>
        <time>2019-02-24T11:38:52Z</time>
      </trkpt>
      <trkpt lat="46.66725" lon="12.18707">
        <ele>2633.19</ele>
        <time>2019-02-24T11:39:26Z</time>
      </trkpt>
      <trkpt lat="46.66725" lon="12.18708">
        <ele>2633.19</ele>
        <time>2019-02-24T11:40:12Z</time>
      </trkpt>
      <trkpt lat="46.66724" lon="12.18708">
        <ele>2633.19</ele>
        <time>2019-02-24T11:40:55Z</time>
      </trkpt>
      <trkpt lat="46.66722" lon="12.18709">
        <ele>2633.19</ele>
        <time>2019-02-24T11:41:39Z</time>
      </trkpt>
      <trkpt lat="46.66722" lon="12.18702">
        <ele>2632.71</ele>
        <time>2019-02-24T11:42:13Z</time>
      </trkpt>
      <trkpt lat="46.66724" lon="12.18707">
        <ele>2633.19</ele>
        <time>2019-02-24T11:42:50Z</time>
      </trkpt>
      <trkpt lat="46.66722" lon="12.18707">
        <ele>2633.19</ele>
        <time>2019-02-24T11:43:43Z</time>
      </trkpt>
      <trkpt lat="46.66724" lon="12.18706">
        <ele>2633.19</ele>
        <time>2019-02-24T11:44:19Z</time>
      </trkpt>
      <trkpt lat="46.66724" lon="12.18707">
        <ele>2634.15</ele>
        <time>2019-02-24T11:44:58Z</time>
      </trkpt>
      <trkpt lat="46.66721" lon="12.18706">
        <ele>2634.15</ele>
        <time>2019-02-24T11:45:42Z</time>
      </trkpt>
      <trkpt lat="46.66723" lon="12.18705">
        <ele>2634.63</ele>
        <time>2019-02-24T11:46:37Z</time>
      </trkpt>
      <trkpt lat="46.66723" lon="12.18704">
        <ele>2635.11</ele>
        <time>2019-02-24T11:47:29Z</time>
      </trkpt>
      <trkpt lat="46.66721" lon="12.18702">
        <ele>2635.59</ele>
        <time>2019-02-24T11:48:18Z</time>
      </trkpt>
      <trkpt lat="46.66721" lon="12.18703">
        <ele>2635.59</ele>
        <time>2019-02-24T11:49:00Z</time>
      </trkpt>
      <trkpt lat="46.66719" lon="12.18702">
        <ele>2635.59</ele>
        <time>2019-02-24T11:49:43Z</time>
      </trkpt>
      <trkpt lat="46.66721" lon="12.18702">
        <ele>2635.59</ele>
        <time>2019-02-24T11:50:23Z</time>
      </trkpt>
      <trkpt lat="46.66721" lon="12.18703">
        <ele>2635.59</ele>
        <time>2019-02-24T11:51:02Z</time>
      </trkpt>
      <trkpt lat="46.66722" lon="12.18703">
        <ele>2635.59</ele>
        <time>2019-02-24T11:51:35Z</time>
      </trkpt>
      <trkpt lat="46.66724" lon="12.18704">
        <ele>2636.55</ele>
        <time>2019-02-24T11:52:10Z</time>
      </trkpt>
      <trkpt lat="46.66722" lon="12.18702">
        <ele>2636.55</ele>
        <time>2019-02-24T11:52:25Z</time>
      </trkpt>
      <trkpt lat="46.66724" lon="12.18704">
        <ele>2636.55</ele>
        <time>2019-02-24T11:52:50Z</time>
      </trkpt>
      <trkpt lat="46.66727" lon="12.18705">
        <ele>2637.03</ele>
        <time>2019-02-24T11:53:08Z</time>
      </trkpt>
      <trkpt lat="46.66726" lon="12.18712">
        <ele>2637.99</ele>
        <time>2019-02-24T11:53:21Z</time>
      </trkpt>
      <trkpt lat="46.66727" lon="12.18717">
        <ele>2638.96</ele>
        <time>2019-02-24T11:53:34Z</time>
      </trkpt>
      <trkpt lat="46.66727" lon="12.18723">
        <ele>2639.92</ele>
        <time>2019-02-24T11:53:49Z</time>
      </trkpt>
      <trkpt lat="46.66727" lon="12.18723">
        <ele>2640.4</ele>
        <time>2019-02-24T11:54:01Z</time>
      </trkpt>
      <trkpt lat="46.66729" lon="12.18724">
        <ele>2641.36</ele>
        <time>2019-02-24T11:54:14Z</time>
      </trkpt>
      <trkpt lat="46.66733" lon="12.18718">
        <ele>2642.32</ele>
        <time>2019-02-24T11:54:30Z</time>
      </trkpt>
      <trkpt lat="46.66735" lon="12.18715">
        <ele>2642.8</ele>
        <time>2019-02-24T11:54:43Z</time>
      </trkpt>
      <trkpt lat="46.66738" lon="12.18713">
        <ele>2643.76</ele>
        <time>2019-02-24T11:54:57Z</time>
      </trkpt>
      <trkpt lat="46.66741" lon="12.1871">
        <ele>2644.72</ele>
        <time>2019-02-24T11:55:11Z</time>
      </trkpt>
      <trkpt lat="46.66744" lon="12.18708">
        <ele>2645.69</ele>
        <time>2019-02-24T11:55:24Z</time>
      </trkpt>
      <trkpt lat="46.66747" lon="12.18705">
        <ele>2646.65</ele>
        <time>2019-02-24T11:55:37Z</time>
      </trkpt>
      <trkpt lat="46.6675" lon="12.18702">
        <ele>2647.61</ele>
        <time>2019-02-24T11:55:51Z</time>
      </trkpt>
      <trkpt lat="46.66753" lon="12.187">
        <ele>2648.57</ele>
        <time>2019-02-24T11:56:04Z</time>
      </trkpt>
      <trkpt lat="46.66755" lon="12.18697">
        <ele>2649.05</ele>
        <time>2019-02-24T11:56:17Z</time>
      </trkpt>
      <trkpt lat="46.66758" lon="12.18694">
        <ele>2650.49</ele>
        <time>2019-02-24T11:56:29Z</time>
      </trkpt>
      <trkpt lat="46.6676" lon="12.18693">
        <ele>2650.97</ele>
        <time>2019-02-24T11:56:42Z</time>
      </trkpt>
      <trkpt lat="46.66763" lon="12.1869">
        <ele>2651.93</ele>
        <time>2019-02-24T11:56:55Z</time>
      </trkpt>
      <trkpt lat="46.66767" lon="12.18687">
        <ele>2652.9</ele>
        <time>2019-02-24T11:57:09Z</time>
      </trkpt>
      <trkpt lat="46.6677" lon="12.18684">
        <ele>2654.34</ele>
        <time>2019-02-24T11:57:23Z</time>
      </trkpt>
      <trkpt lat="46.66772" lon="12.18681">
        <ele>2655.3</ele>
        <time>2019-02-24T11:57:36Z</time>
      </trkpt>
      <trkpt lat="46.66775" lon="12.18677">
        <ele>2656.26</ele>
        <time>2019-02-24T11:57:50Z</time>
      </trkpt>
      <trkpt lat="46.66777" lon="12.18675">
        <ele>2657.7</ele>
        <time>2019-02-24T11:58:04Z</time>
      </trkpt>
      <trkpt lat="46.66779" lon="12.18672">
        <ele>2658.18</ele>
        <time>2019-02-24T11:58:17Z</time>
      </trkpt>
      <trkpt lat="46.66783" lon="12.18669">
        <ele>2658.66</ele>
        <time>2019-02-24T11:58:30Z</time>
      </trkpt>
      <trkpt lat="46.66785" lon="12.18666">
        <ele>2660.11</ele>
        <time>2019-02-24T11:58:45Z</time>
      </trkpt>
      <trkpt lat="46.66789" lon="12.18663">
        <ele>2661.55</ele>
        <time>2019-02-24T11:58:59Z</time>
      </trkpt>
      <trkpt lat="46.66792" lon="12.1866">
        <ele>2662.51</ele>
        <time>2019-02-24T11:59:13Z</time>
      </trkpt>
      <trkpt lat="46.66794" lon="12.18659">
        <ele>2663.47</ele>
        <time>2019-02-24T11:59:27Z</time>
      </trkpt>
      <trkpt lat="46.66794" lon="12.18662">
        <ele>2663.95</ele>
        <time>2019-02-24T11:59:45Z</time>
      </trkpt>
      <trkpt lat="46.66794" lon="12.18665">
        <ele>2664.91</ele>
        <time>2019-02-24T12:00:00Z</time>
      </trkpt>
      <trkpt lat="46.66795" lon="12.18668">
        <ele>2665.87</ele>
        <time>2019-02-24T12:00:12Z</time>
      </trkpt>
      <trkpt lat="46.66796" lon="12.18672">
        <ele>2666.83</ele>
        <time>2019-02-24T12:00:24Z</time>
      </trkpt>
      <trkpt lat="46.66798" lon="12.18676">
        <ele>2667.8</ele>
        <time>2019-02-24T12:00:37Z</time>
      </trkpt>
      <trkpt lat="46.66798" lon="12.18679">
        <ele>2668.28</ele>
        <time>2019-02-24T12:00:50Z</time>
      </trkpt>
      <trkpt lat="46.66799" lon="12.18684">
        <ele>2669.24</ele>
        <time>2019-02-24T12:01:03Z</time>
      </trkpt>
      <trkpt lat="46.668" lon="12.18689">
        <ele>2670.68</ele>
        <time>2019-02-24T12:01:17Z</time>
      </trkpt>
      <trkpt lat="46.668" lon="12.18695">
        <ele>2672.12</ele>
        <time>2019-02-24T12:01:31Z</time>
      </trkpt>
      <trkpt lat="46.66801" lon="12.18699">
        <ele>2673.08</ele>
        <time>2019-02-24T12:01:44Z</time>
      </trkpt>
      <trkpt lat="46.66801" lon="12.18706">
        <ele>2674.04</ele>
        <time>2019-02-24T12:01:58Z</time>
      </trkpt>
      <trkpt lat="46.66802" lon="12.18711">
        <ele>2675.49</ele>
        <time>2019-02-24T12:02:12Z</time>
      </trkpt>
      <trkpt lat="46.66802" lon="12.18715">
        <ele>2676.93</ele>
        <time>2019-02-24T12:02:23Z</time>
      </trkpt>
      <trkpt lat="46.66802" lon="12.1872">
        <ele>2678.37</ele>
        <time>2019-02-24T12:02:36Z</time>
      </trkpt>
      <trkpt lat="46.66802" lon="12.18726">
        <ele>2678.85</ele>
        <time>2019-02-24T12:02:50Z</time>
      </trkpt>
      <trkpt lat="46.66802" lon="12.1873">
        <ele>2679.81</ele>
        <time>2019-02-24T12:03:03Z</time>
      </trkpt>
      <trkpt lat="46.66802" lon="12.18736">
        <ele>2680.29</ele>
        <time>2019-02-24T12:03:18Z</time>
      </trkpt>
      <trkpt lat="46.66802" lon="12.18741">
        <ele>2681.25</ele>
        <time>2019-02-24T12:03:32Z</time>
      </trkpt>
      <trkpt lat="46.66801" lon="12.18746">
        <ele>2682.7</ele>
        <time>2019-02-24T12:03:45Z</time>
      </trkpt>
      <trkpt lat="46.66802" lon="12.1875">
        <ele>2683.66</ele>
        <time>2019-02-24T12:03:59Z</time>
      </trkpt>
      <trkpt lat="46.66802" lon="12.18755">
        <ele>2684.62</ele>
        <time>2019-02-24T12:04:11Z</time>
      </trkpt>
      <trkpt lat="46.66802" lon="12.18759">
        <ele>2686.06</ele>
        <time>2019-02-24T12:04:25Z</time>
      </trkpt>
      <trkpt lat="46.66802" lon="12.18764">
        <ele>2687.5</ele>
        <time>2019-02-24T12:04:39Z</time>
      </trkpt>
      <trkpt lat="46.66801" lon="12.18769">
        <ele>2688.46</ele>
        <time>2019-02-24T12:04:52Z</time>
      </trkpt>
      <trkpt lat="46.66801" lon="12.18775">
        <ele>2689.43</ele>
        <time>2019-02-24T12:05:05Z</time>
      </trkpt>
      <trkpt lat="46.66801" lon="12.18782">
        <ele>2690.87</ele>
        <time>2019-02-24T12:05:18Z</time>
      </trkpt>
      <trkpt lat="46.66801" lon="12.18787">
        <ele>2691.35</ele>
        <time>2019-02-24T12:05:32Z</time>
      </trkpt>
      <trkpt lat="46.668" lon="12.18791">
        <ele>2692.31</ele>
        <time>2019-02-24T12:05:46Z</time>
      </trkpt>
      <trkpt lat="46.668" lon="12.18795">
        <ele>2693.27</ele>
        <time>2019-02-24T12:05:59Z</time>
      </trkpt>
      <trkpt lat="46.668" lon="12.188">
        <ele>2695.19</ele>
        <time>2019-02-24T12:06:12Z</time>
      </trkpt>
      <trkpt lat="46.66801" lon="12.18806">
        <ele>2696.15</ele>
        <time>2019-02-24T12:06:25Z</time>
      </trkpt>
      <trkpt lat="46.66801" lon="12.18811">
        <ele>2697.12</ele>
        <time>2019-02-24T12:06:38Z</time>
      </trkpt>
      <trkpt lat="46.668" lon="12.18818">
        <ele>2698.08</ele>
        <time>2019-02-24T12:06:53Z</time>
      </trkpt>
      <trkpt lat="46.66801" lon="12.1882">
        <ele>2699.52</ele>
        <time>2019-02-24T12:07:09Z</time>
      </trkpt>
      <trkpt lat="46.66802" lon="12.18822">
        <ele>2700</ele>
        <time>2019-02-24T12:07:24Z</time>
      </trkpt>
      <trkpt lat="46.66803" lon="12.18819">
        <ele>2700.48</ele>
        <time>2019-02-24T12:07:42Z</time>
      </trkpt>
      <trkpt lat="46.66807" lon="12.18814">
        <ele>2701.92</ele>
        <time>2019-02-24T12:07:58Z</time>
      </trkpt>
      <trkpt lat="46.6681" lon="12.1881">
        <ele>2702.88</ele>
        <time>2019-02-24T12:08:14Z</time>
      </trkpt>
      <trkpt lat="46.66812" lon="12.18813">
        <ele>2703.85</ele>
        <time>2019-02-24T12:08:27Z</time>
      </trkpt>
      <trkpt lat="46.66814" lon="12.18816">
        <ele>2705.29</ele>
        <time>2019-02-24T12:08:41Z</time>
      </trkpt>
      <trkpt lat="46.66818" lon="12.18812">
        <ele>2706.73</ele>
        <time>2019-02-24T12:08:55Z</time>
      </trkpt>
      <trkpt lat="46.66819" lon="12.18817">
        <ele>2708.17</ele>
        <time>2019-02-24T12:09:07Z</time>
      </trkpt>
      <trkpt lat="46.6682" lon="12.18819">
        <ele>2709.13</ele>
        <time>2019-02-24T12:09:22Z</time>
      </trkpt>
      <trkpt lat="46.66823" lon="12.18821">
        <ele>2709.13</ele>
        <time>2019-02-24T12:09:40Z</time>
      </trkpt>
      <trkpt lat="46.66821" lon="12.18825">
        <ele>2709.13</ele>
        <time>2019-02-24T12:09:52Z</time>
      </trkpt>
      <trkpt lat="46.6682" lon="12.18826">
        <ele>2709.61</ele>
        <time>2019-02-24T12:10:15Z</time>
      </trkpt>
      <trkpt lat="46.6682" lon="12.18825">
        <ele>2710.09</ele>
        <time>2019-02-24T12:10:32Z</time>
      </trkpt>
      <trkpt lat="46.66819" lon="12.1883">
        <ele>2709.13</ele>
        <time>2019-02-24T12:10:47Z</time>
      </trkpt>
      <trkpt lat="46.6682" lon="12.18829">
        <ele>2709.13</ele>
        <time>2019-02-24T12:10:58Z</time>
      </trkpt>
      <trkpt lat="46.66818" lon="12.1883">
        <ele>2709.61</ele>
        <time>2019-02-24T12:11:26Z</time>
      </trkpt>
      <trkpt lat="46.66818" lon="12.18829">
        <ele>2710.09</ele>
        <time>2019-02-24T12:11:45Z</time>
      </trkpt>
      <trkpt lat="46.66818" lon="12.18828">
        <ele>2709.61</ele>
        <time>2019-02-24T12:12:09Z</time>
      </trkpt>
      <trkpt lat="46.6682" lon="12.18825">
        <ele>2710.09</ele>
        <time>2019-02-24T12:12:26Z</time>
      </trkpt>
      <trkpt lat="46.66819" lon="12.18824">
        <ele>2710.09</ele>
        <time>2019-02-24T12:12:46Z</time>
      </trkpt>
      <trkpt lat="46.66821" lon="12.18825">
        <ele>2710.09</ele>
        <time>2019-02-24T12:13:09Z</time>
      </trkpt>
      <trkpt lat="46.66823" lon="12.18819">
        <ele>2710.09</ele>
        <time>2019-02-24T12:13:24Z</time>
      </trkpt>
      <trkpt lat="46.66822" lon="12.18817">
        <ele>2709.61</ele>
        <time>2019-02-24T12:13:54Z</time>
      </trkpt>
      <trkpt lat="46.66825" lon="12.18811">
        <ele>2711.06</ele>
        <time>2019-02-24T12:14:09Z</time>
      </trkpt>
      <trkpt lat="46.66828" lon="12.18805">
        <ele>2710.57</ele>
        <time>2019-02-24T12:14:29Z</time>
      </trkpt>
      <trkpt lat="46.66832" lon="12.18798">
        <ele>2711.06</ele>
        <time>2019-02-24T12:14:44Z</time>
      </trkpt>
      <trkpt lat="46.66835" lon="12.18792">
        <ele>2712.02</ele>
        <time>2019-02-24T12:14:57Z</time>
      </trkpt>
      <trkpt lat="46.66839" lon="12.18784">
        <ele>2713.94</ele>
        <time>2019-02-24T12:15:12Z</time>
      </trkpt>
      <trkpt lat="46.66844" lon="12.18777">
        <ele>2714.9</ele>
        <time>2019-02-24T12:15:25Z</time>
      </trkpt>
      <trkpt lat="46.66848" lon="12.18768">
        <ele>2714.9</ele>
        <time>2019-02-24T12:15:41Z</time>
      </trkpt>
      <trkpt lat="46.66853" lon="12.1876">
        <ele>2716.34</ele>
        <time>2019-02-24T12:15:53Z</time>
      </trkpt>
      <trkpt lat="46.66855" lon="12.18758">
        <ele>2716.34</ele>
        <time>2019-02-24T12:16:06Z</time>
      </trkpt>
      <trkpt lat="46.66859" lon="12.18756">
        <ele>2719.71</ele>
        <time>2019-02-24T12:16:20Z</time>
      </trkpt>
      <trkpt lat="46.66859" lon="12.18757">
        <ele>2718.75</ele>
        <time>2019-02-24T12:16:43Z</time>
      </trkpt>
      <trkpt lat="46.66865" lon="12.18743">
        <ele>2718.75</ele>
        <time>2019-02-24T12:17:00Z</time>
      </trkpt>
      <trkpt lat="46.66869" lon="12.18733">
        <ele>2719.23</ele>
        <time>2019-02-24T12:17:14Z</time>
      </trkpt>
      <trkpt lat="46.66868" lon="12.18726">
        <ele>2718.27</ele>
        <time>2019-02-24T12:17:28Z</time>
      </trkpt>
      <trkpt lat="46.66874" lon="12.18721">
        <ele>2720.67</ele>
        <time>2019-02-24T12:17:42Z</time>
      </trkpt>
      <trkpt lat="46.66879" lon="12.18717">
        <ele>2722.59</ele>
        <time>2019-02-24T12:17:58Z</time>
      </trkpt>
      <trkpt lat="46.66878" lon="12.18721">
        <ele>2721.63</ele>
        <time>2019-02-24T12:18:20Z</time>
      </trkpt>
      <trkpt lat="46.66877" lon="12.18726">
        <ele>2720.19</ele>
        <time>2019-02-24T12:18:38Z</time>
      </trkpt>
      <trkpt lat="46.66878" lon="12.18722">
        <ele>2720.67</ele>
        <time>2019-02-24T12:19:01Z</time>
      </trkpt>
      <trkpt lat="46.66878" lon="12.18721">
        <ele>2721.63</ele>
        <time>2019-02-24T12:19:32Z</time>
      </trkpt>
      <trkpt lat="46.66878" lon="12.18723">
        <ele>2721.15</ele>
        <time>2019-02-24T12:20:08Z</time>
      </trkpt>
      <trkpt lat="46.66878" lon="12.18722">
        <ele>2721.63</ele>
        <time>2019-02-24T12:20:29Z</time>
      </trkpt>
      <trkpt lat="46.66878" lon="12.1872">
        <ele>2721.15</ele>
        <time>2019-02-24T12:20:45Z</time>
      </trkpt>
      <trkpt lat="46.66878" lon="12.18714">
        <ele>2720.67</ele>
        <time>2019-02-24T12:20:58Z</time>
      </trkpt>
      <trkpt lat="46.66879" lon="12.18706">
        <ele>2721.15</ele>
        <time>2019-02-24T12:21:11Z</time>
      </trkpt>
      <trkpt lat="46.66883" lon="12.18701">
        <ele>2721.15</ele>
        <time>2019-02-24T12:21:23Z</time>
      </trkpt>
      <trkpt lat="46.66883" lon="12.18697">
        <ele>2722.11</ele>
        <time>2019-02-24T12:21:45Z</time>
      </trkpt>
      <trkpt lat="46.66883" lon="12.18698">
        <ele>2721.63</ele>
        <time>2019-02-24T12:22:12Z</time>
      </trkpt>
      <trkpt lat="46.66883" lon="12.18697">
        <ele>2721.63</ele>
        <time>2019-02-24T12:22:38Z</time>
      </trkpt>
      <trkpt lat="46.66883" lon="12.18697">
        <ele>2722.59</ele>
        <time>2019-02-24T12:22:45Z</time>
      </trkpt>
      <trkpt lat="46.66885" lon="12.1869">
        <ele>2721.63</ele>
        <time>2019-02-24T12:23:02Z</time>
      </trkpt>
      <trkpt lat="46.66888" lon="12.18684">
        <ele>2721.63</ele>
        <time>2019-02-24T12:23:16Z</time>
      </trkpt>
      <trkpt lat="46.66892" lon="12.18671">
        <ele>2721.15</ele>
        <time>2019-02-24T12:23:38Z</time>
      </trkpt>
      <trkpt lat="46.66894" lon="12.18665">
        <ele>2722.11</ele>
        <time>2019-02-24T12:23:43Z</time>
      </trkpt>
      <trkpt lat="46.66898" lon="12.1865">
        <ele>2722.59</ele>
        <time>2019-02-24T12:23:58Z</time>
      </trkpt>
      <trkpt lat="46.66902" lon="12.18638">
        <ele>2721.63</ele>
        <time>2019-02-24T12:24:12Z</time>
      </trkpt>
      <trkpt lat="46.66903" lon="12.18635">
        <ele>2723.07</ele>
        <time>2019-02-24T12:24:16Z</time>
      </trkpt>
      <trkpt lat="46.66904" lon="12.18633">
        <ele>2722.59</ele>
        <time>2019-02-24T12:24:30Z</time>
      </trkpt>
      <trkpt lat="46.66906" lon="12.18623">
        <ele>2723.55</ele>
        <time>2019-02-24T12:24:46Z</time>
      </trkpt>
      <trkpt lat="46.6691" lon="12.18612">
        <ele>2724.51</ele>
        <time>2019-02-24T12:25:01Z</time>
      </trkpt>
      <trkpt lat="46.66913" lon="12.18608">
        <ele>2725.96</ele>
        <time>2019-02-24T12:25:14Z</time>
      </trkpt>
      <trkpt lat="46.66915" lon="12.18609">
        <ele>2728.36</ele>
        <time>2019-02-24T12:25:24Z</time>
      </trkpt>
      <trkpt lat="46.66916" lon="12.18608">
        <ele>2726.44</ele>
        <time>2019-02-24T12:25:27Z</time>
      </trkpt>
      <trkpt lat="46.6692" lon="12.186">
        <ele>2726.92</ele>
        <time>2019-02-24T12:25:43Z</time>
      </trkpt>
      <trkpt lat="46.66923" lon="12.18594">
        <ele>2728.84</ele>
        <time>2019-02-24T12:26:00Z</time>
      </trkpt>
      <trkpt lat="46.66926" lon="12.18591">
        <ele>2729.32</ele>
        <time>2019-02-24T12:26:13Z</time>
      </trkpt>
      <trkpt lat="46.66926" lon="12.18596">
        <ele>2729.32</ele>
        <time>2019-02-24T12:26:31Z</time>
      </trkpt>
      <trkpt lat="46.6693" lon="12.18596">
        <ele>2731.72</ele>
        <time>2019-02-24T12:26:46Z</time>
      </trkpt>
      <trkpt lat="46.66933" lon="12.18589">
        <ele>2732.2</ele>
        <time>2019-02-24T12:27:01Z</time>
      </trkpt>
      <trkpt lat="46.66935" lon="12.18586">
        <ele>2733.65</ele>
        <time>2019-02-24T12:27:14Z</time>
      </trkpt>
      <trkpt lat="46.66939" lon="12.18581">
        <ele>2734.13</ele>
        <time>2019-02-24T12:27:32Z</time>
      </trkpt>
      <trkpt lat="46.66944" lon="12.18579">
        <ele>2734.13</ele>
        <time>2019-02-24T12:27:52Z</time>
      </trkpt>
      <trkpt lat="46.66949" lon="12.18571">
        <ele>2735.57</ele>
        <time>2019-02-24T12:28:08Z</time>
      </trkpt>
      <trkpt lat="46.66951" lon="12.1857">
        <ele>2735.57</ele>
        <time>2019-02-24T12:28:25Z</time>
      </trkpt>
      <trkpt lat="46.6695" lon="12.1857">
        <ele>2736.53</ele>
        <time>2019-02-24T12:28:43Z</time>
      </trkpt>
      <trkpt lat="46.66953" lon="12.18564">
        <ele>2737.01</ele>
        <time>2019-02-24T12:29:01Z</time>
      </trkpt>
      <trkpt lat="46.66958" lon="12.18561">
        <ele>2737.97</ele>
        <time>2019-02-24T12:29:20Z</time>
      </trkpt>
      <trkpt lat="46.66965" lon="12.18555">
        <ele>2740.38</ele>
        <time>2019-02-24T12:29:36Z</time>
      </trkpt>
      <trkpt lat="46.66972" lon="12.18551">
        <ele>2741.34</ele>
        <time>2019-02-24T12:29:53Z</time>
      </trkpt>
      <trkpt lat="46.66976" lon="12.18547">
        <ele>2741.82</ele>
        <time>2019-02-24T12:30:10Z</time>
      </trkpt>
      <trkpt lat="46.6698" lon="12.18544">
        <ele>2742.78</ele>
        <time>2019-02-24T12:30:21Z</time>
      </trkpt>
      <trkpt lat="46.66984" lon="12.18542">
        <ele>2744.22</ele>
        <time>2019-02-24T12:30:34Z</time>
      </trkpt>
      <trkpt lat="46.66988" lon="12.18538">
        <ele>2745.66</ele>
        <time>2019-02-24T12:30:49Z</time>
      </trkpt>
      <trkpt lat="46.66992" lon="12.18534">
        <ele>2746.62</ele>
        <time>2019-02-24T12:31:03Z</time>
      </trkpt>
      <trkpt lat="46.66995" lon="12.18532">
        <ele>2748.07</ele>
        <time>2019-02-24T12:31:17Z</time>
      </trkpt>
      <trkpt lat="46.66998" lon="12.18531">
        <ele>2749.03</ele>
        <time>2019-02-24T12:31:31Z</time>
      </trkpt>
      <trkpt lat="46.66996" lon="12.18539">
        <ele>2749.99</ele>
        <time>2019-02-24T12:31:46Z</time>
      </trkpt>
      <trkpt lat="46.66997" lon="12.18545">
        <ele>2751.43</ele>
        <time>2019-02-24T12:32:01Z</time>
      </trkpt>
      <trkpt lat="46.66996" lon="12.18548">
        <ele>2751.43</ele>
        <time>2019-02-24T12:32:15Z</time>
      </trkpt>
      <trkpt lat="46.66996" lon="12.18552">
        <ele>2752.87</ele>
        <time>2019-02-24T12:32:30Z</time>
      </trkpt>
      <trkpt lat="46.66996" lon="12.18556">
        <ele>2753.35</ele>
        <time>2019-02-24T12:32:44Z</time>
      </trkpt>
      <trkpt lat="46.66996" lon="12.18562">
        <ele>2755.76</ele>
        <time>2019-02-24T12:32:58Z</time>
      </trkpt>
      <trkpt lat="46.67001" lon="12.18561">
        <ele>2755.76</ele>
        <time>2019-02-24T12:33:14Z</time>
      </trkpt>
      <trkpt lat="46.67005" lon="12.18558">
        <ele>2757.2</ele>
        <time>2019-02-24T12:33:30Z</time>
      </trkpt>
      <trkpt lat="46.67008" lon="12.18555">
        <ele>2758.64</ele>
        <time>2019-02-24T12:33:42Z</time>
      </trkpt>
      <trkpt lat="46.67011" lon="12.18553">
        <ele>2759.6</ele>
        <time>2019-02-24T12:33:56Z</time>
      </trkpt>
      <trkpt lat="46.67015" lon="12.18551">
        <ele>2760.56</ele>
        <time>2019-02-24T12:34:09Z</time>
      </trkpt>
      <trkpt lat="46.67018" lon="12.18548">
        <ele>2761.52</ele>
        <time>2019-02-24T12:34:23Z</time>
      </trkpt>
      <trkpt lat="46.67021" lon="12.18547">
        <ele>2762.97</ele>
        <time>2019-02-24T12:34:35Z</time>
      </trkpt>
      <trkpt lat="46.67023" lon="12.1855">
        <ele>2763.93</ele>
        <time>2019-02-24T12:34:49Z</time>
      </trkpt>
      <trkpt lat="46.67022" lon="12.18554">
        <ele>2765.37</ele>
        <time>2019-02-24T12:35:03Z</time>
      </trkpt>
      <trkpt lat="46.67027" lon="12.18555">
        <ele>2766.33</ele>
        <time>2019-02-24T12:35:17Z</time>
      </trkpt>
      <trkpt lat="46.67031" lon="12.18555">
        <ele>2767.77</ele>
        <time>2019-02-24T12:35:32Z</time>
      </trkpt>
      <trkpt lat="46.67035" lon="12.18555">
        <ele>2768.73</ele>
        <time>2019-02-24T12:35:47Z</time>
      </trkpt>
      <trkpt lat="46.67039" lon="12.18555">
        <ele>2770.66</ele>
        <time>2019-02-24T12:36:03Z</time>
      </trkpt>
      <trkpt lat="46.67042" lon="12.18556">
        <ele>2771.14</ele>
        <time>2019-02-24T12:36:20Z</time>
      </trkpt>
      <trkpt lat="46.67045" lon="12.18555">
        <ele>2772.58</ele>
        <time>2019-02-24T12:36:35Z</time>
      </trkpt>
      <trkpt lat="46.67049" lon="12.18553">
        <ele>2773.54</ele>
        <time>2019-02-24T12:36:50Z</time>
      </trkpt>
      <trkpt lat="46.67053" lon="12.18552">
        <ele>2774.5</ele>
        <time>2019-02-24T12:37:05Z</time>
      </trkpt>
      <trkpt lat="46.67056" lon="12.18552">
        <ele>2775.94</ele>
        <time>2019-02-24T12:37:18Z</time>
      </trkpt>
      <trkpt lat="46.67058" lon="12.1855">
        <ele>2776.42</ele>
        <time>2019-02-24T12:37:32Z</time>
      </trkpt>
      <trkpt lat="46.67063" lon="12.18549">
        <ele>2779.31</ele>
        <time>2019-02-24T12:37:50Z</time>
      </trkpt>
      <trkpt lat="46.67065" lon="12.18552">
        <ele>2780.75</ele>
        <time>2019-02-24T12:38:04Z</time>
      </trkpt>
      <trkpt lat="46.67067" lon="12.18549">
        <ele>2781.23</ele>
        <time>2019-02-24T12:38:27Z</time>
      </trkpt>
      <trkpt lat="46.67068" lon="12.18548">
        <ele>2781.23</ele>
        <time>2019-02-24T12:38:46Z</time>
      </trkpt>
      <trkpt lat="46.67071" lon="12.1855">
        <ele>2782.67</ele>
        <time>2019-02-24T12:38:59Z</time>
      </trkpt>
      <trkpt lat="46.67071" lon="12.18553">
        <ele>2783.15</ele>
        <time>2019-02-24T12:39:17Z</time>
      </trkpt>
      <trkpt lat="46.67072" lon="12.18554">
        <ele>2783.15</ele>
        <time>2019-02-24T12:39:41Z</time>
      </trkpt>
      <trkpt lat="46.67072" lon="12.18552">
        <ele>2783.63</ele>
        <time>2019-02-24T12:39:56Z</time>
      </trkpt>
      <trkpt lat="46.67074" lon="12.18551">
        <ele>2783.63</ele>
        <time>2019-02-24T12:40:10Z</time>
      </trkpt>
      <trkpt lat="46.67075" lon="12.18549">
        <ele>2785.08</ele>
        <time>2019-02-24T12:40:31Z</time>
      </trkpt>
      <trkpt lat="46.67079" lon="12.18544">
        <ele>2786.52</ele>
        <time>2019-02-24T12:40:44Z</time>
      </trkpt>
      <trkpt lat="46.67083" lon="12.18545">
        <ele>2787.48</ele>
        <time>2019-02-24T12:40:57Z</time>
      </trkpt>
      <trkpt lat="46.67086" lon="12.1854">
        <ele>2789.4</ele>
        <time>2019-02-24T12:41:09Z</time>
      </trkpt>
      <trkpt lat="46.67087" lon="12.18545">
        <ele>2790.36</ele>
        <time>2019-02-24T12:41:21Z</time>
      </trkpt>
      <trkpt lat="46.67089" lon="12.18543">
        <ele>2791.33</ele>
        <time>2019-02-24T12:41:36Z</time>
      </trkpt>
      <trkpt lat="46.67093" lon="12.18541">
        <ele>2792.77</ele>
        <time>2019-02-24T12:41:51Z</time>
      </trkpt>
      <trkpt lat="46.67095" lon="12.18543">
        <ele>2793.73</ele>
        <time>2019-02-24T12:42:05Z</time>
      </trkpt>
      <trkpt lat="46.67097" lon="12.18542">
        <ele>2795.17</ele>
        <time>2019-02-24T12:42:20Z</time>
      </trkpt>
      <trkpt lat="46.67099" lon="12.18541">
        <ele>2795.65</ele>
        <time>2019-02-24T12:42:34Z</time>
      </trkpt>
      <trkpt lat="46.67101" lon="12.18538">
        <ele>2797.57</ele>
        <time>2019-02-24T12:42:54Z</time>
      </trkpt>
      <trkpt lat="46.67104" lon="12.18532">
        <ele>2799.02</ele>
        <time>2019-02-24T12:43:09Z</time>
      </trkpt>
      <trkpt lat="46.67107" lon="12.18527">
        <ele>2799.5</ele>
        <time>2019-02-24T12:43:23Z</time>
      </trkpt>
      <trkpt lat="46.67108" lon="12.18527">
        <ele>2799.5</ele>
        <time>2019-02-24T12:43:41Z</time>
      </trkpt>
      <trkpt lat="46.67107" lon="12.18527">
        <ele>2799.98</ele>
        <time>2019-02-24T12:44:05Z</time>
      </trkpt>
      <trkpt lat="46.67108" lon="12.18528">
        <ele>2799.02</ele>
        <time>2019-02-24T12:44:29Z</time>
      </trkpt>
      <trkpt lat="46.67108" lon="12.18526">
        <ele>2798.54</ele>
        <time>2019-02-24T12:44:42Z</time>
      </trkpt>
      <trkpt lat="46.67107" lon="12.18527">
        <ele>2799.5</ele>
        <time>2019-02-24T12:45:08Z</time>
      </trkpt>
      <trkpt lat="46.67106" lon="12.18527">
        <ele>2798.54</ele>
        <time>2019-02-24T12:45:37Z</time>
      </trkpt>
      <trkpt lat="46.67106" lon="12.18527">
        <ele>2798.54</ele>
        <time>2019-02-24T12:46:06Z</time>
      </trkpt>
      <trkpt lat="46.67106" lon="12.18526">
        <ele>2798.54</ele>
        <time>2019-02-24T12:46:34Z</time>
      </trkpt>
      <trkpt lat="46.67106" lon="12.18526">
        <ele>2798.05</ele>
        <time>2019-02-24T12:47:10Z</time>
      </trkpt>
      <trkpt lat="46.67106" lon="12.18527">
        <ele>2799.02</ele>
        <time>2019-02-24T12:47:39Z</time>
      </trkpt>
      <trkpt lat="46.67105" lon="12.18527">
        <ele>2798.54</ele>
        <time>2019-02-24T12:48:12Z</time>
      </trkpt>
      <trkpt lat="46.67105" lon="12.18528">
        <ele>2798.54</ele>
        <time>2019-02-24T12:48:52Z</time>
      </trkpt>
      <trkpt lat="46.67105" lon="12.18527">
        <ele>2799.02</ele>
        <time>2019-02-24T12:49:26Z</time>
      </trkpt>
      <trkpt lat="46.67107" lon="12.18529">
        <ele>2798.05</ele>
        <time>2019-02-24T12:49:56Z</time>
      </trkpt>
      <trkpt lat="46.67108" lon="12.18527">
        <ele>2798.05</ele>
        <time>2019-02-24T12:50:24Z</time>
      </trkpt>
      <trkpt lat="46.67107" lon="12.18528">
        <ele>2799.02</ele>
        <time>2019-02-24T12:50:59Z</time>
      </trkpt>
      <trkpt lat="46.67107" lon="12.18528">
        <ele>2798.54</ele>
        <time>2019-02-24T12:51:28Z</time>
      </trkpt>
      <trkpt lat="46.67108" lon="12.18526">
        <ele>2799.5</ele>
        <time>2019-02-24T12:51:46Z</time>
      </trkpt>
      <trkpt lat="46.67106" lon="12.18526">
        <ele>2799.98</ele>
        <time>2019-02-24T12:52:04Z</time>
      </trkpt>
      <trkpt lat="46.67105" lon="12.1853">
        <ele>2799.5</ele>
        <time>2019-02-24T12:52:21Z</time>
      </trkpt>
      <trkpt lat="46.67108" lon="12.1853">
        <ele>2799.5</ele>
        <time>2019-02-24T12:52:44Z</time>
      </trkpt>
      <trkpt lat="46.67108" lon="12.18526">
        <ele>2800.46</ele>
        <time>2019-02-24T12:53:05Z</time>
      </trkpt>
      <trkpt lat="46.67112" lon="12.18522">
        <ele>2801.42</ele>
        <time>2019-02-24T12:53:22Z</time>
      </trkpt>
      <trkpt lat="46.67113" lon="12.1852">
        <ele>2802.38</ele>
        <time>2019-02-24T12:53:38Z</time>
      </trkpt>
      <trkpt lat="46.67116" lon="12.18519">
        <ele>2803.34</ele>
        <time>2019-02-24T12:53:57Z</time>
      </trkpt>
      <trkpt lat="46.6712" lon="12.18516">
        <ele>2804.3</ele>
        <time>2019-02-24T12:54:12Z</time>
      </trkpt>
      <trkpt lat="46.67125" lon="12.18513">
        <ele>2805.75</ele>
        <time>2019-02-24T12:54:30Z</time>
      </trkpt>
      <trkpt lat="46.67127" lon="12.18516">
        <ele>2806.71</ele>
        <time>2019-02-24T12:54:45Z</time>
      </trkpt>
      <trkpt lat="46.67129" lon="12.18517">
        <ele>2807.19</ele>
        <time>2019-02-24T12:55:07Z</time>
      </trkpt>
      <trkpt lat="46.67132" lon="12.18512">
        <ele>2808.63</ele>
        <time>2019-02-24T12:55:26Z</time>
      </trkpt>
      <trkpt lat="46.67137" lon="12.18514">
        <ele>2810.07</ele>
        <time>2019-02-24T12:55:42Z</time>
      </trkpt>
      <trkpt lat="46.67141" lon="12.18519">
        <ele>2811.99</ele>
        <time>2019-02-24T12:56:02Z</time>
      </trkpt>
      <trkpt lat="46.67143" lon="12.18521">
        <ele>2813.92</ele>
        <time>2019-02-24T12:56:19Z</time>
      </trkpt>
      <trkpt lat="46.67146" lon="12.18524">
        <ele>2815.36</ele>
        <time>2019-02-24T12:56:35Z</time>
      </trkpt>
      <trkpt lat="46.67149" lon="12.18527">
        <ele>2816.32</ele>
        <time>2019-02-24T12:56:49Z</time>
      </trkpt>
      <trkpt lat="46.67152" lon="12.18527">
        <ele>2817.28</ele>
        <time>2019-02-24T12:57:02Z</time>
      </trkpt>
      <trkpt lat="46.67154" lon="12.1853">
        <ele>2819.2</ele>
        <time>2019-02-24T12:57:18Z</time>
      </trkpt>
      <trkpt lat="46.67155" lon="12.18532">
        <ele>2820.16</ele>
        <time>2019-02-24T12:57:37Z</time>
      </trkpt>
      <trkpt lat="46.67159" lon="12.18531">
        <ele>2820.65</ele>
        <time>2019-02-24T12:57:51Z</time>
      </trkpt>
      <trkpt lat="46.6716" lon="12.18535">
        <ele>2821.61</ele>
        <time>2019-02-24T12:58:06Z</time>
      </trkpt>
      <trkpt lat="46.67161" lon="12.18533">
        <ele>2822.57</ele>
        <time>2019-02-24T12:58:20Z</time>
      </trkpt>
      <trkpt lat="46.67165" lon="12.18531">
        <ele>2824.49</ele>
        <time>2019-02-24T12:58:39Z</time>
      </trkpt>
      <trkpt lat="46.67167" lon="12.18529">
        <ele>2825.93</ele>
        <time>2019-02-24T12:58:50Z</time>
      </trkpt>
      <trkpt lat="46.67168" lon="12.18526">
        <ele>2825.93</ele>
        <time>2019-02-24T12:59:07Z</time>
      </trkpt>
      <trkpt lat="46.67169" lon="12.18527">
        <ele>2826.89</ele>
        <time>2019-02-24T12:59:29Z</time>
      </trkpt>
      <trkpt lat="46.67169" lon="12.18531">
        <ele>2826.89</ele>
        <time>2019-02-24T12:59:47Z</time>
      </trkpt>
      <trkpt lat="46.67171" lon="12.18533">
        <ele>2827.37</ele>
        <time>2019-02-24T13:00:02Z</time>
      </trkpt>
      <trkpt lat="46.67172" lon="12.18537">
        <ele>2828.82</ele>
        <time>2019-02-24T13:00:19Z</time>
      </trkpt>
      <trkpt lat="46.67171" lon="12.18535">
        <ele>2828.34</ele>
        <time>2019-02-24T13:00:37Z</time>
      </trkpt>
      <trkpt lat="46.67172" lon="12.18536">
        <ele>2829.3</ele>
        <time>2019-02-24T13:01:05Z</time>
      </trkpt>
      <trkpt lat="46.67176" lon="12.18534">
        <ele>2829.78</ele>
        <time>2019-02-24T13:01:19Z</time>
      </trkpt>
      <trkpt lat="46.67182" lon="12.18531">
        <ele>2831.22</ele>
        <time>2019-02-24T13:01:33Z</time>
      </trkpt>
      <trkpt lat="46.67187" lon="12.18526">
        <ele>2834.1</ele>
        <time>2019-02-24T13:01:47Z</time>
      </trkpt>
      <trkpt lat="46.6719" lon="12.18527">
        <ele>2835.55</ele>
        <time>2019-02-24T13:01:57Z</time>
      </trkpt>
      <trkpt lat="46.67195" lon="12.18524">
        <ele>2836.03</ele>
        <time>2019-02-24T13:02:12Z</time>
      </trkpt>
      <trkpt lat="46.67199" lon="12.18523">
        <ele>2836.51</ele>
        <time>2019-02-24T13:02:26Z</time>
      </trkpt>
      <trkpt lat="46.67201" lon="12.18521">
        <ele>2836.03</ele>
        <time>2019-02-24T13:02:55Z</time>
      </trkpt>
      <trkpt lat="46.67199" lon="12.18521">
        <ele>2835.55</ele>
        <time>2019-02-24T13:03:08Z</time>
      </trkpt>
      <trkpt lat="46.672" lon="12.18523">
        <ele>2836.03</ele>
        <time>2019-02-24T13:03:26Z</time>
      </trkpt>
      <trkpt lat="46.67201" lon="12.18522">
        <ele>2834.58</ele>
        <time>2019-02-24T13:03:55Z</time>
      </trkpt>
      <trkpt lat="46.67203" lon="12.18523">
        <ele>2833.14</ele>
        <time>2019-02-24T13:04:09Z</time>
      </trkpt>
      <trkpt lat="46.67206" lon="12.18523">
        <ele>2832.66</ele>
        <time>2019-02-24T13:04:24Z</time>
      </trkpt>
      <trkpt lat="46.67214" lon="12.18522">
        <ele>2832.66</ele>
        <time>2019-02-24T13:04:38Z</time>
      </trkpt>
      <trkpt lat="46.67218" lon="12.18525">
        <ele>2833.62</ele>
        <time>2019-02-24T13:04:56Z</time>
      </trkpt>
      <trkpt lat="46.67222" lon="12.18528">
        <ele>2835.55</ele>
        <time>2019-02-24T13:05:11Z</time>
      </trkpt>
      <trkpt lat="46.67225" lon="12.18526">
        <ele>2836.99</ele>
        <time>2019-02-24T13:05:23Z</time>
      </trkpt>
      <trkpt lat="46.67228" lon="12.18527">
        <ele>2836.51</ele>
        <time>2019-02-24T13:05:35Z</time>
      </trkpt>
      <trkpt lat="46.67231" lon="12.18528">
        <ele>2836.51</ele>
        <time>2019-02-24T13:05:52Z</time>
      </trkpt>
      <trkpt lat="46.67233" lon="12.18528">
        <ele>2836.51</ele>
        <time>2019-02-24T13:06:13Z</time>
      </trkpt>
      <trkpt lat="46.67235" lon="12.1853">
        <ele>2837.47</ele>
        <time>2019-02-24T13:06:31Z</time>
      </trkpt>
      <trkpt lat="46.67238" lon="12.18532">
        <ele>2838.43</ele>
        <time>2019-02-24T13:06:47Z</time>
      </trkpt>
      <trkpt lat="46.6724" lon="12.18534">
        <ele>2839.39</ele>
        <time>2019-02-24T13:07:03Z</time>
      </trkpt>
      <trkpt lat="46.67243" lon="12.18536">
        <ele>2841.31</ele>
        <time>2019-02-24T13:07:18Z</time>
      </trkpt>
      <trkpt lat="46.67245" lon="12.18541">
        <ele>2842.28</ele>
        <time>2019-02-24T13:07:36Z</time>
      </trkpt>
      <trkpt lat="46.67246" lon="12.18545">
        <ele>2843.24</ele>
        <time>2019-02-24T13:07:51Z</time>
      </trkpt>
      <trkpt lat="46.67248" lon="12.18546">
        <ele>2843.72</ele>
        <time>2019-02-24T13:08:07Z</time>
      </trkpt>
      <trkpt lat="46.67249" lon="12.18547">
        <ele>2845.16</ele>
        <time>2019-02-24T13:08:11Z</time>
      </trkpt>
      <trkpt lat="46.67251" lon="12.18548">
        <ele>2844.2</ele>
        <time>2019-02-24T13:08:28Z</time>
      </trkpt>
      <trkpt lat="46.67254" lon="12.18549">
        <ele>2846.12</ele>
        <time>2019-02-24T13:08:43Z</time>
      </trkpt>
      <trkpt lat="46.67253" lon="12.18549">
        <ele>2845.16</ele>
        <time>2019-02-24T13:08:56Z</time>
      </trkpt>
      <trkpt lat="46.67255" lon="12.18549">
        <ele>2846.12</ele>
        <time>2019-02-24T13:09:11Z</time>
      </trkpt>
      <trkpt lat="46.67253" lon="12.18553">
        <ele>2846.12</ele>
        <time>2019-02-24T13:09:19Z</time>
      </trkpt>
      <trkpt lat="46.67254" lon="12.18554">
        <ele>2846.12</ele>
        <time>2019-02-24T13:09:39Z</time>
      </trkpt>
      <trkpt lat="46.67254" lon="12.18554">
        <ele>2846.12</ele>
        <time>2019-02-24T13:10:00Z</time>
      </trkpt>
      <trkpt lat="46.67253" lon="12.18552">
        <ele>2844.2</ele>
        <time>2019-02-24T13:10:20Z</time>
      </trkpt>
      <trkpt lat="46.67253" lon="12.18552">
        <ele>2847.08</ele>
        <time>2019-02-24T13:10:21Z</time>
      </trkpt>
      <trkpt lat="46.67253" lon="12.18552">
        <ele>2846.12</ele>
        <time>2019-02-24T13:10:22Z</time>
      </trkpt>
      <trkpt lat="46.67255" lon="12.18552">
        <ele>2846.6</ele>
        <time>2019-02-24T13:10:40Z</time>
      </trkpt>
      <trkpt lat="46.67252" lon="12.18552">
        <ele>2845.64</ele>
        <time>2019-02-24T13:11:08Z</time>
      </trkpt>
      <trkpt lat="46.67253" lon="12.18551">
        <ele>2845.64</ele>
        <time>2019-02-24T13:11:29Z</time>
      </trkpt>
      <trkpt lat="46.67255" lon="12.18549">
        <ele>2845.64</ele>
        <time>2019-02-24T13:11:56Z</time>
      </trkpt>
      <trkpt lat="46.67254" lon="12.18549">
        <ele>2844.2</ele>
        <time>2019-02-24T13:12:12Z</time>
      </trkpt>
      <trkpt lat="46.67256" lon="12.18549">
        <ele>2845.64</ele>
        <time>2019-02-24T13:12:32Z</time>
      </trkpt>
      <trkpt lat="46.67255" lon="12.18549">
        <ele>2844.2</ele>
        <time>2019-02-24T13:13:02Z</time>
      </trkpt>
      <trkpt lat="46.67256" lon="12.18549">
        <ele>2845.16</ele>
        <time>2019-02-24T13:13:35Z</time>
      </trkpt>
      <trkpt lat="46.67256" lon="12.18549">
        <ele>2845.16</ele>
        <time>2019-02-24T13:14:08Z</time>
      </trkpt>
      <trkpt lat="46.67256" lon="12.18549">
        <ele>2845.16</ele>
        <time>2019-02-24T13:14:39Z</time>
      </trkpt>
      <trkpt lat="46.67256" lon="12.18549">
        <ele>2845.16</ele>
        <time>2019-02-24T13:15:10Z</time>
      </trkpt>
      <trkpt lat="46.67256" lon="12.18548">
        <ele>2845.16</ele>
        <time>2019-02-24T13:15:41Z</time>
      </trkpt>
      <trkpt lat="46.67256" lon="12.18548">
        <ele>2845.16</ele>
        <time>2019-02-24T13:16:11Z</time>
      </trkpt>
      <trkpt lat="46.67256" lon="12.18548">
        <ele>2845.64</ele>
        <time>2019-02-24T13:16:45Z</time>
      </trkpt>
      <trkpt lat="46.67255" lon="12.18548">
        <ele>2846.12</ele>
        <time>2019-02-24T13:17:15Z</time>
      </trkpt>
      <trkpt lat="46.67255" lon="12.18548">
        <ele>2846.12</ele>
        <time>2019-02-24T13:17:47Z</time>
      </trkpt>
      <trkpt lat="46.67254" lon="12.18548">
        <ele>2845.16</ele>
        <time>2019-02-24T13:18:18Z</time>
      </trkpt>
      <trkpt lat="46.67255" lon="12.18548">
        <ele>2845.16</ele>
        <time>2019-02-24T13:18:43Z</time>
      </trkpt>
      <trkpt lat="46.67255" lon="12.18548">
        <ele>2845.64</ele>
        <time>2019-02-24T13:19:05Z</time>
      </trkpt>
      <trkpt lat="46.67255" lon="12.18548">
        <ele>2846.12</ele>
        <time>2019-02-24T13:19:33Z</time>
      </trkpt>
      <trkpt lat="46.67254" lon="12.18548">
        <ele>2845.64</ele>
        <time>2019-02-24T13:20:02Z</time>
      </trkpt>
      <trkpt lat="46.67255" lon="12.18548">
        <ele>2845.64</ele>
        <time>2019-02-24T13:20:37Z</time>
      </trkpt>
      <trkpt lat="46.67253" lon="12.18547">
        <ele>2845.64</ele>
        <time>2019-02-24T13:21:07Z</time>
      </trkpt>
      <trkpt lat="46.67254" lon="12.18547">
        <ele>2845.64</ele>
        <time>2019-02-24T13:21:32Z</time>
      </trkpt>
      <trkpt lat="46.67255" lon="12.18547">
        <ele>2845.16</ele>
        <time>2019-02-24T13:22:04Z</time>
      </trkpt>
      <trkpt lat="46.67255" lon="12.18548">
        <ele>2845.64</ele>
        <time>2019-02-24T13:22:36Z</time>
      </trkpt>
      <trkpt lat="46.67255" lon="12.18548">
        <ele>2846.12</ele>
        <time>2019-02-24T13:23:04Z</time>
      </trkpt>
      <trkpt lat="46.67255" lon="12.18547">
        <ele>2845.64</ele>
        <time>2019-02-24T13:23:39Z</time>
      </trkpt>
      <trkpt lat="46.67254" lon="12.18547">
        <ele>2846.12</ele>
        <time>2019-02-24T13:24:06Z</time>
      </trkpt>
      <trkpt lat="46.67255" lon="12.18548">
        <ele>2846.12</ele>
        <time>2019-02-24T13:24:35Z</time>
      </trkpt>
      <trkpt lat="46.67255" lon="12.18548">
        <ele>2845.64</ele>
        <time>2019-02-24T13:25:08Z</time>
      </trkpt>
      <trkpt lat="46.67255" lon="12.18547">
        <ele>2847.56</ele>
        <time>2019-02-24T13:25:40Z</time>
      </trkpt>
      <trkpt lat="46.67254" lon="12.18548">
        <ele>2846.12</ele>
        <time>2019-02-24T13:26:14Z</time>
      </trkpt>
      <trkpt lat="46.67255" lon="12.18548">
        <ele>2846.6</ele>
        <time>2019-02-24T13:26:48Z</time>
      </trkpt>
      <trkpt lat="46.67255" lon="12.18548">
        <ele>2847.08</ele>
        <time>2019-02-24T13:27:10Z</time>
      </trkpt>
      <trkpt lat="46.67254" lon="12.18548">
        <ele>2846.6</ele>
        <time>2019-02-24T13:27:40Z</time>
      </trkpt>
      <trkpt lat="46.67255" lon="12.18548">
        <ele>2846.6</ele>
        <time>2019-02-24T13:28:11Z</time>
      </trkpt>
      <trkpt lat="46.67254" lon="12.18548">
        <ele>2846.6</ele>
        <time>2019-02-24T13:28:40Z</time>
      </trkpt>
      <trkpt lat="46.67255" lon="12.18548">
        <ele>2847.56</ele>
        <time>2019-02-24T13:29:14Z</time>
      </trkpt>
      <trkpt lat="46.67256" lon="12.18547">
        <ele>2847.56</ele>
        <time>2019-02-24T13:29:49Z</time>
      </trkpt>
      <trkpt lat="46.67258" lon="12.18548">
        <ele>2847.56</ele>
        <time>2019-02-24T13:30:28Z</time>
      </trkpt>
      <trkpt lat="46.67258" lon="12.18547">
        <ele>2847.08</ele>
        <time>2019-02-24T13:30:58Z</time>
      </trkpt>
      <trkpt lat="46.67254" lon="12.18549">
        <ele>2848.04</ele>
        <time>2019-02-24T13:31:33Z</time>
      </trkpt>
      <trkpt lat="46.67255" lon="12.18549">
        <ele>2848.52</ele>
        <time>2019-02-24T13:31:49Z</time>
      </trkpt>
      <trkpt lat="46.67252" lon="12.18548">
        <ele>2848.04</ele>
        <time>2019-02-24T13:32:07Z</time>
      </trkpt>
      <trkpt lat="46.67248" lon="12.18544">
        <ele>2847.08</ele>
        <time>2019-02-24T13:32:25Z</time>
      </trkpt>
      <trkpt lat="46.67245" lon="12.18538">
        <ele>2845.16</ele>
        <time>2019-02-24T13:32:44Z</time>
      </trkpt>
      <trkpt lat="46.67237" lon="12.18532">
        <ele>2841.31</ele>
        <time>2019-02-24T13:32:56Z</time>
      </trkpt>
      <trkpt lat="46.67232" lon="12.1853">
        <ele>2839.39</ele>
        <time>2019-02-24T13:33:15Z</time>
      </trkpt>
      <trkpt lat="46.67226" lon="12.18527">
        <ele>2838.43</ele>
        <time>2019-02-24T13:33:24Z</time>
      </trkpt>
      <trkpt lat="46.67225" lon="12.18524">
        <ele>2837.95</ele>
        <time>2019-02-24T13:33:41Z</time>
      </trkpt>
      <trkpt lat="46.67219" lon="12.18526">
        <ele>2836.03</ele>
        <time>2019-02-24T13:33:54Z</time>
      </trkpt>
      <trkpt lat="46.6721" lon="12.18522">
        <ele>2834.1</ele>
        <time>2019-02-24T13:34:07Z</time>
      </trkpt>
      <trkpt lat="46.67205" lon="12.18524">
        <ele>2834.1</ele>
        <time>2019-02-24T13:34:24Z</time>
      </trkpt>
      <trkpt lat="46.67202" lon="12.18524">
        <ele>2834.1</ele>
        <time>2019-02-24T13:34:40Z</time>
      </trkpt>
      <trkpt lat="46.67198" lon="12.18523">
        <ele>2835.55</ele>
        <time>2019-02-24T13:34:58Z</time>
      </trkpt>
      <trkpt lat="46.67195" lon="12.1852">
        <ele>2837.47</ele>
        <time>2019-02-24T13:35:11Z</time>
      </trkpt>
      <trkpt lat="46.67189" lon="12.18526">
        <ele>2836.51</ele>
        <time>2019-02-24T13:35:25Z</time>
      </trkpt>
      <trkpt lat="46.67187" lon="12.18518">
        <ele>2834.58</ele>
        <time>2019-02-24T13:35:40Z</time>
      </trkpt>
      <trkpt lat="46.67179" lon="12.18523">
        <ele>2832.66</ele>
        <time>2019-02-24T13:35:57Z</time>
      </trkpt>
      <trkpt lat="46.67175" lon="12.18524">
        <ele>2831.22</ele>
        <time>2019-02-24T13:36:08Z</time>
      </trkpt>
      <trkpt lat="46.6717" lon="12.18526">
        <ele>2829.3</ele>
        <time>2019-02-24T13:36:22Z</time>
      </trkpt>
      <trkpt lat="46.67167" lon="12.18529">
        <ele>2828.34</ele>
        <time>2019-02-24T13:36:42Z</time>
      </trkpt>
      <trkpt lat="46.67168" lon="12.18529">
        <ele>2826.41</ele>
        <time>2019-02-24T13:36:56Z</time>
      </trkpt>
      <trkpt lat="46.67166" lon="12.18529">
        <ele>2828.34</ele>
        <time>2019-02-24T13:37:28Z</time>
      </trkpt>
      <trkpt lat="46.67165" lon="12.18518">
        <ele>2825.45</ele>
        <time>2019-02-24T13:37:43Z</time>
      </trkpt>
      <trkpt lat="46.67158" lon="12.18522">
        <ele>2823.05</ele>
        <time>2019-02-24T13:37:57Z</time>
      </trkpt>
      <trkpt lat="46.67153" lon="12.18527">
        <ele>2821.61</ele>
        <time>2019-02-24T13:38:14Z</time>
      </trkpt>
      <trkpt lat="46.67146" lon="12.18527">
        <ele>2818.72</ele>
        <time>2019-02-24T13:38:28Z</time>
      </trkpt>
      <trkpt lat="46.67142" lon="12.18523">
        <ele>2816.32</ele>
        <time>2019-02-24T13:38:43Z</time>
      </trkpt>
      <trkpt lat="46.6714" lon="12.18521">
        <ele>2814.88</ele>
        <time>2019-02-24T13:38:58Z</time>
      </trkpt>
      <trkpt lat="46.67136" lon="12.18517">
        <ele>2812.96</ele>
        <time>2019-02-24T13:39:14Z</time>
      </trkpt>
      <trkpt lat="46.67133" lon="12.18516">
        <ele>2811.03</ele>
        <time>2019-02-24T13:39:30Z</time>
      </trkpt>
      <trkpt lat="46.67128" lon="12.18516">
        <ele>2809.11</ele>
        <time>2019-02-24T13:39:44Z</time>
      </trkpt>
      <trkpt lat="46.67127" lon="12.18516">
        <ele>2808.63</ele>
        <time>2019-02-24T13:40:01Z</time>
      </trkpt>
      <trkpt lat="46.67122" lon="12.18517">
        <ele>2806.71</ele>
        <time>2019-02-24T13:40:17Z</time>
      </trkpt>
      <trkpt lat="46.67116" lon="12.18521">
        <ele>2804.78</ele>
        <time>2019-02-24T13:40:32Z</time>
      </trkpt>
      <trkpt lat="46.67113" lon="12.18522">
        <ele>2803.82</ele>
        <time>2019-02-24T13:40:48Z</time>
      </trkpt>
      <trkpt lat="46.6711" lon="12.18526">
        <ele>2802.86</ele>
        <time>2019-02-24T13:41:06Z</time>
      </trkpt>
      <trkpt lat="46.67108" lon="12.18527">
        <ele>2801.9</ele>
        <time>2019-02-24T13:41:24Z</time>
      </trkpt>
      <trkpt lat="46.67106" lon="12.18529">
        <ele>2800.94</ele>
        <time>2019-02-24T13:41:39Z</time>
      </trkpt>
      <trkpt lat="46.67106" lon="12.1853">
        <ele>2800.46</ele>
        <time>2019-02-24T13:41:58Z</time>
      </trkpt>
      <trkpt lat="46.67107" lon="12.18528">
        <ele>2800.94</ele>
        <time>2019-02-24T13:42:12Z</time>
      </trkpt>
      <trkpt lat="46.67107" lon="12.18527">
        <ele>2799.98</ele>
        <time>2019-02-24T13:42:30Z</time>
      </trkpt>
      <trkpt lat="46.67107" lon="12.18527">
        <ele>2799.02</ele>
        <time>2019-02-24T13:42:52Z</time>
      </trkpt>
      <trkpt lat="46.67107" lon="12.18528">
        <ele>2799.98</ele>
        <time>2019-02-24T13:43:20Z</time>
      </trkpt>
      <trkpt lat="46.67106" lon="12.18528">
        <ele>2799.98</ele>
        <time>2019-02-24T13:43:58Z</time>
      </trkpt>
      <trkpt lat="46.67106" lon="12.18528">
        <ele>2800.46</ele>
        <time>2019-02-24T13:44:38Z</time>
      </trkpt>
      <trkpt lat="46.67106" lon="12.18529">
        <ele>2799.98</ele>
        <time>2019-02-24T13:45:10Z</time>
      </trkpt>
      <trkpt lat="46.67106" lon="12.18528">
        <ele>2799.5</ele>
        <time>2019-02-24T13:45:50Z</time>
      </trkpt>
      <trkpt lat="46.67107" lon="12.18529">
        <ele>2799.98</ele>
        <time>2019-02-24T13:46:27Z</time>
      </trkpt>
      <trkpt lat="46.67107" lon="12.18529">
        <ele>2799.5</ele>
        <time>2019-02-24T13:46:56Z</time>
      </trkpt>
      <trkpt lat="46.67107" lon="12.18529">
        <ele>2799.98</ele>
        <time>2019-02-24T13:47:20Z</time>
      </trkpt>
      <trkpt lat="46.67106" lon="12.18529">
        <ele>2799.5</ele>
        <time>2019-02-24T13:47:48Z</time>
      </trkpt>
      <trkpt lat="46.67107" lon="12.18528">
        <ele>2800.46</ele>
        <time>2019-02-24T13:48:17Z</time>
      </trkpt>
      <trkpt lat="46.67107" lon="12.18523">
        <ele>2801.42</ele>
        <time>2019-02-24T13:48:31Z</time>
      </trkpt>
      <trkpt lat="46.67108" lon="12.18517">
        <ele>2798.54</ele>
        <time>2019-02-24T13:48:45Z</time>
      </trkpt>
      <trkpt lat="46.67106" lon="12.18514">
        <ele>2797.09</ele>
        <time>2019-02-24T13:48:57Z</time>
      </trkpt>
      <trkpt lat="46.67104" lon="12.18515">
        <ele>2797.09</ele>
        <time>2019-02-24T13:49:13Z</time>
      </trkpt>
      <trkpt lat="46.67105" lon="12.18515">
        <ele>2797.09</ele>
        <time>2019-02-24T13:49:29Z</time>
      </trkpt>
      <trkpt lat="46.67104" lon="12.18515">
        <ele>2797.09</ele>
        <time>2019-02-24T13:49:55Z</time>
      </trkpt>
      <trkpt lat="46.67104" lon="12.18515">
        <ele>2797.09</ele>
        <time>2019-02-24T13:50:13Z</time>
      </trkpt>
      <trkpt lat="46.67104" lon="12.18515">
        <ele>2796.13</ele>
        <time>2019-02-24T13:50:38Z</time>
      </trkpt>
      <trkpt lat="46.67105" lon="12.18515">
        <ele>2796.61</ele>
        <time>2019-02-24T13:50:57Z</time>
      </trkpt>
      <trkpt lat="46.67103" lon="12.18518">
        <ele>2795.65</ele>
        <time>2019-02-24T13:51:09Z</time>
      </trkpt>
      <trkpt lat="46.67102" lon="12.1852">
        <ele>2796.13</ele>
        <time>2019-02-24T13:51:36Z</time>
      </trkpt>
      <trkpt lat="46.67098" lon="12.18522">
        <ele>2795.17</ele>
        <time>2019-02-24T13:51:38Z</time>
      </trkpt>
      <trkpt lat="46.6709" lon="12.18519">
        <ele>2789.88</ele>
        <time>2019-02-24T13:51:41Z</time>
      </trkpt>
      <trkpt lat="46.67088" lon="12.18524">
        <ele>2789.4</ele>
        <time>2019-02-24T13:51:43Z</time>
      </trkpt>
      <trkpt lat="46.67088" lon="12.18523">
        <ele>2788.92</ele>
        <time>2019-02-24T13:51:55Z</time>
      </trkpt>
      <trkpt lat="46.67076" lon="12.18519">
        <ele>2784.12</ele>
        <time>2019-02-24T13:52:01Z</time>
      </trkpt>
      <trkpt lat="46.6707" lon="12.18529">
        <ele>2780.75</ele>
        <time>2019-02-24T13:52:03Z</time>
      </trkpt>
      <trkpt lat="46.6707" lon="12.18532">
        <ele>2780.75</ele>
        <time>2019-02-24T13:52:04Z</time>
      </trkpt>
      <trkpt lat="46.6707" lon="12.18534">
        <ele>2780.75</ele>
        <time>2019-02-24T13:52:19Z</time>
      </trkpt>
      <trkpt lat="46.67069" lon="12.18533">
        <ele>2780.75</ele>
        <time>2019-02-24T13:52:45Z</time>
      </trkpt>
      <trkpt lat="46.67069" lon="12.18535">
        <ele>2780.27</ele>
        <time>2019-02-24T13:53:10Z</time>
      </trkpt>
      <trkpt lat="46.67067" lon="12.18536">
        <ele>2779.79</ele>
        <time>2019-02-24T13:53:34Z</time>
      </trkpt>
      <trkpt lat="46.67066" lon="12.18535">
        <ele>2780.27</ele>
        <time>2019-02-24T13:54:09Z</time>
      </trkpt>
      <trkpt lat="46.67067" lon="12.18535">
        <ele>2779.79</ele>
        <time>2019-02-24T13:54:29Z</time>
      </trkpt>
      <trkpt lat="46.67066" lon="12.18535">
        <ele>2779.79</ele>
        <time>2019-02-24T13:54:46Z</time>
      </trkpt>
      <trkpt lat="46.67067" lon="12.18535">
        <ele>2780.27</ele>
        <time>2019-02-24T13:55:16Z</time>
      </trkpt>
      <trkpt lat="46.67066" lon="12.18536">
        <ele>2779.31</ele>
        <time>2019-02-24T13:55:42Z</time>
      </trkpt>
      <trkpt lat="46.67059" lon="12.18545">
        <ele>2776.91</ele>
        <time>2019-02-24T13:55:53Z</time>
      </trkpt>
      <trkpt lat="46.6706" lon="12.18544">
        <ele>2775.94</ele>
        <time>2019-02-24T13:56:24Z</time>
      </trkpt>
      <trkpt lat="46.67062" lon="12.18544">
        <ele>2776.42</ele>
        <time>2019-02-24T13:57:07Z</time>
      </trkpt>
      <trkpt lat="46.67059" lon="12.18545">
        <ele>2775.46</ele>
        <time>2019-02-24T13:57:34Z</time>
      </trkpt>
      <trkpt lat="46.67058" lon="12.18541">
        <ele>2774.98</ele>
        <time>2019-02-24T13:57:51Z</time>
      </trkpt>
      <trkpt lat="46.67058" lon="12.1854">
        <ele>2774.98</ele>
        <time>2019-02-24T13:58:15Z</time>
      </trkpt>
      <trkpt lat="46.67056" lon="12.18542">
        <ele>2774.5</ele>
        <time>2019-02-24T13:58:26Z</time>
      </trkpt>
      <trkpt lat="46.67054" lon="12.18521">
        <ele>2771.14</ele>
        <time>2019-02-24T13:58:30Z</time>
      </trkpt>
      <trkpt lat="46.67056" lon="12.18511">
        <ele>2770.18</ele>
        <time>2019-02-24T13:58:32Z</time>
      </trkpt>
      <trkpt lat="46.67057" lon="12.18506">
        <ele>2770.18</ele>
        <time>2019-02-24T13:58:33Z</time>
      </trkpt>
      <trkpt lat="46.67055" lon="12.18504">
        <ele>2769.21</ele>
        <time>2019-02-24T13:58:40Z</time>
      </trkpt>
      <trkpt lat="46.67054" lon="12.18506">
        <ele>2768.73</ele>
        <time>2019-02-24T13:59:09Z</time>
      </trkpt>
      <trkpt lat="46.67053" lon="12.18506">
        <ele>2768.73</ele>
        <time>2019-02-24T13:59:34Z</time>
      </trkpt>
      <trkpt lat="46.67052" lon="12.18505">
        <ele>2768.73</ele>
        <time>2019-02-24T14:00:05Z</time>
      </trkpt>
      <trkpt lat="46.67053" lon="12.18506">
        <ele>2769.7</ele>
        <time>2019-02-24T14:00:35Z</time>
      </trkpt>
      <trkpt lat="46.67053" lon="12.18507">
        <ele>2768.73</ele>
        <time>2019-02-24T14:01:02Z</time>
      </trkpt>
      <trkpt lat="46.67048" lon="12.1851">
        <ele>2767.77</ele>
        <time>2019-02-24T14:01:19Z</time>
      </trkpt>
      <trkpt lat="46.67042" lon="12.18497">
        <ele>2761.52</ele>
        <time>2019-02-24T14:01:22Z</time>
      </trkpt>
      <trkpt lat="46.67032" lon="12.18495">
        <ele>2756.72</ele>
        <time>2019-02-24T14:01:25Z</time>
      </trkpt>
      <trkpt lat="46.67024" lon="12.18496">
        <ele>2752.87</ele>
        <time>2019-02-24T14:01:28Z</time>
      </trkpt>
      <trkpt lat="46.6702" lon="12.18492">
        <ele>2749.99</ele>
        <time>2019-02-24T14:01:30Z</time>
      </trkpt>
      <trkpt lat="46.67017" lon="12.1848">
        <ele>2746.62</ele>
        <time>2019-02-24T14:01:33Z</time>
      </trkpt>
      <trkpt lat="46.67006" lon="12.18474">
        <ele>2740.86</ele>
        <time>2019-02-24T14:01:36Z</time>
      </trkpt>
      <trkpt lat="46.67" lon="12.18481">
        <ele>2737.49</ele>
        <time>2019-02-24T14:01:39Z</time>
      </trkpt>
      <trkpt lat="46.67001" lon="12.18481">
        <ele>2737.97</ele>
        <time>2019-02-24T14:01:50Z</time>
      </trkpt>
      <trkpt lat="46.67" lon="12.18483">
        <ele>2737.97</ele>
        <time>2019-02-24T14:02:14Z</time>
      </trkpt>
      <trkpt lat="46.66999" lon="12.18486">
        <ele>2737.97</ele>
        <time>2019-02-24T14:02:42Z</time>
      </trkpt>
      <trkpt lat="46.66986" lon="12.185">
        <ele>2735.57</ele>
        <time>2019-02-24T14:02:47Z</time>
      </trkpt>
      <trkpt lat="46.66965" lon="12.18523">
        <ele>2731.72</ele>
        <time>2019-02-24T14:02:53Z</time>
      </trkpt>
      <trkpt lat="46.66947" lon="12.18541">
        <ele>2728.36</ele>
        <time>2019-02-24T14:02:59Z</time>
      </trkpt>
      <trkpt lat="46.66931" lon="12.18557">
        <ele>2725.48</ele>
        <time>2019-02-24T14:03:05Z</time>
      </trkpt>
      <trkpt lat="46.6692" lon="12.1857">
        <ele>2723.55</ele>
        <time>2019-02-24T14:03:09Z</time>
      </trkpt>
      <trkpt lat="46.66908" lon="12.1859">
        <ele>2721.15</ele>
        <time>2019-02-24T14:03:16Z</time>
      </trkpt>
      <trkpt lat="46.66904" lon="12.18583">
        <ele>2717.3</ele>
        <time>2019-02-24T14:03:19Z</time>
      </trkpt>
      <trkpt lat="46.66905" lon="12.18577">
        <ele>2716.34</ele>
        <time>2019-02-24T14:03:21Z</time>
      </trkpt>
      <trkpt lat="46.66905" lon="12.18569">
        <ele>2715.86</ele>
        <time>2019-02-24T14:03:23Z</time>
      </trkpt>
      <trkpt lat="46.66894" lon="12.18564">
        <ele>2709.61</ele>
        <time>2019-02-24T14:03:28Z</time>
      </trkpt>
      <trkpt lat="46.66895" lon="12.18552">
        <ele>2707.69</ele>
        <time>2019-02-24T14:03:34Z</time>
      </trkpt>
      <trkpt lat="46.66896" lon="12.18549">
        <ele>2707.21</ele>
        <time>2019-02-24T14:03:58Z</time>
      </trkpt>
      <trkpt lat="46.66896" lon="12.1855">
        <ele>2707.21</ele>
        <time>2019-02-24T14:04:23Z</time>
      </trkpt>
      <trkpt lat="46.66895" lon="12.18548">
        <ele>2707.21</ele>
        <time>2019-02-24T14:04:51Z</time>
      </trkpt>
      <trkpt lat="46.66895" lon="12.18548">
        <ele>2707.21</ele>
        <time>2019-02-24T14:05:18Z</time>
      </trkpt>
      <trkpt lat="46.66895" lon="12.1855">
        <ele>2707.21</ele>
        <time>2019-02-24T14:05:54Z</time>
      </trkpt>
      <trkpt lat="46.66896" lon="12.18548">
        <ele>2707.21</ele>
        <time>2019-02-24T14:06:22Z</time>
      </trkpt>
      <trkpt lat="46.66896" lon="12.18548">
        <ele>2707.21</ele>
        <time>2019-02-24T14:06:44Z</time>
      </trkpt>
      <trkpt lat="46.66884" lon="12.18554">
        <ele>2703.85</ele>
        <time>2019-02-24T14:06:49Z</time>
      </trkpt>
      <trkpt lat="46.66872" lon="12.1855">
        <ele>2696.15</ele>
        <time>2019-02-24T14:06:54Z</time>
      </trkpt>
      <trkpt lat="46.66867" lon="12.18552">
        <ele>2694.23</ele>
        <time>2019-02-24T14:06:56Z</time>
      </trkpt>
      <trkpt lat="46.66863" lon="12.18546">
        <ele>2690.39</ele>
        <time>2019-02-24T14:06:58Z</time>
      </trkpt>
      <trkpt lat="46.66861" lon="12.18541">
        <ele>2687.02</ele>
        <time>2019-02-24T14:06:59Z</time>
      </trkpt>
      <trkpt lat="46.66856" lon="12.18542">
        <ele>2684.14</ele>
        <time>2019-02-24T14:07:01Z</time>
      </trkpt>
      <trkpt lat="46.66853" lon="12.18536">
        <ele>2680.77</ele>
        <time>2019-02-24T14:07:03Z</time>
      </trkpt>
      <trkpt lat="46.66848" lon="12.18538">
        <ele>2676.93</ele>
        <time>2019-02-24T14:07:05Z</time>
      </trkpt>
      <trkpt lat="46.66845" lon="12.18546">
        <ele>2675.97</ele>
        <time>2019-02-24T14:07:07Z</time>
      </trkpt>
      <trkpt lat="46.66841" lon="12.18557">
        <ele>2675.49</ele>
        <time>2019-02-24T14:07:17Z</time>
      </trkpt>
      <trkpt lat="46.66839" lon="12.18558">
        <ele>2675.97</ele>
        <time>2019-02-24T14:07:41Z</time>
      </trkpt>
      <trkpt lat="46.66838" lon="12.18558">
        <ele>2675.97</ele>
        <time>2019-02-24T14:08:06Z</time>
      </trkpt>
      <trkpt lat="46.66838" lon="12.18559">
        <ele>2675.97</ele>
        <time>2019-02-24T14:08:20Z</time>
      </trkpt>
      <trkpt lat="46.66832" lon="12.18569">
        <ele>2674.52</ele>
        <time>2019-02-24T14:08:24Z</time>
      </trkpt>
      <trkpt lat="46.66823" lon="12.18592">
        <ele>2671.16</ele>
        <time>2019-02-24T14:08:29Z</time>
      </trkpt>
      <trkpt lat="46.6681" lon="12.18621">
        <ele>2667.31</ele>
        <time>2019-02-24T14:08:35Z</time>
      </trkpt>
      <trkpt lat="46.66809" lon="12.18623">
        <ele>2667.31</ele>
        <time>2019-02-24T14:08:36Z</time>
      </trkpt>
      <trkpt lat="46.66803" lon="12.18639">
        <ele>2665.39</ele>
        <time>2019-02-24T14:08:40Z</time>
      </trkpt>
      <trkpt lat="46.66796" lon="12.18661">
        <ele>2663.95</ele>
        <time>2019-02-24T14:08:52Z</time>
      </trkpt>
      <trkpt lat="46.66796" lon="12.1866">
        <ele>2663.95</ele>
        <time>2019-02-24T14:09:12Z</time>
      </trkpt>
      <trkpt lat="46.66795" lon="12.1866">
        <ele>2663.47</ele>
        <time>2019-02-24T14:09:33Z</time>
      </trkpt>
      <trkpt lat="46.66794" lon="12.18663">
        <ele>2662.99</ele>
        <time>2019-02-24T14:10:01Z</time>
      </trkpt>
      <trkpt lat="46.66794" lon="12.18663">
        <ele>2663.47</ele>
        <time>2019-02-24T14:10:04Z</time>
      </trkpt>
      <trkpt lat="46.66788" lon="12.1867">
        <ele>2662.03</ele>
        <time>2019-02-24T14:10:07Z</time>
      </trkpt>
      <trkpt lat="46.66779" lon="12.18686">
        <ele>2660.11</ele>
        <time>2019-02-24T14:10:10Z</time>
      </trkpt>
      <trkpt lat="46.66776" lon="12.18692">
        <ele>2659.14</ele>
        <time>2019-02-24T14:10:11Z</time>
      </trkpt>
      <trkpt lat="46.66769" lon="12.18699">
        <ele>2657.7</ele>
        <time>2019-02-24T14:10:14Z</time>
      </trkpt>
      <trkpt lat="46.66766" lon="12.1869">
        <ele>2654.34</ele>
        <time>2019-02-24T14:10:16Z</time>
      </trkpt>
      <trkpt lat="46.66756" lon="12.18698">
        <ele>2649.53</ele>
        <time>2019-02-24T14:10:18Z</time>
      </trkpt>
      <trkpt lat="46.66742" lon="12.18725">
        <ele>2645.69</ele>
        <time>2019-02-24T14:10:23Z</time>
      </trkpt>
      <trkpt lat="46.66726" lon="12.18754">
        <ele>2641.84</ele>
        <time>2019-02-24T14:10:29Z</time>
      </trkpt>
      <trkpt lat="46.66713" lon="12.18779">
        <ele>2638.48</ele>
        <time>2019-02-24T14:10:34Z</time>
      </trkpt>
      <trkpt lat="46.6671" lon="12.18784">
        <ele>2638.48</ele>
        <time>2019-02-24T14:10:35Z</time>
      </trkpt>
      <trkpt lat="46.66708" lon="12.18788">
        <ele>2638.48</ele>
        <time>2019-02-24T14:10:36Z</time>
      </trkpt>
      <trkpt lat="46.66704" lon="12.18777">
        <ele>2633.19</ele>
        <time>2019-02-24T14:10:40Z</time>
      </trkpt>
      <trkpt lat="46.66699" lon="12.18778">
        <ele>2630.3</ele>
        <time>2019-02-24T14:10:42Z</time>
      </trkpt>
      <trkpt lat="46.66697" lon="12.18782">
        <ele>2629.82</ele>
        <time>2019-02-24T14:10:43Z</time>
      </trkpt>
      <trkpt lat="46.6669" lon="12.18786">
        <ele>2627.9</ele>
        <time>2019-02-24T14:10:45Z</time>
      </trkpt>
      <trkpt lat="46.66689" lon="12.18773">
        <ele>2625.98</ele>
        <time>2019-02-24T14:10:48Z</time>
      </trkpt>
      <trkpt lat="46.66687" lon="12.1877">
        <ele>2622.61</ele>
        <time>2019-02-24T14:10:49Z</time>
      </trkpt>
      <trkpt lat="46.66684" lon="12.18776">
        <ele>2620.69</ele>
        <time>2019-02-24T14:10:51Z</time>
      </trkpt>
      <trkpt lat="46.66683" lon="12.18779">
        <ele>2621.65</ele>
        <time>2019-02-24T14:10:59Z</time>
      </trkpt>
      <trkpt lat="46.66683" lon="12.1878">
        <ele>2621.65</ele>
        <time>2019-02-24T14:11:08Z</time>
      </trkpt>
      <trkpt lat="46.66678" lon="12.1877">
        <ele>2617.33</ele>
        <time>2019-02-24T14:11:12Z</time>
      </trkpt>
      <trkpt lat="46.66667" lon="12.1877">
        <ele>2610.12</ele>
        <time>2019-02-24T14:11:17Z</time>
      </trkpt>
      <trkpt lat="46.66663" lon="12.18755">
        <ele>2605.79</ele>
        <time>2019-02-24T14:11:20Z</time>
      </trkpt>
      <trkpt lat="46.66659" lon="12.18746">
        <ele>2600.98</ele>
        <time>2019-02-24T14:11:22Z</time>
      </trkpt>
      <trkpt lat="46.6665" lon="12.18746">
        <ele>2596.66</ele>
        <time>2019-02-24T14:11:24Z</time>
      </trkpt>
      <trkpt lat="46.6665" lon="12.18738">
        <ele>2596.66</ele>
        <time>2019-02-24T14:11:25Z</time>
      </trkpt>
      <trkpt lat="46.66644" lon="12.18731">
        <ele>2590.41</ele>
        <time>2019-02-24T14:11:30Z</time>
      </trkpt>
      <trkpt lat="46.66644" lon="12.18731">
        <ele>2591.37</ele>
        <time>2019-02-24T14:11:44Z</time>
      </trkpt>
      <trkpt lat="46.66644" lon="12.18732">
        <ele>2591.85</ele>
        <time>2019-02-24T14:12:08Z</time>
      </trkpt>
      <trkpt lat="46.66643" lon="12.18732">
        <ele>2591.85</ele>
        <time>2019-02-24T14:12:29Z</time>
      </trkpt>
      <trkpt lat="46.66644" lon="12.18732">
        <ele>2591.85</ele>
        <time>2019-02-24T14:12:50Z</time>
      </trkpt>
      <trkpt lat="46.66644" lon="12.18731">
        <ele>2591.85</ele>
        <time>2019-02-24T14:13:08Z</time>
      </trkpt>
      <trkpt lat="46.66643" lon="12.18731">
        <ele>2591.37</ele>
        <time>2019-02-24T14:13:30Z</time>
      </trkpt>
      <trkpt lat="46.66642" lon="12.1873">
        <ele>2591.37</ele>
        <time>2019-02-24T14:13:53Z</time>
      </trkpt>
      <trkpt lat="46.6664" lon="12.18736">
        <ele>2591.37</ele>
        <time>2019-02-24T14:14:13Z</time>
      </trkpt>
      <trkpt lat="46.66636" lon="12.18716">
        <ele>2585.6</ele>
        <time>2019-02-24T14:14:18Z</time>
      </trkpt>
      <trkpt lat="46.66637" lon="12.18701">
        <ele>2583.2</ele>
        <time>2019-02-24T14:14:21Z</time>
      </trkpt>
      <trkpt lat="46.66631" lon="12.18703">
        <ele>2579.84</ele>
        <time>2019-02-24T14:14:24Z</time>
      </trkpt>
      <trkpt lat="46.66625" lon="12.18702">
        <ele>2575.51</ele>
        <time>2019-02-24T14:14:29Z</time>
      </trkpt>
      <trkpt lat="46.66619" lon="12.18705">
        <ele>2571.66</ele>
        <time>2019-02-24T14:14:31Z</time>
      </trkpt>
      <trkpt lat="46.6661" lon="12.18704">
        <ele>2566.38</ele>
        <time>2019-02-24T14:14:35Z</time>
      </trkpt>
      <trkpt lat="46.66606" lon="12.18707">
        <ele>2563.49</ele>
        <time>2019-02-24T14:14:37Z</time>
      </trkpt>
      <trkpt lat="46.66603" lon="12.18703">
        <ele>2560.13</ele>
        <time>2019-02-24T14:14:41Z</time>
      </trkpt>
      <trkpt lat="46.66604" lon="12.18702">
        <ele>2559.65</ele>
        <time>2019-02-24T14:14:42Z</time>
      </trkpt>
      <trkpt lat="46.66603" lon="12.18695">
        <ele>2560.13</ele>
        <time>2019-02-24T14:14:52Z</time>
      </trkpt>
      <trkpt lat="46.66594" lon="12.18687">
        <ele>2553.4</ele>
        <time>2019-02-24T14:14:58Z</time>
      </trkpt>
      <trkpt lat="46.66588" lon="12.18688">
        <ele>2550.03</ele>
        <time>2019-02-24T14:15:00Z</time>
      </trkpt>
      <trkpt lat="46.66585" lon="12.18692">
        <ele>2549.07</ele>
        <time>2019-02-24T14:15:01Z</time>
      </trkpt>
      <trkpt lat="46.66573" lon="12.18714">
        <ele>2546.19</ele>
        <time>2019-02-24T14:15:06Z</time>
      </trkpt>
      <trkpt lat="46.66561" lon="12.18732">
        <ele>2543.31</ele>
        <time>2019-02-24T14:15:10Z</time>
      </trkpt>
      <trkpt lat="46.6655" lon="12.18749">
        <ele>2541.38</ele>
        <time>2019-02-24T14:15:14Z</time>
      </trkpt>
      <trkpt lat="46.66547" lon="12.18733">
        <ele>2537.06</ele>
        <time>2019-02-24T14:15:19Z</time>
      </trkpt>
      <trkpt lat="46.66548" lon="12.1873">
        <ele>2536.1</ele>
        <time>2019-02-24T14:15:21Z</time>
      </trkpt>
      <trkpt lat="46.66548" lon="12.18728">
        <ele>2536.58</ele>
        <time>2019-02-24T14:15:29Z</time>
      </trkpt>
      <trkpt lat="46.6654" lon="12.18729">
        <ele>2532.25</ele>
        <time>2019-02-24T14:15:33Z</time>
      </trkpt>
      <trkpt lat="46.66537" lon="12.18734">
        <ele>2531.77</ele>
        <time>2019-02-24T14:15:34Z</time>
      </trkpt>
      <trkpt lat="46.66532" lon="12.18741">
        <ele>2531.29</ele>
        <time>2019-02-24T14:15:36Z</time>
      </trkpt>
      <trkpt lat="46.66529" lon="12.1873">
        <ele>2528.4</ele>
        <time>2019-02-24T14:15:40Z</time>
      </trkpt>
      <trkpt lat="46.66528" lon="12.18723">
        <ele>2524.56</ele>
        <time>2019-02-24T14:15:42Z</time>
      </trkpt>
      <trkpt lat="46.66522" lon="12.18723">
        <ele>2522.64</ele>
        <time>2019-02-24T14:15:44Z</time>
      </trkpt>
      <trkpt lat="46.6652" lon="12.18726">
        <ele>2522.16</ele>
        <time>2019-02-24T14:15:50Z</time>
      </trkpt>
      <trkpt lat="46.66523" lon="12.187">
        <ele>2518.31</ele>
        <time>2019-02-24T14:15:55Z</time>
      </trkpt>
      <trkpt lat="46.66532" lon="12.18671">
        <ele>2514.47</ele>
        <time>2019-02-24T14:16:00Z</time>
      </trkpt>
      <trkpt lat="46.66522" lon="12.18669">
        <ele>2509.66</ele>
        <time>2019-02-24T14:16:03Z</time>
      </trkpt>
      <trkpt lat="46.66514" lon="12.18667">
        <ele>2508.7</ele>
        <time>2019-02-24T14:16:05Z</time>
      </trkpt>
      <trkpt lat="46.66513" lon="12.18662">
        <ele>2505.33</ele>
        <time>2019-02-24T14:16:06Z</time>
      </trkpt>
      <trkpt lat="46.66518" lon="12.18646">
        <ele>2501.49</ele>
        <time>2019-02-24T14:16:09Z</time>
      </trkpt>
      <trkpt lat="46.66514" lon="12.18646">
        <ele>2497.64</ele>
        <time>2019-02-24T14:16:11Z</time>
      </trkpt>
      <trkpt lat="46.66499" lon="12.18659">
        <ele>2494.76</ele>
        <time>2019-02-24T14:16:19Z</time>
      </trkpt>
      <trkpt lat="46.665" lon="12.18659">
        <ele>2494.76</ele>
        <time>2019-02-24T14:16:26Z</time>
      </trkpt>
      <trkpt lat="46.66494" lon="12.18662">
        <ele>2493.32</ele>
        <time>2019-02-24T14:16:29Z</time>
      </trkpt>
      <trkpt lat="46.66494" lon="12.18645">
        <ele>2489.47</ele>
        <time>2019-02-24T14:16:33Z</time>
      </trkpt>
      <trkpt lat="46.66498" lon="12.18639">
        <ele>2488.03</ele>
        <time>2019-02-24T14:16:35Z</time>
      </trkpt>
      <trkpt lat="46.66492" lon="12.18632">
        <ele>2484.18</ele>
        <time>2019-02-24T14:16:37Z</time>
      </trkpt>
      <trkpt lat="46.66482" lon="12.18634">
        <ele>2480.82</ele>
        <time>2019-02-24T14:16:41Z</time>
      </trkpt>
      <trkpt lat="46.66479" lon="12.18624">
        <ele>2477.94</ele>
        <time>2019-02-24T14:16:44Z</time>
      </trkpt>
      <trkpt lat="46.6648" lon="12.18618">
        <ele>2473.61</ele>
        <time>2019-02-24T14:16:46Z</time>
      </trkpt>
      <trkpt lat="46.66479" lon="12.18617">
        <ele>2472.65</ele>
        <time>2019-02-24T14:16:48Z</time>
      </trkpt>
      <trkpt lat="46.66479" lon="12.18616">
        <ele>2472.65</ele>
        <time>2019-02-24T14:16:50Z</time>
      </trkpt>
      <trkpt lat="46.66474" lon="12.18613">
        <ele>2470.24</ele>
        <time>2019-02-24T14:16:54Z</time>
      </trkpt>
      <trkpt lat="46.66473" lon="12.18606">
        <ele>2468.8</ele>
        <time>2019-02-24T14:17:03Z</time>
      </trkpt>
      <trkpt lat="46.66475" lon="12.18603">
        <ele>2468.32</ele>
        <time>2019-02-24T14:17:28Z</time>
      </trkpt>
      <trkpt lat="46.66474" lon="12.18602">
        <ele>2468.32</ele>
        <time>2019-02-24T14:17:58Z</time>
      </trkpt>
      <trkpt lat="46.66474" lon="12.18604">
        <ele>2468.32</ele>
        <time>2019-02-24T14:18:27Z</time>
      </trkpt>
      <trkpt lat="46.66473" lon="12.18605">
        <ele>2468.32</ele>
        <time>2019-02-24T14:19:04Z</time>
      </trkpt>
      <trkpt lat="46.66474" lon="12.18603">
        <ele>2467.84</ele>
        <time>2019-02-24T14:19:36Z</time>
      </trkpt>
      <trkpt lat="46.66474" lon="12.18604">
        <ele>2467.84</ele>
        <time>2019-02-24T14:20:12Z</time>
      </trkpt>
      <trkpt lat="46.66473" lon="12.18602">
        <ele>2467.36</ele>
        <time>2019-02-24T14:20:48Z</time>
      </trkpt>
      <trkpt lat="46.66475" lon="12.18603">
        <ele>2467.36</ele>
        <time>2019-02-24T14:21:10Z</time>
      </trkpt>
      <trkpt lat="46.66474" lon="12.18603">
        <ele>2467.36</ele>
        <time>2019-02-24T14:21:36Z</time>
      </trkpt>
      <trkpt lat="46.66475" lon="12.18604">
        <ele>2467.36</ele>
        <time>2019-02-24T14:22:05Z</time>
      </trkpt>
      <trkpt lat="46.66474" lon="12.186">
        <ele>2466.88</ele>
        <time>2019-02-24T14:22:38Z</time>
      </trkpt>
      <trkpt lat="46.66475" lon="12.18603">
        <ele>2466.88</ele>
        <time>2019-02-24T14:23:02Z</time>
      </trkpt>
      <trkpt lat="46.66475" lon="12.18601">
        <ele>2466.4</ele>
        <time>2019-02-24T14:23:29Z</time>
      </trkpt>
      <trkpt lat="46.66474" lon="12.18601">
        <ele>2466.88</ele>
        <time>2019-02-24T14:23:53Z</time>
      </trkpt>
      <trkpt lat="46.66474" lon="12.186">
        <ele>2466.88</ele>
        <time>2019-02-24T14:24:16Z</time>
      </trkpt>
      <trkpt lat="46.66473" lon="12.18601">
        <ele>2466.88</ele>
        <time>2019-02-24T14:24:43Z</time>
      </trkpt>
      <trkpt lat="46.66474" lon="12.18601">
        <ele>2466.88</ele>
        <time>2019-02-24T14:25:10Z</time>
      </trkpt>
      <trkpt lat="46.66474" lon="12.18601">
        <ele>2466.88</ele>
        <time>2019-02-24T14:25:41Z</time>
      </trkpt>
      <trkpt lat="46.66473" lon="12.18601">
        <ele>2466.4</ele>
        <time>2019-02-24T14:26:07Z</time>
      </trkpt>
      <trkpt lat="46.66473" lon="12.186">
        <ele>2466.4</ele>
        <time>2019-02-24T14:26:33Z</time>
      </trkpt>
      <trkpt lat="46.66472" lon="12.186">
        <ele>2465.92</ele>
        <time>2019-02-24T14:26:54Z</time>
      </trkpt>
      <trkpt lat="46.66472" lon="12.18601">
        <ele>2466.4</ele>
        <time>2019-02-24T14:27:19Z</time>
      </trkpt>
      <trkpt lat="46.66472" lon="12.18601">
        <ele>2465.92</ele>
        <time>2019-02-24T14:27:24Z</time>
      </trkpt>
      <trkpt lat="46.6646" lon="12.18605">
        <ele>2462.55</ele>
        <time>2019-02-24T14:27:28Z</time>
      </trkpt>
      <trkpt lat="46.66457" lon="12.1861">
        <ele>2462.07</ele>
        <time>2019-02-24T14:27:29Z</time>
      </trkpt>
      <trkpt lat="46.66445" lon="12.18632">
        <ele>2459.19</ele>
        <time>2019-02-24T14:27:36Z</time>
      </trkpt>
      <trkpt lat="46.66441" lon="12.18624">
        <ele>2455.82</ele>
        <time>2019-02-24T14:27:39Z</time>
      </trkpt>
      <trkpt lat="46.66442" lon="12.18619">
        <ele>2453.9</ele>
        <time>2019-02-24T14:27:40Z</time>
      </trkpt>
      <trkpt lat="46.66431" lon="12.18624">
        <ele>2450.54</ele>
        <time>2019-02-24T14:27:44Z</time>
      </trkpt>
      <trkpt lat="46.66415" lon="12.18661">
        <ele>2447.17</ele>
        <time>2019-02-24T14:27:54Z</time>
      </trkpt>
      <trkpt lat="46.66412" lon="12.18656">
        <ele>2443.81</ele>
        <time>2019-02-24T14:27:59Z</time>
      </trkpt>
      <trkpt lat="46.66412" lon="12.18653">
        <ele>2443.33</ele>
        <time>2019-02-24T14:28:18Z</time>
      </trkpt>
      <trkpt lat="46.66413" lon="12.18652">
        <ele>2443.33</ele>
        <time>2019-02-24T14:28:46Z</time>
      </trkpt>
      <trkpt lat="46.66413" lon="12.18654">
        <ele>2443.33</ele>
        <time>2019-02-24T14:29:10Z</time>
      </trkpt>
      <trkpt lat="46.66412" lon="12.18651">
        <ele>2442.85</ele>
        <time>2019-02-24T14:29:24Z</time>
      </trkpt>
      <trkpt lat="46.66405" lon="12.18645">
        <ele>2439.48</ele>
        <time>2019-02-24T14:29:28Z</time>
      </trkpt>
      <trkpt lat="46.66398" lon="12.18659">
        <ele>2437.56</ele>
        <time>2019-02-24T14:29:31Z</time>
      </trkpt>
      <trkpt lat="46.66396" lon="12.1865">
        <ele>2434.2</ele>
        <time>2019-02-24T14:29:34Z</time>
      </trkpt>
      <trkpt lat="46.66396" lon="12.18649">
        <ele>2433.23</ele>
        <time>2019-02-24T14:29:36Z</time>
      </trkpt>
      <trkpt lat="46.66396" lon="12.18645">
        <ele>2432.75</ele>
        <time>2019-02-24T14:30:05Z</time>
      </trkpt>
      <trkpt lat="46.66396" lon="12.18644">
        <ele>2432.75</ele>
        <time>2019-02-24T14:30:26Z</time>
      </trkpt>
      <trkpt lat="46.66395" lon="12.18646">
        <ele>2432.75</ele>
        <time>2019-02-24T14:30:35Z</time>
      </trkpt>
      <trkpt lat="46.66386" lon="12.18658">
        <ele>2429.87</ele>
        <time>2019-02-24T14:30:39Z</time>
      </trkpt>
      <trkpt lat="46.66381" lon="12.18676">
        <ele>2427.95</ele>
        <time>2019-02-24T14:30:42Z</time>
      </trkpt>
      <trkpt lat="46.66373" lon="12.1867">
        <ele>2422.18</ele>
        <time>2019-02-24T14:30:46Z</time>
      </trkpt>
      <trkpt lat="46.66367" lon="12.18672">
        <ele>2418.33</ele>
        <time>2019-02-24T14:30:48Z</time>
      </trkpt>
      <trkpt lat="46.66363" lon="12.18668">
        <ele>2414.01</ele>
        <time>2019-02-24T14:30:51Z</time>
      </trkpt>
      <trkpt lat="46.66364" lon="12.18656">
        <ele>2412.57</ele>
        <time>2019-02-24T14:30:53Z</time>
      </trkpt>
      <trkpt lat="46.66364" lon="12.18643">
        <ele>2410.64</ele>
        <time>2019-02-24T14:31:02Z</time>
      </trkpt>
      <trkpt lat="46.66362" lon="12.1863">
        <ele>2411.12</ele>
        <time>2019-02-24T14:31:18Z</time>
      </trkpt>
      <trkpt lat="46.66349" lon="12.18636">
        <ele>2404.88</ele>
        <time>2019-02-24T14:31:22Z</time>
      </trkpt>
      <trkpt lat="46.66346" lon="12.18647">
        <ele>2403.43</ele>
        <time>2019-02-24T14:31:24Z</time>
      </trkpt>
      <trkpt lat="46.66344" lon="12.18658">
        <ele>2402.47</ele>
        <time>2019-02-24T14:31:26Z</time>
      </trkpt>
      <trkpt lat="46.66335" lon="12.18651">
        <ele>2397.18</ele>
        <time>2019-02-24T14:31:30Z</time>
      </trkpt>
      <trkpt lat="46.66321" lon="12.18654">
        <ele>2389.49</ele>
        <time>2019-02-24T14:31:34Z</time>
      </trkpt>
      <trkpt lat="46.66316" lon="12.18643">
        <ele>2386.13</ele>
        <time>2019-02-24T14:31:36Z</time>
      </trkpt>
      <trkpt lat="46.66311" lon="12.18651">
        <ele>2382.76</ele>
        <time>2019-02-24T14:31:38Z</time>
      </trkpt>
      <trkpt lat="46.66306" lon="12.18672">
        <ele>2380.84</ele>
        <time>2019-02-24T14:31:47Z</time>
      </trkpt>
      <trkpt lat="46.66306" lon="12.18672">
        <ele>2381.8</ele>
        <time>2019-02-24T14:32:07Z</time>
      </trkpt>
      <trkpt lat="46.66307" lon="12.18672">
        <ele>2381.32</ele>
        <time>2019-02-24T14:32:32Z</time>
      </trkpt>
      <trkpt lat="46.66305" lon="12.18671">
        <ele>2381.32</ele>
        <time>2019-02-24T14:32:55Z</time>
      </trkpt>
      <trkpt lat="46.66304" lon="12.18673">
        <ele>2381.32</ele>
        <time>2019-02-24T14:33:19Z</time>
      </trkpt>
      <trkpt lat="46.66304" lon="12.18672">
        <ele>2380.84</ele>
        <time>2019-02-24T14:33:45Z</time>
      </trkpt>
      <trkpt lat="46.66305" lon="12.18673">
        <ele>2380.84</ele>
        <time>2019-02-24T14:34:09Z</time>
      </trkpt>
      <trkpt lat="46.66305" lon="12.18671">
        <ele>2381.32</ele>
        <time>2019-02-24T14:34:34Z</time>
      </trkpt>
      <trkpt lat="46.66305" lon="12.18671">
        <ele>2381.32</ele>
        <time>2019-02-24T14:35:01Z</time>
      </trkpt>
      <trkpt lat="46.66304" lon="12.18672">
        <ele>2381.32</ele>
        <time>2019-02-24T14:35:26Z</time>
      </trkpt>
      <trkpt lat="46.66304" lon="12.18671">
        <ele>2381.8</ele>
        <time>2019-02-24T14:35:53Z</time>
      </trkpt>
      <trkpt lat="46.66304" lon="12.18671">
        <ele>2381.8</ele>
        <time>2019-02-24T14:36:15Z</time>
      </trkpt>
      <trkpt lat="46.66298" lon="12.1868">
        <ele>2379.88</ele>
        <time>2019-02-24T14:36:18Z</time>
      </trkpt>
      <trkpt lat="46.66288" lon="12.18669">
        <ele>2376.52</ele>
        <time>2019-02-24T14:36:21Z</time>
      </trkpt>
      <trkpt lat="46.66288" lon="12.18653">
        <ele>2372.67</ele>
        <time>2019-02-24T14:36:23Z</time>
      </trkpt>
      <trkpt lat="46.66278" lon="12.18635">
        <ele>2368.83</ele>
        <time>2019-02-24T14:36:26Z</time>
      </trkpt>
      <trkpt lat="46.66276" lon="12.1863">
        <ele>2367.38</ele>
        <time>2019-02-24T14:36:27Z</time>
      </trkpt>
      <trkpt lat="46.66277" lon="12.18625">
        <ele>2365.94</ele>
        <time>2019-02-24T14:36:30Z</time>
      </trkpt>
      <trkpt lat="46.66277" lon="12.18628">
        <ele>2365.46</ele>
        <time>2019-02-24T14:36:49Z</time>
      </trkpt>
      <trkpt lat="46.66278" lon="12.18631">
        <ele>2365.94</ele>
        <time>2019-02-24T14:37:16Z</time>
      </trkpt>
      <trkpt lat="46.6628" lon="12.18631">
        <ele>2365.94</ele>
        <time>2019-02-24T14:37:40Z</time>
      </trkpt>
      <trkpt lat="46.6628" lon="12.18631">
        <ele>2366.42</ele>
        <time>2019-02-24T14:38:00Z</time>
      </trkpt>
      <trkpt lat="46.66279" lon="12.1863">
        <ele>2366.42</ele>
        <time>2019-02-24T14:38:01Z</time>
      </trkpt>
      <trkpt lat="46.66275" lon="12.18629">
        <ele>2365.46</ele>
        <time>2019-02-24T14:38:03Z</time>
      </trkpt>
      <trkpt lat="46.6627" lon="12.18633">
        <ele>2364.5</ele>
        <time>2019-02-24T14:38:04Z</time>
      </trkpt>
      <trkpt lat="46.66267" lon="12.18639">
        <ele>2363.06</ele>
        <time>2019-02-24T14:38:05Z</time>
      </trkpt>
      <trkpt lat="46.66263" lon="12.18646">
        <ele>2360.65</ele>
        <time>2019-02-24T14:38:06Z</time>
      </trkpt>
      <trkpt lat="46.66247" lon="12.1868">
        <ele>2357.29</ele>
        <time>2019-02-24T14:38:12Z</time>
      </trkpt>
      <trkpt lat="46.66243" lon="12.18687">
        <ele>2356.33</ele>
        <time>2019-02-24T14:38:14Z</time>
      </trkpt>
      <trkpt lat="46.66233" lon="12.18673">
        <ele>2352.96</ele>
        <time>2019-02-24T14:38:17Z</time>
      </trkpt>
      <trkpt lat="46.6623" lon="12.1867">
        <ele>2349.6</ele>
        <time>2019-02-24T14:38:18Z</time>
      </trkpt>
      <trkpt lat="46.66227" lon="12.18671">
        <ele>2348.64</ele>
        <time>2019-02-24T14:38:19Z</time>
      </trkpt>
      <trkpt lat="46.66224" lon="12.18676">
        <ele>2347.68</ele>
        <time>2019-02-24T14:38:20Z</time>
      </trkpt>
      <trkpt lat="46.66221" lon="12.18681">
        <ele>2347.2</ele>
        <time>2019-02-24T14:38:21Z</time>
      </trkpt>
      <trkpt lat="46.66217" lon="12.18685">
        <ele>2346.23</ele>
        <time>2019-02-24T14:38:22Z</time>
      </trkpt>
      <trkpt lat="46.66213" lon="12.18685">
        <ele>2346.23</ele>
        <time>2019-02-24T14:38:23Z</time>
      </trkpt>
      <trkpt lat="46.6621" lon="12.1868">
        <ele>2343.83</ele>
        <time>2019-02-24T14:38:24Z</time>
      </trkpt>
      <trkpt lat="46.66205" lon="12.18676">
        <ele>2340.95</ele>
        <time>2019-02-24T14:38:25Z</time>
      </trkpt>
      <trkpt lat="46.66201" lon="12.18678">
        <ele>2339.51</ele>
        <time>2019-02-24T14:38:26Z</time>
      </trkpt>
      <trkpt lat="46.66196" lon="12.18682">
        <ele>2338.06</ele>
        <time>2019-02-24T14:38:27Z</time>
      </trkpt>
      <trkpt lat="46.66192" lon="12.18687">
        <ele>2338.06</ele>
        <time>2019-02-24T14:38:28Z</time>
      </trkpt>
      <trkpt lat="46.66179" lon="12.187">
        <ele>2335.66</ele>
        <time>2019-02-24T14:38:31Z</time>
      </trkpt>
      <trkpt lat="46.66163" lon="12.18719">
        <ele>2331.81</ele>
        <time>2019-02-24T14:38:35Z</time>
      </trkpt>
      <trkpt lat="46.66148" lon="12.18735">
        <ele>2329.89</ele>
        <time>2019-02-24T14:38:38Z</time>
      </trkpt>
      <trkpt lat="46.6613" lon="12.18759">
        <ele>2326.53</ele>
        <time>2019-02-24T14:38:43Z</time>
      </trkpt>
      <trkpt lat="46.66125" lon="12.18769">
        <ele>2325.57</ele>
        <time>2019-02-24T14:38:45Z</time>
      </trkpt>
      <trkpt lat="46.66122" lon="12.18774">
        <ele>2325.09</ele>
        <time>2019-02-24T14:38:46Z</time>
      </trkpt>
      <trkpt lat="46.66112" lon="12.18783">
        <ele>2323.16</ele>
        <time>2019-02-24T14:38:49Z</time>
      </trkpt>
      <trkpt lat="46.66109" lon="12.18765">
        <ele>2318.84</ele>
        <time>2019-02-24T14:38:52Z</time>
      </trkpt>
      <trkpt lat="46.66111" lon="12.18756">
        <ele>2316.43</ele>
        <time>2019-02-24T14:38:58Z</time>
      </trkpt>
      <trkpt lat="46.66112" lon="12.18754">
        <ele>2316.43</ele>
        <time>2019-02-24T14:39:21Z</time>
      </trkpt>
      <trkpt lat="46.66114" lon="12.18753">
        <ele>2316.43</ele>
        <time>2019-02-24T14:39:40Z</time>
      </trkpt>
      <trkpt lat="46.66112" lon="12.18754">
        <ele>2315.95</ele>
        <time>2019-02-24T14:40:06Z</time>
      </trkpt>
      <trkpt lat="46.66111" lon="12.18754">
        <ele>2316.43</ele>
        <time>2019-02-24T14:40:42Z</time>
      </trkpt>
      <trkpt lat="46.66111" lon="12.18753">
        <ele>2316.43</ele>
        <time>2019-02-24T14:41:15Z</time>
      </trkpt>
      <trkpt lat="46.66111" lon="12.18754">
        <ele>2315.95</ele>
        <time>2019-02-24T14:41:52Z</time>
      </trkpt>
      <trkpt lat="46.66111" lon="12.18754">
        <ele>2315.47</ele>
        <time>2019-02-24T14:42:20Z</time>
      </trkpt>
      <trkpt lat="46.66111" lon="12.18754">
        <ele>2314.99</ele>
        <time>2019-02-24T14:42:48Z</time>
      </trkpt>
      <trkpt lat="46.6611" lon="12.18753">
        <ele>2314.99</ele>
        <time>2019-02-24T14:43:11Z</time>
      </trkpt>
      <trkpt lat="46.66111" lon="12.18753">
        <ele>2315.47</ele>
        <time>2019-02-24T14:43:37Z</time>
      </trkpt>
      <trkpt lat="46.66111" lon="12.18753">
        <ele>2315.47</ele>
        <time>2019-02-24T14:43:54Z</time>
      </trkpt>
      <trkpt lat="46.6611" lon="12.18754">
        <ele>2314.99</ele>
        <time>2019-02-24T14:44:13Z</time>
      </trkpt>
      <trkpt lat="46.66109" lon="12.18755">
        <ele>2315.47</ele>
        <time>2019-02-24T14:44:24Z</time>
      </trkpt>
      <trkpt lat="46.66112" lon="12.18756">
        <ele>2315.47</ele>
        <time>2019-02-24T14:44:47Z</time>
      </trkpt>
      <trkpt lat="46.66111" lon="12.18755">
        <ele>2315.47</ele>
        <time>2019-02-24T14:45:14Z</time>
      </trkpt>
      <trkpt lat="46.66107" lon="12.18754">
        <ele>2314.03</ele>
        <time>2019-02-24T14:45:16Z</time>
      </trkpt>
      <trkpt lat="46.66102" lon="12.18757">
        <ele>2313.07</ele>
        <time>2019-02-24T14:45:17Z</time>
      </trkpt>
      <trkpt lat="46.66098" lon="12.18762">
        <ele>2312.11</ele>
        <time>2019-02-24T14:45:18Z</time>
      </trkpt>
      <trkpt lat="46.66092" lon="12.18767">
        <ele>2310.67</ele>
        <time>2019-02-24T14:45:19Z</time>
      </trkpt>
      <trkpt lat="46.66087" lon="12.18771">
        <ele>2310.19</ele>
        <time>2019-02-24T14:45:20Z</time>
      </trkpt>
      <trkpt lat="46.66083" lon="12.18774">
        <ele>2309.22</ele>
        <time>2019-02-24T14:45:21Z</time>
      </trkpt>
      <trkpt lat="46.66079" lon="12.18776">
        <ele>2309.22</ele>
        <time>2019-02-24T14:45:22Z</time>
      </trkpt>
      <trkpt lat="46.66074" lon="12.1878">
        <ele>2308.26</ele>
        <time>2019-02-24T14:45:23Z</time>
      </trkpt>
      <trkpt lat="46.66071" lon="12.18784">
        <ele>2306.82</ele>
        <time>2019-02-24T14:45:24Z</time>
      </trkpt>
      <trkpt lat="46.66068" lon="12.18789">
        <ele>2305.86</ele>
        <time>2019-02-24T14:45:25Z</time>
      </trkpt>
      <trkpt lat="46.66065" lon="12.18793">
        <ele>2305.38</ele>
        <time>2019-02-24T14:45:26Z</time>
      </trkpt>
      <trkpt lat="46.66063" lon="12.18794">
        <ele>2304.42</ele>
        <time>2019-02-24T14:45:27Z</time>
      </trkpt>
      <trkpt lat="46.66061" lon="12.18792">
        <ele>2304.42</ele>
        <time>2019-02-24T14:45:28Z</time>
      </trkpt>
      <trkpt lat="46.6606" lon="12.18781">
        <ele>2300.09</ele>
        <time>2019-02-24T14:45:30Z</time>
      </trkpt>
      <trkpt lat="46.66055" lon="12.18782">
        <ele>2296.73</ele>
        <time>2019-02-24T14:45:32Z</time>
      </trkpt>
      <trkpt lat="46.66053" lon="12.18786">
        <ele>2295.77</ele>
        <time>2019-02-24T14:45:33Z</time>
      </trkpt>
      <trkpt lat="46.66051" lon="12.18788">
        <ele>2295.28</ele>
        <time>2019-02-24T14:45:34Z</time>
      </trkpt>
      <trkpt lat="46.66049" lon="12.18786">
        <ele>2295.28</ele>
        <time>2019-02-24T14:45:35Z</time>
      </trkpt>
      <trkpt lat="46.6605" lon="12.18772">
        <ele>2292.4</ele>
        <time>2019-02-24T14:45:37Z</time>
      </trkpt>
      <trkpt lat="46.6605" lon="12.18767">
        <ele>2290.96</ele>
        <time>2019-02-24T14:45:38Z</time>
      </trkpt>
      <trkpt lat="46.6605" lon="12.18762">
        <ele>2290.96</ele>
        <time>2019-02-24T14:45:39Z</time>
      </trkpt>
      <trkpt lat="46.66043" lon="12.18762">
        <ele>2288.56</ele>
        <time>2019-02-24T14:45:41Z</time>
      </trkpt>
      <trkpt lat="46.6604" lon="12.18767">
        <ele>2287.59</ele>
        <time>2019-02-24T14:45:42Z</time>
      </trkpt>
      <trkpt lat="46.66039" lon="12.18772">
        <ele>2286.63</ele>
        <time>2019-02-24T14:45:43Z</time>
      </trkpt>
      <trkpt lat="46.66038" lon="12.18776">
        <ele>2287.11</ele>
        <time>2019-02-24T14:45:44Z</time>
      </trkpt>
      <trkpt lat="46.66036" lon="12.1878">
        <ele>2286.63</ele>
        <time>2019-02-24T14:45:45Z</time>
      </trkpt>
      <trkpt lat="46.66035" lon="12.18784">
        <ele>2286.15</ele>
        <time>2019-02-24T14:45:46Z</time>
      </trkpt>
      <trkpt lat="46.66026" lon="12.18804">
        <ele>2284.23</ele>
        <time>2019-02-24T14:45:51Z</time>
      </trkpt>
      <trkpt lat="46.66022" lon="12.18806">
        <ele>2283.75</ele>
        <time>2019-02-24T14:45:52Z</time>
      </trkpt>
      <trkpt lat="46.66014" lon="12.18809">
        <ele>2282.31</ele>
        <time>2019-02-24T14:45:54Z</time>
      </trkpt>
      <trkpt lat="46.6601" lon="12.18811">
        <ele>2281.83</ele>
        <time>2019-02-24T14:45:55Z</time>
      </trkpt>
      <trkpt lat="46.66005" lon="12.18809">
        <ele>2281.35</ele>
        <time>2019-02-24T14:45:56Z</time>
      </trkpt>
      <trkpt lat="46.66004" lon="12.18798">
        <ele>2277.98</ele>
        <time>2019-02-24T14:45:58Z</time>
      </trkpt>
      <trkpt lat="46.66007" lon="12.18795">
        <ele>2277.5</ele>
        <time>2019-02-24T14:46:09Z</time>
      </trkpt>
      <trkpt lat="46.66008" lon="12.18794">
        <ele>2277.02</ele>
        <time>2019-02-24T14:46:30Z</time>
      </trkpt>
      <trkpt lat="46.66009" lon="12.18796">
        <ele>2277.02</ele>
        <time>2019-02-24T14:46:48Z</time>
      </trkpt>
      <trkpt lat="46.66009" lon="12.18796">
        <ele>2277.02</ele>
        <time>2019-02-24T14:47:14Z</time>
      </trkpt>
      <trkpt lat="46.66009" lon="12.18797">
        <ele>2277.5</ele>
        <time>2019-02-24T14:47:40Z</time>
      </trkpt>
      <trkpt lat="46.66009" lon="12.18795">
        <ele>2277.02</ele>
        <time>2019-02-24T14:48:07Z</time>
      </trkpt>
      <trkpt lat="46.66009" lon="12.18796">
        <ele>2277.02</ele>
        <time>2019-02-24T14:48:21Z</time>
      </trkpt>
      <trkpt lat="46.66009" lon="12.18796">
        <ele>2276.54</ele>
        <time>2019-02-24T14:48:41Z</time>
      </trkpt>
      <trkpt lat="46.66009" lon="12.18796">
        <ele>2276.54</ele>
        <time>2019-02-24T14:49:05Z</time>
      </trkpt>
      <trkpt lat="46.66009" lon="12.18797">
        <ele>2276.54</ele>
        <time>2019-02-24T14:49:26Z</time>
      </trkpt>
      <trkpt lat="46.66008" lon="12.18798">
        <ele>2276.06</ele>
        <time>2019-02-24T14:49:44Z</time>
      </trkpt>
      <trkpt lat="46.66006" lon="12.18799">
        <ele>2276.06</ele>
        <time>2019-02-24T14:49:54Z</time>
      </trkpt>
      <trkpt lat="46.66003" lon="12.18798">
        <ele>2275.58</ele>
        <time>2019-02-24T14:49:56Z</time>
      </trkpt>
      <trkpt lat="46.66001" lon="12.188">
        <ele>2274.62</ele>
        <time>2019-02-24T14:49:57Z</time>
      </trkpt>
      <trkpt lat="46.66" lon="12.18803">
        <ele>2274.62</ele>
        <time>2019-02-24T14:49:58Z</time>
      </trkpt>
      <trkpt lat="46.66" lon="12.18806">
        <ele>2274.62</ele>
        <time>2019-02-24T14:49:59Z</time>
      </trkpt>
      <trkpt lat="46.65999" lon="12.18808">
        <ele>2274.62</ele>
        <time>2019-02-24T14:50:00Z</time>
      </trkpt>
      <trkpt lat="46.65997" lon="12.18811">
        <ele>2274.14</ele>
        <time>2019-02-24T14:50:01Z</time>
      </trkpt>
      <trkpt lat="46.65992" lon="12.18813">
        <ele>2274.14</ele>
        <time>2019-02-24T14:50:02Z</time>
      </trkpt>
      <trkpt lat="46.65987" lon="12.18815">
        <ele>2273.17</ele>
        <time>2019-02-24T14:50:03Z</time>
      </trkpt>
      <trkpt lat="46.65982" lon="12.18816">
        <ele>2272.21</ele>
        <time>2019-02-24T14:50:04Z</time>
      </trkpt>
      <trkpt lat="46.65978" lon="12.18817">
        <ele>2271.73</ele>
        <time>2019-02-24T14:50:05Z</time>
      </trkpt>
      <trkpt lat="46.65975" lon="12.18816">
        <ele>2271.73</ele>
        <time>2019-02-24T14:50:06Z</time>
      </trkpt>
      <trkpt lat="46.65973" lon="12.18812">
        <ele>2271.25</ele>
        <time>2019-02-24T14:50:07Z</time>
      </trkpt>
      <trkpt lat="46.65972" lon="12.18805">
        <ele>2270.29</ele>
        <time>2019-02-24T14:50:09Z</time>
      </trkpt>
      <trkpt lat="46.65968" lon="12.18802">
        <ele>2268.37</ele>
        <time>2019-02-24T14:50:12Z</time>
      </trkpt>
      <trkpt lat="46.65964" lon="12.18804">
        <ele>2266.93</ele>
        <time>2019-02-24T14:50:14Z</time>
      </trkpt>
      <trkpt lat="46.65962" lon="12.18805">
        <ele>2267.89</ele>
        <time>2019-02-24T14:50:15Z</time>
      </trkpt>
      <trkpt lat="46.65959" lon="12.18805">
        <ele>2266.93</ele>
        <time>2019-02-24T14:50:16Z</time>
      </trkpt>
      <trkpt lat="46.65955" lon="12.18805">
        <ele>2265.96</ele>
        <time>2019-02-24T14:50:17Z</time>
      </trkpt>
      <trkpt lat="46.6595" lon="12.18805">
        <ele>2264.52</ele>
        <time>2019-02-24T14:50:18Z</time>
      </trkpt>
      <trkpt lat="46.65945" lon="12.18807">
        <ele>2263.08</ele>
        <time>2019-02-24T14:50:19Z</time>
      </trkpt>
      <trkpt lat="46.6594" lon="12.1881">
        <ele>2262.6</ele>
        <time>2019-02-24T14:50:20Z</time>
      </trkpt>
      <trkpt lat="46.65936" lon="12.18812">
        <ele>2263.08</ele>
        <time>2019-02-24T14:50:21Z</time>
      </trkpt>
      <trkpt lat="46.65933" lon="12.18812">
        <ele>2264.04</ele>
        <time>2019-02-24T14:50:22Z</time>
      </trkpt>
      <trkpt lat="46.6593" lon="12.1881">
        <ele>2262.6</ele>
        <time>2019-02-24T14:50:25Z</time>
      </trkpt>
      <trkpt lat="46.65928" lon="12.18812">
        <ele>2262.12</ele>
        <time>2019-02-24T14:50:34Z</time>
      </trkpt>
      <trkpt lat="46.65928" lon="12.18812">
        <ele>2261.64</ele>
        <time>2019-02-24T14:50:48Z</time>
      </trkpt>
      <trkpt lat="46.65928" lon="12.18812">
        <ele>2261.64</ele>
        <time>2019-02-24T14:50:52Z</time>
      </trkpt>
      <trkpt lat="46.65925" lon="12.18812">
        <ele>2261.16</ele>
        <time>2019-02-24T14:50:54Z</time>
      </trkpt>
      <trkpt lat="46.65922" lon="12.18812">
        <ele>2260.2</ele>
        <time>2019-02-24T14:50:55Z</time>
      </trkpt>
      <trkpt lat="46.65919" lon="12.1881">
        <ele>2260.68</ele>
        <time>2019-02-24T14:50:56Z</time>
      </trkpt>
      <trkpt lat="46.65914" lon="12.18806">
        <ele>2260.2</ele>
        <time>2019-02-24T14:50:57Z</time>
      </trkpt>
      <trkpt lat="46.65908" lon="12.18803">
        <ele>2257.31</ele>
        <time>2019-02-24T14:50:58Z</time>
      </trkpt>
      <trkpt lat="46.65901" lon="12.188">
        <ele>2255.39</ele>
        <time>2019-02-24T14:50:59Z</time>
      </trkpt>
      <trkpt lat="46.65895" lon="12.18797">
        <ele>2252.99</ele>
        <time>2019-02-24T14:51:00Z</time>
      </trkpt>
      <trkpt lat="46.65887" lon="12.18795">
        <ele>2252.03</ele>
        <time>2019-02-24T14:51:01Z</time>
      </trkpt>
      <trkpt lat="46.65881" lon="12.18794">
        <ele>2251.54</ele>
        <time>2019-02-24T14:51:02Z</time>
      </trkpt>
      <trkpt lat="46.65874" lon="12.18794">
        <ele>2249.62</ele>
        <time>2019-02-24T14:51:03Z</time>
      </trkpt>
      <trkpt lat="46.65862" lon="12.18793">
        <ele>2247.7</ele>
        <time>2019-02-24T14:51:05Z</time>
      </trkpt>
      <trkpt lat="46.65858" lon="12.18795">
        <ele>2248.66</ele>
        <time>2019-02-24T14:51:06Z</time>
      </trkpt>
      <trkpt lat="46.65855" lon="12.18797">
        <ele>2248.18</ele>
        <time>2019-02-24T14:51:07Z</time>
      </trkpt>
      <trkpt lat="46.65853" lon="12.18799">
        <ele>2247.7</ele>
        <time>2019-02-24T14:51:08Z</time>
      </trkpt>
      <trkpt lat="46.6585" lon="12.18799">
        <ele>2248.18</ele>
        <time>2019-02-24T14:51:09Z</time>
      </trkpt>
      <trkpt lat="46.65843" lon="12.18807">
        <ele>2245.78</ele>
        <time>2019-02-24T14:51:16Z</time>
      </trkpt>
      <trkpt lat="46.65846" lon="12.18807">
        <ele>2245.78</ele>
        <time>2019-02-24T14:51:36Z</time>
      </trkpt>
      <trkpt lat="46.65845" lon="12.18806">
        <ele>2245.3</ele>
        <time>2019-02-24T14:51:51Z</time>
      </trkpt>
      <trkpt lat="46.65833" lon="12.18802">
        <ele>2239.53</ele>
        <time>2019-02-24T14:51:57Z</time>
      </trkpt>
      <trkpt lat="46.65821" lon="12.18805">
        <ele>2235.2</ele>
        <time>2019-02-24T14:52:01Z</time>
      </trkpt>
      <trkpt lat="46.65814" lon="12.18814">
        <ele>2231.84</ele>
        <time>2019-02-24T14:52:06Z</time>
      </trkpt>
      <trkpt lat="46.65813" lon="12.18814">
        <ele>2232.32</ele>
        <time>2019-02-24T14:52:20Z</time>
      </trkpt>
      <trkpt lat="46.65809" lon="12.1881">
        <ele>2230.88</ele>
        <time>2019-02-24T14:52:23Z</time>
      </trkpt>
      <trkpt lat="46.658" lon="12.18811">
        <ele>2227.51</ele>
        <time>2019-02-24T14:52:26Z</time>
      </trkpt>
      <trkpt lat="46.65796" lon="12.18815">
        <ele>2226.55</ele>
        <time>2019-02-24T14:52:27Z</time>
      </trkpt>
      <trkpt lat="46.6579" lon="12.1882">
        <ele>2226.07</ele>
        <time>2019-02-24T14:52:29Z</time>
      </trkpt>
      <trkpt lat="46.65786" lon="12.1881">
        <ele>2222.22</ele>
        <time>2019-02-24T14:52:33Z</time>
      </trkpt>
      <trkpt lat="46.65782" lon="12.18809">
        <ele>2220.78</ele>
        <time>2019-02-24T14:52:39Z</time>
      </trkpt>
      <trkpt lat="46.65782" lon="12.18808">
        <ele>2220.3</ele>
        <time>2019-02-24T14:53:07Z</time>
      </trkpt>
      <trkpt lat="46.65779" lon="12.18809">
        <ele>2219.34</ele>
        <time>2019-02-24T14:53:09Z</time>
      </trkpt>
      <trkpt lat="46.65775" lon="12.18797">
        <ele>2215.01</ele>
        <time>2019-02-24T14:53:13Z</time>
      </trkpt>
      <trkpt lat="46.65764" lon="12.18798">
        <ele>2211.17</ele>
        <time>2019-02-24T14:53:18Z</time>
      </trkpt>
      <trkpt lat="46.65764" lon="12.18779">
        <ele>2207.32</ele>
        <time>2019-02-24T14:53:21Z</time>
      </trkpt>
      <trkpt lat="46.65761" lon="12.18778">
        <ele>2206.84</ele>
        <time>2019-02-24T14:53:22Z</time>
      </trkpt>
      <trkpt lat="46.65759" lon="12.18781">
        <ele>2206.36</ele>
        <time>2019-02-24T14:53:23Z</time>
      </trkpt>
      <trkpt lat="46.65757" lon="12.18785">
        <ele>2206.36</ele>
        <time>2019-02-24T14:53:24Z</time>
      </trkpt>
      <trkpt lat="46.65747" lon="12.18801">
        <ele>2205.88</ele>
        <time>2019-02-24T14:53:33Z</time>
      </trkpt>
      <trkpt lat="46.65747" lon="12.18801">
        <ele>2204.92</ele>
        <time>2019-02-24T14:53:43Z</time>
      </trkpt>
      <trkpt lat="46.65745" lon="12.18802">
        <ele>2205.4</ele>
        <time>2019-02-24T14:53:44Z</time>
      </trkpt>
      <trkpt lat="46.65742" lon="12.18807">
        <ele>2203.96</ele>
        <time>2019-02-24T14:53:54Z</time>
      </trkpt>
      <trkpt lat="46.65742" lon="12.1881">
        <ele>2203.96</ele>
        <time>2019-02-24T14:54:14Z</time>
      </trkpt>
      <trkpt lat="46.65735" lon="12.18816">
        <ele>2202.52</ele>
        <time>2019-02-24T14:54:17Z</time>
      </trkpt>
      <trkpt lat="46.65716" lon="12.18831">
        <ele>2196.75</ele>
        <time>2019-02-24T14:54:21Z</time>
      </trkpt>
      <trkpt lat="46.65704" lon="12.18847">
        <ele>2194.83</ele>
        <time>2019-02-24T14:54:23Z</time>
      </trkpt>
      <trkpt lat="46.65689" lon="12.18848">
        <ele>2190.98</ele>
        <time>2019-02-24T14:54:26Z</time>
      </trkpt>
      <trkpt lat="46.65685" lon="12.18852">
        <ele>2190.98</ele>
        <time>2019-02-24T14:54:27Z</time>
      </trkpt>
      <trkpt lat="46.65682" lon="12.18858">
        <ele>2190.5</ele>
        <time>2019-02-24T14:54:28Z</time>
      </trkpt>
      <trkpt lat="46.65652" lon="12.18885">
        <ele>2185.21</ele>
        <time>2019-02-24T14:54:33Z</time>
      </trkpt>
      <trkpt lat="46.65641" lon="12.1888">
        <ele>2183.77</ele>
        <time>2019-02-24T14:54:35Z</time>
      </trkpt>
      <trkpt lat="46.65613" lon="12.18865">
        <ele>2183.29</ele>
        <time>2019-02-24T14:54:41Z</time>
      </trkpt>
      <trkpt lat="46.65611" lon="12.18865">
        <ele>2182.81</ele>
        <time>2019-02-24T14:54:42Z</time>
      </trkpt>
      <trkpt lat="46.6561" lon="12.18865">
        <ele>2183.29</ele>
        <time>2019-02-24T14:54:56Z</time>
      </trkpt>
      <trkpt lat="46.65611" lon="12.18866">
        <ele>2183.29</ele>
        <time>2019-02-24T14:55:23Z</time>
      </trkpt>
      <trkpt lat="46.65612" lon="12.18868">
        <ele>2183.29</ele>
        <time>2019-02-24T14:55:49Z</time>
      </trkpt>
      <trkpt lat="46.6561" lon="12.18865">
        <ele>2182.81</ele>
        <time>2019-02-24T14:55:56Z</time>
      </trkpt>
      <trkpt lat="46.65607" lon="12.18864">
        <ele>2182.81</ele>
        <time>2019-02-24T14:55:57Z</time>
      </trkpt>
      <trkpt lat="46.65603" lon="12.18863">
        <ele>2181.85</ele>
        <time>2019-02-24T14:55:58Z</time>
      </trkpt>
      <trkpt lat="46.65598" lon="12.18854">
        <ele>2179.45</ele>
        <time>2019-02-24T14:56:01Z</time>
      </trkpt>
      <trkpt lat="46.65595" lon="12.18852">
        <ele>2178</ele>
        <time>2019-02-24T14:56:02Z</time>
      </trkpt>
      <trkpt lat="46.6559" lon="12.18852">
        <ele>2178</ele>
        <time>2019-02-24T14:56:03Z</time>
      </trkpt>
      <trkpt lat="46.65585" lon="12.18853">
        <ele>2176.08</ele>
        <time>2019-02-24T14:56:04Z</time>
      </trkpt>
      <trkpt lat="46.6558" lon="12.18857">
        <ele>2175.12</ele>
        <time>2019-02-24T14:56:05Z</time>
      </trkpt>
      <trkpt lat="46.65575" lon="12.18861">
        <ele>2174.64</ele>
        <time>2019-02-24T14:56:06Z</time>
      </trkpt>
      <trkpt lat="46.6557" lon="12.18865">
        <ele>2174.16</ele>
        <time>2019-02-24T14:56:07Z</time>
      </trkpt>
      <trkpt lat="46.65562" lon="12.18872">
        <ele>2173.68</ele>
        <time>2019-02-24T14:56:09Z</time>
      </trkpt>
      <trkpt lat="46.65559" lon="12.18875">
        <ele>2172.72</ele>
        <time>2019-02-24T14:56:10Z</time>
      </trkpt>
      <trkpt lat="46.65556" lon="12.18877">
        <ele>2173.2</ele>
        <time>2019-02-24T14:56:11Z</time>
      </trkpt>
      <trkpt lat="46.65553" lon="12.18879">
        <ele>2172.72</ele>
        <time>2019-02-24T14:56:12Z</time>
      </trkpt>
      <trkpt lat="46.65551" lon="12.18881">
        <ele>2172.24</ele>
        <time>2019-02-24T14:56:13Z</time>
      </trkpt>
      <trkpt lat="46.6555" lon="12.18883">
        <ele>2172.24</ele>
        <time>2019-02-24T14:56:14Z</time>
      </trkpt>
      <trkpt lat="46.65548" lon="12.18884">
        <ele>2171.76</ele>
        <time>2019-02-24T14:56:16Z</time>
      </trkpt>
      <trkpt lat="46.65547" lon="12.18885">
        <ele>2171.76</ele>
        <time>2019-02-24T14:56:17Z</time>
      </trkpt>
      <trkpt lat="46.65541" lon="12.18885">
        <ele>2170.31</ele>
        <time>2019-02-24T14:56:25Z</time>
      </trkpt>
      <trkpt lat="46.65542" lon="12.18883">
        <ele>2169.83</ele>
        <time>2019-02-24T14:56:45Z</time>
      </trkpt>
      <trkpt lat="46.65541" lon="12.18883">
        <ele>2169.35</ele>
        <time>2019-02-24T14:56:46Z</time>
      </trkpt>
      <trkpt lat="46.65538" lon="12.18884">
        <ele>2169.35</ele>
        <time>2019-02-24T14:56:47Z</time>
      </trkpt>
      <trkpt lat="46.65536" lon="12.18882">
        <ele>2169.35</ele>
        <time>2019-02-24T14:56:48Z</time>
      </trkpt>
      <trkpt lat="46.65532" lon="12.18873">
        <ele>2164.06</ele>
        <time>2019-02-24T14:56:51Z</time>
      </trkpt>
      <trkpt lat="46.65529" lon="12.18876">
        <ele>2163.1</ele>
        <time>2019-02-24T14:56:52Z</time>
      </trkpt>
      <trkpt lat="46.65528" lon="12.18878">
        <ele>2163.1</ele>
        <time>2019-02-24T14:56:53Z</time>
      </trkpt>
      <trkpt lat="46.65527" lon="12.1888">
        <ele>2163.1</ele>
        <time>2019-02-24T14:57:09Z</time>
      </trkpt>
      <trkpt lat="46.65525" lon="12.18879">
        <ele>2163.1</ele>
        <time>2019-02-24T14:57:23Z</time>
      </trkpt>
      <trkpt lat="46.65522" lon="12.18879">
        <ele>2162.62</ele>
        <time>2019-02-24T14:57:24Z</time>
      </trkpt>
      <trkpt lat="46.65517" lon="12.18879">
        <ele>2161.18</ele>
        <time>2019-02-24T14:57:25Z</time>
      </trkpt>
      <trkpt lat="46.65512" lon="12.18878">
        <ele>2159.74</ele>
        <time>2019-02-24T14:57:26Z</time>
      </trkpt>
      <trkpt lat="46.65506" lon="12.18879">
        <ele>2159.26</ele>
        <time>2019-02-24T14:57:27Z</time>
      </trkpt>
      <trkpt lat="46.65501" lon="12.18881">
        <ele>2158.3</ele>
        <time>2019-02-24T14:57:28Z</time>
      </trkpt>
      <trkpt lat="46.65495" lon="12.18884">
        <ele>2157.82</ele>
        <time>2019-02-24T14:57:29Z</time>
      </trkpt>
      <trkpt lat="46.65487" lon="12.18887">
        <ele>2155.89</ele>
        <time>2019-02-24T14:57:30Z</time>
      </trkpt>
      <trkpt lat="46.6548" lon="12.1889">
        <ele>2154.93</ele>
        <time>2019-02-24T14:57:31Z</time>
      </trkpt>
      <trkpt lat="46.65473" lon="12.1889">
        <ele>2154.45</ele>
        <time>2019-02-24T14:57:32Z</time>
      </trkpt>
      <trkpt lat="46.6546" lon="12.18882">
        <ele>2153.01</ele>
        <time>2019-02-24T14:57:34Z</time>
      </trkpt>
      <trkpt lat="46.65444" lon="12.18868">
        <ele>2150.13</ele>
        <time>2019-02-24T14:57:37Z</time>
      </trkpt>
      <trkpt lat="46.65439" lon="12.18859">
        <ele>2150.13</ele>
        <time>2019-02-24T14:57:41Z</time>
      </trkpt>
      <trkpt lat="46.65436" lon="12.1886">
        <ele>2149.16</ele>
        <time>2019-02-24T14:57:42Z</time>
      </trkpt>
      <trkpt lat="46.65433" lon="12.18862">
        <ele>2148.2</ele>
        <time>2019-02-24T14:57:43Z</time>
      </trkpt>
      <trkpt lat="46.65433" lon="12.18852">
        <ele>2146.28</ele>
        <time>2019-02-24T14:57:46Z</time>
      </trkpt>
      <trkpt lat="46.65435" lon="12.18849">
        <ele>2145.32</ele>
        <time>2019-02-24T14:57:48Z</time>
      </trkpt>
      <trkpt lat="46.65437" lon="12.18847">
        <ele>2144.84</ele>
        <time>2019-02-24T14:58:02Z</time>
      </trkpt>
      <trkpt lat="46.65438" lon="12.18847">
        <ele>2144.36</ele>
        <time>2019-02-24T14:58:21Z</time>
      </trkpt>
      <trkpt lat="46.65439" lon="12.18846">
        <ele>2144.84</ele>
        <time>2019-02-24T14:58:39Z</time>
      </trkpt>
      <trkpt lat="46.65448" lon="12.18833">
        <ele>2143.4</ele>
        <time>2019-02-24T14:58:52Z</time>
      </trkpt>
      <trkpt lat="46.65449" lon="12.18831">
        <ele>2143.4</ele>
        <time>2019-02-24T14:58:53Z</time>
      </trkpt>
      <trkpt lat="46.65452" lon="12.18823">
        <ele>2141.95</ele>
        <time>2019-02-24T14:58:56Z</time>
      </trkpt>
      <trkpt lat="46.65451" lon="12.18822">
        <ele>2140.51</ele>
        <time>2019-02-24T14:58:57Z</time>
      </trkpt>
      <trkpt lat="46.65449" lon="12.18823">
        <ele>2140.51</ele>
        <time>2019-02-24T14:58:58Z</time>
      </trkpt>
      <trkpt lat="46.65447" lon="12.18824">
        <ele>2140.03</ele>
        <time>2019-02-24T14:59:06Z</time>
      </trkpt>
      <trkpt lat="46.65445" lon="12.18824">
        <ele>2139.55</ele>
        <time>2019-02-24T14:59:07Z</time>
      </trkpt>
      <trkpt lat="46.65441" lon="12.18825">
        <ele>2139.07</ele>
        <time>2019-02-24T14:59:08Z</time>
      </trkpt>
      <trkpt lat="46.65437" lon="12.18827">
        <ele>2138.11</ele>
        <time>2019-02-24T14:59:09Z</time>
      </trkpt>
      <trkpt lat="46.65433" lon="12.1883">
        <ele>2137.15</ele>
        <time>2019-02-24T14:59:10Z</time>
      </trkpt>
      <trkpt lat="46.65418" lon="12.18844">
        <ele>2134.74</ele>
        <time>2019-02-24T14:59:14Z</time>
      </trkpt>
      <trkpt lat="46.65403" lon="12.18855">
        <ele>2132.82</ele>
        <time>2019-02-24T14:59:20Z</time>
      </trkpt>
      <trkpt lat="46.65399" lon="12.18858">
        <ele>2132.34</ele>
        <time>2019-02-24T14:59:32Z</time>
      </trkpt>
      <trkpt lat="46.65398" lon="12.18858">
        <ele>2132.34</ele>
        <time>2019-02-24T14:59:34Z</time>
      </trkpt>
      <trkpt lat="46.65398" lon="12.18855">
        <ele>2131.86</ele>
        <time>2019-02-24T14:59:35Z</time>
      </trkpt>
      <trkpt lat="46.65404" lon="12.1884">
        <ele>2128.5</ele>
        <time>2019-02-24T14:59:40Z</time>
      </trkpt>
      <trkpt lat="46.65397" lon="12.18837">
        <ele>2126.09</ele>
        <time>2019-02-24T14:59:42Z</time>
      </trkpt>
      <trkpt lat="46.65397" lon="12.18833">
        <ele>2123.69</ele>
        <time>2019-02-24T14:59:52Z</time>
      </trkpt>
      <trkpt lat="46.65398" lon="12.18833">
        <ele>2123.21</ele>
        <time>2019-02-24T15:00:11Z</time>
      </trkpt>
      <trkpt lat="46.65396" lon="12.18824">
        <ele>2121.77</ele>
        <time>2019-02-24T15:00:16Z</time>
      </trkpt>
      <trkpt lat="46.6539" lon="12.18817">
        <ele>2115.52</ele>
        <time>2019-02-24T15:00:19Z</time>
      </trkpt>
      <trkpt lat="46.65378" lon="12.18823">
        <ele>2114.08</ele>
        <time>2019-02-24T15:00:22Z</time>
      </trkpt>
      <trkpt lat="46.65374" lon="12.18816">
        <ele>2111.67</ele>
        <time>2019-02-24T15:00:24Z</time>
      </trkpt>
      <trkpt lat="46.65375" lon="12.1881">
        <ele>2110.71</ele>
        <time>2019-02-24T15:00:25Z</time>
      </trkpt>
      <trkpt lat="46.65373" lon="12.18806">
        <ele>2107.35</ele>
        <time>2019-02-24T15:00:26Z</time>
      </trkpt>
      <trkpt lat="46.65368" lon="12.18802">
        <ele>2105.91</ele>
        <time>2019-02-24T15:00:28Z</time>
      </trkpt>
      <trkpt lat="46.65369" lon="12.18797">
        <ele>2103.98</ele>
        <time>2019-02-24T15:00:31Z</time>
      </trkpt>
      <trkpt lat="46.6537" lon="12.18795">
        <ele>2103.5</ele>
        <time>2019-02-24T15:00:48Z</time>
      </trkpt>
      <trkpt lat="46.65371" lon="12.18791">
        <ele>2103.5</ele>
        <time>2019-02-24T15:01:09Z</time>
      </trkpt>
      <trkpt lat="46.65371" lon="12.18789">
        <ele>2103.5</ele>
        <time>2019-02-24T15:01:31Z</time>
      </trkpt>
      <trkpt lat="46.65372" lon="12.18779">
        <ele>2103.02</ele>
        <time>2019-02-24T15:01:52Z</time>
      </trkpt>
      <trkpt lat="46.65374" lon="12.18774">
        <ele>2102.06</ele>
        <time>2019-02-24T15:01:53Z</time>
      </trkpt>
      <trkpt lat="46.65377" lon="12.18769">
        <ele>2100.62</ele>
        <time>2019-02-24T15:01:54Z</time>
      </trkpt>
      <trkpt lat="46.65379" lon="12.18766">
        <ele>2101.1</ele>
        <time>2019-02-24T15:01:55Z</time>
      </trkpt>
      <trkpt lat="46.65381" lon="12.18763">
        <ele>2100.62</ele>
        <time>2019-02-24T15:01:59Z</time>
      </trkpt>
      <trkpt lat="46.65383" lon="12.1876">
        <ele>2100.14</ele>
        <time>2019-02-24T15:02:00Z</time>
      </trkpt>
      <trkpt lat="46.65385" lon="12.18756">
        <ele>2099.66</ele>
        <time>2019-02-24T15:02:01Z</time>
      </trkpt>
      <trkpt lat="46.65405" lon="12.18726">
        <ele>2095.81</ele>
        <time>2019-02-24T15:02:09Z</time>
      </trkpt>
      <trkpt lat="46.65425" lon="12.18705">
        <ele>2092.93</ele>
        <time>2019-02-24T15:02:18Z</time>
      </trkpt>
      <trkpt lat="46.65425" lon="12.18703">
        <ele>2092.93</ele>
        <time>2019-02-24T15:02:19Z</time>
      </trkpt>
      <trkpt lat="46.65418" lon="12.18697">
        <ele>2090.52</ele>
        <time>2019-02-24T15:02:22Z</time>
      </trkpt>
      <trkpt lat="46.65414" lon="12.18697">
        <ele>2090.04</ele>
        <time>2019-02-24T15:02:23Z</time>
      </trkpt>
      <trkpt lat="46.65411" lon="12.18698">
        <ele>2090.04</ele>
        <time>2019-02-24T15:02:24Z</time>
      </trkpt>
      <trkpt lat="46.65405" lon="12.18697">
        <ele>2089.56</ele>
        <time>2019-02-24T15:02:26Z</time>
      </trkpt>
      <trkpt lat="46.65402" lon="12.1869">
        <ele>2089.08</ele>
        <time>2019-02-24T15:02:28Z</time>
      </trkpt>
      <trkpt lat="46.65402" lon="12.18687">
        <ele>2089.08</ele>
        <time>2019-02-24T15:02:29Z</time>
      </trkpt>
      <trkpt lat="46.65404" lon="12.18688">
        <ele>2088.12</ele>
        <time>2019-02-24T15:02:41Z</time>
      </trkpt>
      <trkpt lat="46.65406" lon="12.18688">
        <ele>2087.64</ele>
        <time>2019-02-24T15:02:56Z</time>
      </trkpt>
      <trkpt lat="46.65407" lon="12.18688">
        <ele>2087.64</ele>
        <time>2019-02-24T15:02:57Z</time>
      </trkpt>
      <trkpt lat="46.65409" lon="12.18689">
        <ele>2087.64</ele>
        <time>2019-02-24T15:02:58Z</time>
      </trkpt>
      <trkpt lat="46.65411" lon="12.18689">
        <ele>2087.16</ele>
        <time>2019-02-24T15:02:59Z</time>
      </trkpt>
      <trkpt lat="46.65413" lon="12.18689">
        <ele>2086.68</ele>
        <time>2019-02-24T15:03:00Z</time>
      </trkpt>
      <trkpt lat="46.65415" lon="12.18688">
        <ele>2086.2</ele>
        <time>2019-02-24T15:03:01Z</time>
      </trkpt>
      <trkpt lat="46.65417" lon="12.18687">
        <ele>2086.2</ele>
        <time>2019-02-24T15:03:02Z</time>
      </trkpt>
      <trkpt lat="46.65418" lon="12.18683">
        <ele>2085.24</ele>
        <time>2019-02-24T15:03:03Z</time>
      </trkpt>
      <trkpt lat="46.65416" lon="12.18678">
        <ele>2082.83</ele>
        <time>2019-02-24T15:03:04Z</time>
      </trkpt>
      <trkpt lat="46.65413" lon="12.18666">
        <ele>2081.39</ele>
        <time>2019-02-24T15:03:06Z</time>
      </trkpt>
      <trkpt lat="46.65412" lon="12.18655">
        <ele>2078.99</ele>
        <time>2019-02-24T15:03:09Z</time>
      </trkpt>
      <trkpt lat="46.65413" lon="12.18648">
        <ele>2077.55</ele>
        <time>2019-02-24T15:03:13Z</time>
      </trkpt>
      <trkpt lat="46.65413" lon="12.18647">
        <ele>2077.55</ele>
        <time>2019-02-24T15:03:14Z</time>
      </trkpt>
      <trkpt lat="46.65423" lon="12.18648">
        <ele>2073.7</ele>
        <time>2019-02-24T15:03:18Z</time>
      </trkpt>
      <trkpt lat="46.65427" lon="12.18647">
        <ele>2073.22</ele>
        <time>2019-02-24T15:03:19Z</time>
      </trkpt>
      <trkpt lat="46.65428" lon="12.18643">
        <ele>2073.22</ele>
        <time>2019-02-24T15:03:20Z</time>
      </trkpt>
      <trkpt lat="46.6543" lon="12.18614">
        <ele>2070.34</ele>
        <time>2019-02-24T15:03:25Z</time>
      </trkpt>
      <trkpt lat="46.65425" lon="12.18592">
        <ele>2068.41</ele>
        <time>2019-02-24T15:03:29Z</time>
      </trkpt>
      <trkpt lat="46.65424" lon="12.18577">
        <ele>2068.41</ele>
        <time>2019-02-24T15:03:39Z</time>
      </trkpt>
      <trkpt lat="46.65427" lon="12.18571">
        <ele>2068.41</ele>
        <time>2019-02-24T15:03:46Z</time>
      </trkpt>
      <trkpt lat="46.65428" lon="12.18555">
        <ele>2067.93</ele>
        <time>2019-02-24T15:04:01Z</time>
      </trkpt>
      <trkpt lat="46.65433" lon="12.18534">
        <ele>2066.01</ele>
        <time>2019-02-24T15:04:15Z</time>
      </trkpt>
      <trkpt lat="46.65433" lon="12.18535">
        <ele>2066.01</ele>
        <time>2019-02-24T15:04:43Z</time>
      </trkpt>
      <trkpt lat="46.65432" lon="12.18533">
        <ele>2066.01</ele>
        <time>2019-02-24T15:05:01Z</time>
      </trkpt>
      <trkpt lat="46.65434" lon="12.18502">
        <ele>2062.17</ele>
        <time>2019-02-24T15:05:07Z</time>
      </trkpt>
      <trkpt lat="46.65433" lon="12.18476">
        <ele>2059.76</ele>
        <time>2019-02-24T15:05:10Z</time>
      </trkpt>
      <trkpt lat="46.6543" lon="12.18443">
        <ele>2059.28</ele>
        <time>2019-02-24T15:05:17Z</time>
      </trkpt>
      <trkpt lat="46.65425" lon="12.18433">
        <ele>2058.32</ele>
        <time>2019-02-24T15:05:24Z</time>
      </trkpt>
      <trkpt lat="46.65417" lon="12.1843">
        <ele>2059.28</ele>
        <time>2019-02-24T15:05:40Z</time>
      </trkpt>
      <trkpt lat="46.65411" lon="12.18419">
        <ele>2059.28</ele>
        <time>2019-02-24T15:05:56Z</time>
      </trkpt>
      <trkpt lat="46.65412" lon="12.18416">
        <ele>2059.28</ele>
        <time>2019-02-24T15:06:14Z</time>
      </trkpt>
      <trkpt lat="46.65411" lon="12.18412">
        <ele>2059.28</ele>
        <time>2019-02-24T15:06:17Z</time>
      </trkpt>
      <trkpt lat="46.65412" lon="12.1841">
        <ele>2058.8</ele>
        <time>2019-02-24T15:06:34Z</time>
      </trkpt>
      <trkpt lat="46.65413" lon="12.1841">
        <ele>2058.32</ele>
        <time>2019-02-24T15:06:51Z</time>
      </trkpt>
      <trkpt lat="46.65412" lon="12.1841">
        <ele>2058.8</ele>
        <time>2019-02-24T15:07:16Z</time>
      </trkpt>
      <trkpt lat="46.65412" lon="12.1841">
        <ele>2058.8</ele>
        <time>2019-02-24T15:07:42Z</time>
      </trkpt>
      <trkpt lat="46.65414" lon="12.18409">
        <ele>2058.32</ele>
        <time>2019-02-24T15:08:04Z</time>
      </trkpt>
      <trkpt lat="46.65412" lon="12.1841">
        <ele>2058.8</ele>
        <time>2019-02-24T15:08:30Z</time>
      </trkpt>
      <trkpt lat="46.65412" lon="12.1841">
        <ele>2058.32</ele>
        <time>2019-02-24T15:09:01Z</time>
      </trkpt>
      <trkpt lat="46.65412" lon="12.18406">
        <ele>2058.32</ele>
        <time>2019-02-24T15:09:10Z</time>
      </trkpt>
      <trkpt lat="46.65411" lon="12.18396">
        <ele>2057.36</ele>
        <time>2019-02-24T15:09:13Z</time>
      </trkpt>
      <trkpt lat="46.65412" lon="12.18391">
        <ele>2056.4</ele>
        <time>2019-02-24T15:09:14Z</time>
      </trkpt>
      <trkpt lat="46.65413" lon="12.18387">
        <ele>2055.92</ele>
        <time>2019-02-24T15:09:15Z</time>
      </trkpt>
      <trkpt lat="46.65415" lon="12.18384">
        <ele>2055.44</ele>
        <time>2019-02-24T15:09:16Z</time>
      </trkpt>
      <trkpt lat="46.65417" lon="12.18382">
        <ele>2054.96</ele>
        <time>2019-02-24T15:09:17Z</time>
      </trkpt>
      <trkpt lat="46.65421" lon="12.18374">
        <ele>2054.47</ele>
        <time>2019-02-24T15:09:21Z</time>
      </trkpt>
      <trkpt lat="46.65421" lon="12.18371">
        <ele>2053.99</ele>
        <time>2019-02-24T15:09:22Z</time>
      </trkpt>
      <trkpt lat="46.65418" lon="12.18369">
        <ele>2053.03</ele>
        <time>2019-02-24T15:09:23Z</time>
      </trkpt>
      <trkpt lat="46.65417" lon="12.18365">
        <ele>2052.55</ele>
        <time>2019-02-24T15:09:24Z</time>
      </trkpt>
      <trkpt lat="46.65418" lon="12.18361">
        <ele>2051.59</ele>
        <time>2019-02-24T15:09:25Z</time>
      </trkpt>
      <trkpt lat="46.6542" lon="12.18357">
        <ele>2050.63</ele>
        <time>2019-02-24T15:09:26Z</time>
      </trkpt>
      <trkpt lat="46.65422" lon="12.18354">
        <ele>2050.15</ele>
        <time>2019-02-24T15:09:27Z</time>
      </trkpt>
      <trkpt lat="46.65423" lon="12.1835">
        <ele>2050.15</ele>
        <time>2019-02-24T15:09:28Z</time>
      </trkpt>
      <trkpt lat="46.65421" lon="12.18347">
        <ele>2049.19</ele>
        <time>2019-02-24T15:09:29Z</time>
      </trkpt>
      <trkpt lat="46.65415" lon="12.18344">
        <ele>2046.3</ele>
        <time>2019-02-24T15:09:34Z</time>
      </trkpt>
      <trkpt lat="46.65417" lon="12.18342">
        <ele>2046.3</ele>
        <time>2019-02-24T15:09:53Z</time>
      </trkpt>
      <trkpt lat="46.65417" lon="12.18341">
        <ele>2046.3</ele>
        <time>2019-02-24T15:10:02Z</time>
      </trkpt>
      <trkpt lat="46.65416" lon="12.18329">
        <ele>2044.38</ele>
        <time>2019-02-24T15:10:08Z</time>
      </trkpt>
      <trkpt lat="46.65414" lon="12.18325">
        <ele>2043.42</ele>
        <time>2019-02-24T15:10:09Z</time>
      </trkpt>
      <trkpt lat="46.65413" lon="12.18319">
        <ele>2042.94</ele>
        <time>2019-02-24T15:10:10Z</time>
      </trkpt>
      <trkpt lat="46.65413" lon="12.18313">
        <ele>2042.46</ele>
        <time>2019-02-24T15:10:11Z</time>
      </trkpt>
      <trkpt lat="46.65418" lon="12.18292">
        <ele>2039.09</ele>
        <time>2019-02-24T15:10:15Z</time>
      </trkpt>
      <trkpt lat="46.65425" lon="12.18279">
        <ele>2038.61</ele>
        <time>2019-02-24T15:10:25Z</time>
      </trkpt>
      <trkpt lat="46.6543" lon="12.18267">
        <ele>2037.17</ele>
        <time>2019-02-24T15:10:35Z</time>
      </trkpt>
      <trkpt lat="46.65432" lon="12.18268">
        <ele>2037.17</ele>
        <time>2019-02-24T15:10:54Z</time>
      </trkpt>
      <trkpt lat="46.65431" lon="12.18264">
        <ele>2036.69</ele>
        <time>2019-02-24T15:10:56Z</time>
      </trkpt>
      <trkpt lat="46.6543" lon="12.18258">
        <ele>2035.25</ele>
        <time>2019-02-24T15:10:58Z</time>
      </trkpt>
      <trkpt lat="46.65418" lon="12.18254">
        <ele>2031.4</ele>
        <time>2019-02-24T15:11:03Z</time>
      </trkpt>
      <trkpt lat="46.65421" lon="12.18252">
        <ele>2029.96</ele>
        <time>2019-02-24T15:11:06Z</time>
      </trkpt>
      <trkpt lat="46.65421" lon="12.1825">
        <ele>2029.48</ele>
        <time>2019-02-24T15:11:24Z</time>
      </trkpt>
      <trkpt lat="46.65423" lon="12.18248">
        <ele>2029.48</ele>
        <time>2019-02-24T15:11:25Z</time>
      </trkpt>
      <trkpt lat="46.65431" lon="12.18239">
        <ele>2028.04</ele>
        <time>2019-02-24T15:11:28Z</time>
      </trkpt>
      <trkpt lat="46.65431" lon="12.18233">
        <ele>2027.08</ele>
        <time>2019-02-24T15:11:29Z</time>
      </trkpt>
      <trkpt lat="46.65428" lon="12.18216">
        <ele>2024.67</ele>
        <time>2019-02-24T15:11:31Z</time>
      </trkpt>
      <trkpt lat="46.65429" lon="12.18208">
        <ele>2024.19</ele>
        <time>2019-02-24T15:11:32Z</time>
      </trkpt>
      <trkpt lat="46.6543" lon="12.18203">
        <ele>2023.71</ele>
        <time>2019-02-24T15:11:33Z</time>
      </trkpt>
      <trkpt lat="46.65429" lon="12.18199">
        <ele>2023.71</ele>
        <time>2019-02-24T15:11:34Z</time>
      </trkpt>
      <trkpt lat="46.65428" lon="12.18194">
        <ele>2023.23</ele>
        <time>2019-02-24T15:11:35Z</time>
      </trkpt>
      <trkpt lat="46.65426" lon="12.18188">
        <ele>2022.75</ele>
        <time>2019-02-24T15:11:36Z</time>
      </trkpt>
      <trkpt lat="46.65424" lon="12.18183">
        <ele>2022.75</ele>
        <time>2019-02-24T15:11:37Z</time>
      </trkpt>
      <trkpt lat="46.65422" lon="12.18178">
        <ele>2022.75</ele>
        <time>2019-02-24T15:11:38Z</time>
      </trkpt>
      <trkpt lat="46.65417" lon="12.18174">
        <ele>2024.19</ele>
        <time>2019-02-24T15:11:46Z</time>
      </trkpt>
      <trkpt lat="46.65409" lon="12.18171">
        <ele>2022.75</ele>
        <time>2019-02-24T15:11:59Z</time>
      </trkpt>
      <trkpt lat="46.65407" lon="12.18171">
        <ele>2022.75</ele>
        <time>2019-02-24T15:12:01Z</time>
      </trkpt>
      <trkpt lat="46.65406" lon="12.1817">
        <ele>2022.75</ele>
        <time>2019-02-24T15:12:02Z</time>
      </trkpt>
      <trkpt lat="46.65398" lon="12.18165">
        <ele>2022.75</ele>
        <time>2019-02-24T15:12:15Z</time>
      </trkpt>
      <trkpt lat="46.65393" lon="12.1816">
        <ele>2022.75</ele>
        <time>2019-02-24T15:12:30Z</time>
      </trkpt>
      <trkpt lat="46.65375" lon="12.18138">
        <ele>2021.79</ele>
        <time>2019-02-24T15:12:43Z</time>
      </trkpt>
      <trkpt lat="46.65365" lon="12.18129">
        <ele>2021.31</ele>
        <time>2019-02-24T15:12:52Z</time>
      </trkpt>
      <trkpt lat="46.6536" lon="12.18104">
        <ele>2019.39</ele>
        <time>2019-02-24T15:13:03Z</time>
      </trkpt>
      <trkpt lat="46.6536" lon="12.18101">
        <ele>2018.91</ele>
        <time>2019-02-24T15:13:09Z</time>
      </trkpt>
      <trkpt lat="46.65358" lon="12.18098">
        <ele>2018.91</ele>
        <time>2019-02-24T15:13:10Z</time>
      </trkpt>
      <trkpt lat="46.65357" lon="12.18094">
        <ele>2018.91</ele>
        <time>2019-02-24T15:13:11Z</time>
      </trkpt>
      <trkpt lat="46.65357" lon="12.18089">
        <ele>2018.43</ele>
        <time>2019-02-24T15:13:12Z</time>
      </trkpt>
      <trkpt lat="46.65358" lon="12.18085">
        <ele>2017.46</ele>
        <time>2019-02-24T15:13:13Z</time>
      </trkpt>
      <trkpt lat="46.6536" lon="12.18081">
        <ele>2016.98</ele>
        <time>2019-02-24T15:13:14Z</time>
      </trkpt>
      <trkpt lat="46.65362" lon="12.18077">
        <ele>2016.98</ele>
        <time>2019-02-24T15:13:15Z</time>
      </trkpt>
      <trkpt lat="46.65363" lon="12.18075">
        <ele>2016.98</ele>
        <time>2019-02-24T15:13:16Z</time>
      </trkpt>
      <trkpt lat="46.65365" lon="12.18072">
        <ele>2016.98</ele>
        <time>2019-02-24T15:13:17Z</time>
      </trkpt>
      <trkpt lat="46.65376" lon="12.18054">
        <ele>2015.54</ele>
        <time>2019-02-24T15:13:29Z</time>
      </trkpt>
      <trkpt lat="46.65376" lon="12.18049">
        <ele>2015.54</ele>
        <time>2019-02-24T15:13:42Z</time>
      </trkpt>
      <trkpt lat="46.65377" lon="12.18047">
        <ele>2015.06</ele>
        <time>2019-02-24T15:13:43Z</time>
      </trkpt>
      <trkpt lat="46.65378" lon="12.18044">
        <ele>2015.06</ele>
        <time>2019-02-24T15:13:44Z</time>
      </trkpt>
      <trkpt lat="46.65379" lon="12.1804">
        <ele>2014.58</ele>
        <time>2019-02-24T15:13:45Z</time>
      </trkpt>
      <trkpt lat="46.65403" lon="12.17995">
        <ele>2010.73</ele>
        <time>2019-02-24T15:13:57Z</time>
      </trkpt>
      <trkpt lat="46.65412" lon="12.17984">
        <ele>2010.25</ele>
        <time>2019-02-24T15:14:07Z</time>
      </trkpt>
      <trkpt lat="46.65413" lon="12.17982">
        <ele>2010.25</ele>
        <time>2019-02-24T15:14:27Z</time>
      </trkpt>
      <trkpt lat="46.65416" lon="12.17981">
        <ele>2010.25</ele>
        <time>2019-02-24T15:14:51Z</time>
      </trkpt>
      <trkpt lat="46.65432" lon="12.17965">
        <ele>2007.85</ele>
        <time>2019-02-24T15:15:03Z</time>
      </trkpt>
      <trkpt lat="46.65443" lon="12.17947">
        <ele>2005.45</ele>
        <time>2019-02-24T15:15:07Z</time>
      </trkpt>
      <trkpt lat="46.65454" lon="12.17923">
        <ele>2004.49</ele>
        <time>2019-02-24T15:15:12Z</time>
      </trkpt>
      <trkpt lat="46.65476" lon="12.1788">
        <ele>2001.6</ele>
        <time>2019-02-24T15:15:20Z</time>
      </trkpt>
      <trkpt lat="46.65489" lon="12.17858">
        <ele>2001.6</ele>
        <time>2019-02-24T15:15:32Z</time>
      </trkpt>
      <trkpt lat="46.65518" lon="12.17834">
        <ele>1999.2</ele>
        <time>2019-02-24T15:15:46Z</time>
      </trkpt>
      <trkpt lat="46.65524" lon="12.1783">
        <ele>1998.72</ele>
        <time>2019-02-24T15:15:57Z</time>
      </trkpt>
      <trkpt lat="46.65524" lon="12.17832">
        <ele>1998.72</ele>
        <time>2019-02-24T15:16:11Z</time>
      </trkpt>
      <trkpt lat="46.65537" lon="12.17818">
        <ele>1997.76</ele>
        <time>2019-02-24T15:16:26Z</time>
      </trkpt>
      <trkpt lat="46.65565" lon="12.17801">
        <ele>1994.39</ele>
        <time>2019-02-24T15:16:37Z</time>
      </trkpt>
      <trkpt lat="46.65579" lon="12.17786">
        <ele>1991.99</ele>
        <time>2019-02-24T15:16:40Z</time>
      </trkpt>
      <trkpt lat="46.65607" lon="12.17736">
        <ele>1988.62</ele>
        <time>2019-02-24T15:16:49Z</time>
      </trkpt>
      <trkpt lat="46.65609" lon="12.1773">
        <ele>1988.62</ele>
        <time>2019-02-24T15:16:50Z</time>
      </trkpt>
      <trkpt lat="46.65621" lon="12.17702">
        <ele>1987.18</ele>
        <time>2019-02-24T15:16:59Z</time>
      </trkpt>
      <trkpt lat="46.65621" lon="12.17702">
        <ele>1987.18</ele>
        <time>2019-02-24T15:17:10Z</time>
      </trkpt>
      <trkpt lat="46.65621" lon="12.177">
        <ele>1987.66</ele>
        <time>2019-02-24T15:17:25Z</time>
      </trkpt>
      <trkpt lat="46.65624" lon="12.17696">
        <ele>1987.66</ele>
        <time>2019-02-24T15:17:34Z</time>
      </trkpt>
      <trkpt lat="46.65625" lon="12.17694">
        <ele>1987.66</ele>
        <time>2019-02-24T15:17:35Z</time>
      </trkpt>
      <trkpt lat="46.65626" lon="12.17692">
        <ele>1987.66</ele>
        <time>2019-02-24T15:17:36Z</time>
      </trkpt>
      <trkpt lat="46.65626" lon="12.1769">
        <ele>1987.66</ele>
        <time>2019-02-24T15:17:37Z</time>
      </trkpt>
      <trkpt lat="46.65628" lon="12.17688">
        <ele>1987.66</ele>
        <time>2019-02-24T15:17:38Z</time>
      </trkpt>
      <trkpt lat="46.65629" lon="12.17686">
        <ele>1987.18</ele>
        <time>2019-02-24T15:17:39Z</time>
      </trkpt>
      <trkpt lat="46.65645" lon="12.17635">
        <ele>1983.34</ele>
        <time>2019-02-24T15:17:50Z</time>
      </trkpt>
      <trkpt lat="46.65653" lon="12.17595">
        <ele>1981.41</ele>
        <time>2019-02-24T15:17:59Z</time>
      </trkpt>
      <trkpt lat="46.65661" lon="12.17569">
        <ele>1979.97</ele>
        <time>2019-02-24T15:18:10Z</time>
      </trkpt>
      <trkpt lat="46.65671" lon="12.17539">
        <ele>1977.57</ele>
        <time>2019-02-24T15:18:21Z</time>
      </trkpt>
      <trkpt lat="46.65675" lon="12.17531">
        <ele>1977.09</ele>
        <time>2019-02-24T15:18:37Z</time>
      </trkpt>
      <trkpt lat="46.6568" lon="12.17516">
        <ele>1976.13</ele>
        <time>2019-02-24T15:18:48Z</time>
      </trkpt>
      <trkpt lat="46.6568" lon="12.17515">
        <ele>1976.13</ele>
        <time>2019-02-24T15:19:07Z</time>
      </trkpt>
      <trkpt lat="46.65679" lon="12.17517">
        <ele>1975.65</ele>
        <time>2019-02-24T15:19:21Z</time>
      </trkpt>
      <trkpt lat="46.65679" lon="12.17516">
        <ele>1976.61</ele>
        <time>2019-02-24T15:19:39Z</time>
      </trkpt>
      <trkpt lat="46.65678" lon="12.17515">
        <ele>1976.13</ele>
        <time>2019-02-24T15:19:59Z</time>
      </trkpt>
      <trkpt lat="46.6568" lon="12.17518">
        <ele>1976.13</ele>
        <time>2019-02-24T15:20:16Z</time>
      </trkpt>
      <trkpt lat="46.65678" lon="12.17518">
        <ele>1976.13</ele>
        <time>2019-02-24T15:20:35Z</time>
      </trkpt>
      <trkpt lat="46.65673" lon="12.17519">
        <ele>1974.69</ele>
        <time>2019-02-24T15:20:48Z</time>
      </trkpt>
      <trkpt lat="46.65671" lon="12.17524">
        <ele>1975.17</ele>
        <time>2019-02-24T15:21:01Z</time>
      </trkpt>
      <trkpt lat="46.65673" lon="12.17521">
        <ele>1973.72</ele>
        <time>2019-02-24T15:21:15Z</time>
      </trkpt>
      <trkpt lat="46.65673" lon="12.1752">
        <ele>1974.2</ele>
        <time>2019-02-24T15:21:44Z</time>
      </trkpt>
      <trkpt lat="46.65674" lon="12.1752">
        <ele>1974.2</ele>
        <time>2019-02-24T15:22:08Z</time>
      </trkpt>
      <trkpt lat="46.65671" lon="12.17521">
        <ele>1974.2</ele>
        <time>2019-02-24T15:22:40Z</time>
      </trkpt>
      <trkpt lat="46.6567" lon="12.17523">
        <ele>1975.17</ele>
        <time>2019-02-24T15:23:02Z</time>
      </trkpt>
    </trkseg>
  </trk>
</gpx>